GFSSW_850_thetae_000.txt.gz
Theta_e
307 308 311 311 311 311 311 310 311 313 314 313 313 314 314 311 309 314 314 320 329 329 329 329 327 327 326 325 323 322 318 317 316 318 320 320 320 325 326 325 324 325 327 328 327
305 307 309 310 311 310 310 310 310 311 311 311 312 312 312 311 309 314 311 316 327 324 327 326 326 326 326 323 322 321 319 320 317 318 320 320 321 323 324 324 325 325 325 327 327
305 305 307 309 310 309 309 310 310 309 310 310 310 310 310 310 313 313 310 311 323 327 324 325 326 325 325 324 323 321 321 320 322 323 323 321 321 323 322 323 325 325 326 328 328
305 306 307 306 308 308 309 308 308 309 310 310 309 308 310 311 313 313 311 310 322 329 324 324 324 324 324 324 325 324 323 322 323 324 323 320 322 322 323 323 324 324 325 326 327
306 307 307 307 306 307 308 308 308 309 309 310 310 308 311 312 312 314 317 310 317 329 327 325 323 324 324 323 324 323 323 325 325 324 322 321 321 321 322 324 324 325 325 326 326
307 306 305 305 305 304 304 308 307 308 308 306 308 308 312 312 311 317 319 314 311 327 328 327 324 325 325 325 324 324 322 321 321 321 321 320 321 321 323 324 323 323 325 325 325
307 306 306 306 306 304 304 304 307 309 309 306 309 310 312 311 310 313 316 318 310 326 329 326 325 326 326 325 325 322 321 319 320 321 320 321 319 319 323 322 322 321 324 324 325
308 307 308 308 306 306 305 306 305 308 307 306 309 311 311 310 310 312 314 320 316 327 329 325 325 325 326 325 320 320 319 320 318 319 321 320 320 318 322 321 321 322 322 322 323
310 310 310 309 309 308 305 305 305 305 306 307 311 311 309 310 310 312 315 317 319 326 328 327 326 325 325 322 319 318 320 318 318 318 319 318 320 318 321 321 322 321 319 319 319
310 311 312 312 310 310 307 305 307 309 309 310 311 311 312 314 310 311 314 316 319 325 328 329 328 324 320 319 325 320 319 317 317 318 317 317 318 317 320 319 318 317 318 319 319
310 311 312 312 313 312 310 308 310 309 312 312 311 311 315 313 314 314 313 317 322 326 328 328 329 329 326 320 318 317 318 317 315 316 319 318 318 317 317 315 314 317 319 319 319
309 311 312 313 312 312 310 313 311 310 312 311 312 313 315 314 316 320 318 323 324 326 327 328 329 326 323 319 317 317 317 316 316 319 320 319 318 316 314 314 317 318 319 320 319
308 312 313 313 311 313 311 311 312 310 311 311 311 312 315 314 319 320 323 323 323 325 327 329 328 325 322 318 319 317 316 317 320 319 318 320 319 317 316 317 318 319 320 320 320
309 313 314 313 312 313 315 313 312 312 315 313 314 313 316 316 320 321 323 324 324 325 326 326 320 324 323 319 316 317 316 319 321 319 321 318 320 316 315 316 316 317 319 319 319
310 316 315 315 314 313 314 312 312 313 320 313 315 316 316 319 320 321 323 324 325 324 322 326 320 322 321 319 316 318 319 320 319 317 317 318 318 316 315 317 316 315 318 318 318
309 316 315 314 313 313 314 314 313 319 320 317 318 319 315 319 319 319 321 323 324 321 318 318 318 317 317 317 317 317 317 315 314 315 319 317 318 317 316 317 315 315 317 317 318
309 313 316 315 315 314 313 313 318 324 316 321 320 319 318 320 320 321 322 324 325 323 321 318 314 312 316 315 314 315 316 320 321 320 321 316 317 318 315 314 317 314 316 317 317
310 312 317 317 318 317 314 319 326 321 321 319 319 319 321 320 320 320 321 321 318 315 316 319 319 313 312 315 315 314 316 320 326 324 323 317 318 317 313 315 318 318 318 317 318
312 314 315 316 315 317 316 325 324 322 319 320 319 321 322 321 320 319 320 319 317 316 319 317 318 314 314 313 315 316 318 317 320 318 320 319 318 316 313 314 315 316 317 317 318
313 316 319 320 318 317 322 325 324 321 318 320 322 321 324 319 319 320 319 321 324 319 320 318 317 316 314 314 313 316 314 319 317 324 323 318 319 319 317 316 314 314 316 318 317
319 320 320 321 318 319 325 324 323 318 321 324 324 323 319 320 318 321 323 322 323 322 321 318 317 319 315 316 316 315 314 314 314 316 320 319 318 313 313 313 315 315 318 318 317
320 316 319 320 317 316 322 323 322 322 322 322 319 319 322 325 323 323 324 323 321 322 324 322 317 318 320 316 315 315 316 313 316 318 314 313 317 312 312 311 314 317 319 318 317
318 319 319 321 322 318 319 320 320 322 321 324 325 323 322 324 325 322 322 320 321 322 322 321 321 321 323 319 317 319 317 314 314 314 318 318 318 312 314 312 315 316 318 318 316
318 316 317 319 317 317 319 319 320 319 319 319 321 321 322 322 320 321 321 320 319 319 319 318 317 320 324 321 318 320 320 316 315 316 316 316 318 316 315 315 316 318 318 316 316
315 313 316 316 313 314 315 317 318 319 318 319 320 320 322 322 320 320 319 318 317 317 316 315 317 317 316 316 316 318 318 318 318 316 317 316 316 315 313 311 313 315 315 315 315
315 313 315 312 313 313 312 314 315 315 316 319 317 315 316 317 317 321 319 319 320 317 316 314 316 313 312 312 312 313 312 311 313 316 316 315 315 313 314 314 316 316 314 315 314
314 314 313 311 310 312 313 313 314 313 313 312 315 313 312 311 310 314 315 314 315 316 315 313 311 311 311 312 314 316 314 311 310 309 310 312 311 312 313 314 314 315 314 314 311

GFSSW_850_thetae_003.txt.gz
Theta_e
306 307 308 308 311 313 314 314 312 312 314 315 315 314 315 314 313 311 312 313 323 330 330 329 328 326 325 326 323 321 318 318 318 316 316 319 319 322 323 324 324 324 326 328 328
304 305 306 308 309 311 311 311 310 311 312 313 314 313 313 313 314 312 310 311 317 327 326 328 330 328 325 326 322 320 319 321 317 315 318 321 320 321 322 322 324 325 326 326 328
306 305 306 307 310 311 310 310 309 311 311 312 312 312 313 312 312 312 311 310 312 326 327 325 328 326 325 323 321 319 320 319 320 321 322 321 321 322 321 320 323 324 325 324 327
306 305 307 307 306 308 309 310 309 310 310 310 310 311 310 311 312 316 312 310 310 327 327 324 324 325 323 323 324 322 321 321 322 324 323 320 323 320 321 322 323 323 323 324 326
304 305 307 307 307 307 308 309 309 308 307 310 310 310 310 312 311 315 318 313 310 321 329 326 324 323 323 322 324 323 323 324 325 325 323 322 319 318 320 322 323 323 323 324 325
306 306 306 305 305 306 305 307 309 308 307 309 310 310 310 311 310 311 316 317 314 313 328 326 325 324 324 324 323 324 324 324 323 323 319 319 319 320 321 323 323 322 322 323 325
308 308 307 305 306 307 305 305 305 308 308 309 306 309 310 310 309 310 312 316 317 312 328 326 325 324 325 324 326 324 321 319 319 321 319 320 319 318 323 322 321 321 321 321 324
310 310 309 308 308 307 307 307 306 306 308 309 307 310 310 309 309 311 312 316 316 316 327 326 325 324 326 325 319 318 318 320 319 319 319 320 321 318 322 320 319 319 320 321 322
309 310 311 312 310 309 308 307 307 306 306 309 308 310 311 310 310 309 313 316 317 317 326 327 326 325 326 323 322 319 319 318 317 316 318 318 319 317 320 319 319 318 318 319 319
307 310 312 312 312 311 310 307 305 306 306 308 308 309 310 310 309 309 312 316 319 318 327 327 326 323 321 324 333 322 320 318 317 317 317 317 317 317 318 318 316 316 318 318 318
307 309 311 312 313 313 311 307 306 308 308 309 311 311 312 309 311 309 312 315 319 321 327 328 328 329 326 323 323 319 318 318 315 314 315 315 316 316 316 317 313 316 318 318 317
308 308 312 312 313 312 312 307 308 309 311 309 311 310 312 312 315 310 312 316 320 322 325 328 329 326 324 321 318 318 318 318 316 317 316 317 316 315 313 313 313 316 318 318 318
308 311 313 313 313 312 310 309 309 310 312 310 310 311 312 314 316 317 314 319 319 322 326 327 326 326 326 325 321 318 318 318 317 317 317 317 318 317 314 315 316 316 318 319 318
308 312 314 313 312 312 313 310 309 310 310 311 312 312 311 313 316 317 316 320 319 321 325 327 323 327 326 323 325 328 316 317 317 318 320 316 320 315 314 315 314 316 318 318 318
308 314 315 314 315 314 314 312 311 312 310 312 313 313 313 314 317 317 318 322 320 321 325 325 324 326 329 326 318 322 316 316 317 317 316 317 317 316 313 315 314 313 315 317 317
308 310 316 315 313 312 313 312 311 315 320 315 314 314 316 316 317 319 320 322 320 323 319 319 322 325 325 320 315 316 316 314 314 314 318 316 317 318 314 315 314 313 314 317 317
308 308 314 315 314 312 312 312 316 321 313 318 315 315 315 318 319 321 323 324 323 325 325 316 316 315 315 315 314 314 316 320 321 320 321 315 316 320 316 312 314 313 314 316 316
308 309 311 315 316 312 312 314 320 318 317 317 318 316 316 319 321 323 323 324 322 320 321 319 322 312 311 314 314 313 317 319 323 322 319 313 317 318 312 311 316 317 315 316 316
309 312 313 313 314 315 314 316 323 321 319 318 317 317 321 320 321 322 321 322 320 319 322 317 318 312 312 312 314 314 317 315 320 317 319 318 316 315 313 312 312 314 314 316 316
312 314 316 318 313 315 317 323 322 318 318 317 320 320 322 320 322 321 321 319 319 314 315 315 315 315 313 313 311 314 312 318 315 324 323 317 316 318 316 315 312 311 313 316 316
317 318 318 319 314 316 324 322 319 318 319 321 320 321 320 320 320 321 321 320 321 320 318 314 314 317 314 315 314 312 312 312 314 314 319 318 317 312 314 313 313 312 316 316 315
318 316 317 316 319 318 322 323 318 318 321 323 320 317 317 316 318 321 321 321 321 320 322 319 314 316 317 315 312 313 313 311 315 316 312 312 315 309 311 311 314 315 315 315 315
315 317 317 317 322 320 321 321 321 323 322 322 318 318 321 319 324 321 321 319 321 320 322 319 318 320 321 318 316 317 314 312 312 312 314 315 316 310 310 310 313 315 317 317 316
316 316 316 316 317 319 318 321 322 320 319 319 321 321 321 320 319 320 321 318 318 318 319 318 316 317 320 320 316 318 317 313 314 315 314 314 316 315 312 313 315 316 317 316 314
315 312 314 313 313 315 316 318 321 321 319 318 321 322 321 321 319 319 319 318 317 317 315 314 317 316 314 314 316 317 318 314 314 313 315 315 314 315 313 311 312 314 314 314 314
315 313 314 311 312 313 313 314 315 313 319 320 321 318 320 321 318 321 318 319 320 316 315 312 315 313 311 311 311 312 313 315 315 316 314 315 314 311 312 314 314 315 314 313 314
314 314 313 310 310 312 313 313 314 312 312 315 315 314 315 311 310 312 313 312 313 315 313 311 310 310 312 312 313 313 311 310 309 309 310 310 310 310 312 312 314 315 315 315 314

GFSSW_850_thetae_006.txt.gz
Theta_e
304 305 306 307 308 309 312 314 315 317 317 316 316 316 315 315 315 315 313 310 312 327 327 329 328 327 325 325 324 321 318 319 319 316 316 317 319 322 323 321 322 323 325 326 326
305 305 305 305 306 310 311 312 313 313 313 312 313 314 315 315 314 314 314 312 310 324 328 328 329 329 325 326 323 319 318 320 317 314 316 319 320 322 321 320 321 323 324 324 324
310 307 305 305 306 309 310 311 311 310 311 312 312 313 314 314 314 313 313 313 310 316 327 326 327 329 324 324 321 318 320 318 320 321 320 321 322 323 320 319 321 322 323 323 323
308 307 306 306 306 306 308 310 310 310 309 311 312 312 312 313 312 317 314 313 312 311 325 327 324 325 323 322 322 321 320 320 321 323 322 321 323 321 321 321 322 322 322 323 322
304 306 306 305 307 307 307 307 308 309 309 309 310 310 311 312 311 314 317 316 315 312 323 327 325 324 322 321 322 322 322 323 324 324 323 323 319 318 319 321 322 322 322 322 322
306 307 306 305 305 305 305 305 306 309 309 308 308 310 311 311 309 311 314 316 317 316 318 326 325 324 324 323 323 323 324 324 324 324 321 319 319 319 321 321 322 322 321 321 321
309 310 309 308 307 305 306 305 305 306 309 308 308 310 310 310 308 309 310 311 316 318 316 326 325 324 324 323 324 324 323 320 319 321 319 320 319 317 322 321 321 320 320 320 320
308 310 311 311 310 308 306 307 307 305 307 308 309 308 309 309 308 309 311 311 313 317 315 325 326 324 324 323 320 319 318 321 319 318 318 318 318 316 319 320 320 320 318 318 320
306 307 309 311 312 312 308 307 308 307 305 308 309 308 310 309 308 309 311 314 315 317 317 322 326 326 325 323 321 318 322 318 318 316 316 317 317 315 318 318 318 317 317 318 319
307 306 308 310 312 312 311 310 308 307 307 308 309 308 308 310 310 309 308 315 318 317 319 326 325 325 323 323 331 325 321 319 318 317 316 316 315 316 317 317 317 316 317 317 317
305 308 309 311 312 312 313 310 306 306 307 309 308 308 310 310 311 309 308 313 317 316 323 325 327 329 325 326 323 320 319 321 316 314 315 314 313 314 315 316 315 314 316 317 317
306 308 311 312 312 313 311 310 306 308 308 307 310 310 309 311 313 311 310 315 318 314 321 327 327 325 322 323 324 319 319 318 317 315 315 315 315 314 313 314 314 314 316 317 316
306 308 312 313 313 313 313 309 307 309 310 309 308 310 311 310 313 312 311 316 317 313 321 326 327 324 325 321 323 320 320 320 320 315 315 314 316 315 313 314 314 315 316 317 316
307 308 312 313 312 312 312 310 309 308 311 311 309 310 311 312 313 312 312 316 317 314 321 326 324 326 326 326 324 327 317 319 318 318 319 315 319 315 313 314 312 314 317 317 317
307 308 311 313 310 313 312 311 309 309 312 310 311 311 310 312 314 315 309 315 318 317 322 326 325 327 328 326 323 327 318 318 318 316 315 316 317 315 312 314 314 312 315 317 316
306 307 309 313 310 313 313 311 310 314 314 312 313 312 312 312 315 315 316 317 318 318 321 320 322 324 326 323 321 318 317 315 313 313 318 316 317 316 314 313 313 312 314 316 316
308 308 308 310 313 312 312 311 313 316 311 314 313 313 314 314 316 317 316 317 320 321 323 317 323 318 322 319 315 317 318 323 322 320 320 314 315 316 314 312 312 312 314 316 316
309 308 309 309 314 310 311 310 317 315 313 314 314 313 315 315 317 317 319 322 320 317 321 323 324 315 313 322 320 318 317 318 324 321 319 312 317 316 313 311 312 315 316 316 315
309 309 311 311 314 310 309 314 317 317 316 317 315 314 316 317 319 320 320 321 321 317 320 322 322 311 312 312 319 314 318 315 317 315 318 318 314 314 313 311 310 312 314 315 315
311 312 315 314 314 310 311 315 318 318 316 315 316 316 320 318 321 319 321 322 322 317 314 315 314 314 311 311 310 313 313 318 315 324 323 318 315 317 315 315 311 309 312 314 315
316 315 316 316 313 313 316 314 320 317 316 318 319 317 319 318 320 319 319 320 319 315 314 312 313 316 312 313 313 312 313 311 314 314 319 318 317 311 312 312 311 310 312 314 315
314 315 315 313 317 317 318 323 318 319 321 321 319 319 319 317 321 321 321 319 318 318 319 315 312 314 315 314 310 311 311 312 317 316 311 312 315 310 308 308 311 312 313 314 315
314 316 314 315 322 321 321 320 319 320 321 322 318 318 316 317 322 322 322 318 319 319 319 316 316 319 321 318 315 315 312 310 310 310 311 315 315 310 307 310 313 314 315 316 315
315 316 315 315 316 318 321 320 322 320 320 319 318 317 319 320 318 320 320 318 319 318 319 318 316 316 320 319 315 317 314 311 313 314 313 312 315 314 311 312 313 314 315 316 315
314 314 315 315 315 315 317 320 322 322 319 319 321 319 319 320 319 319 317 316 316 317 314 316 318 315 312 315 316 316 316 311 313 314 316 316 313 314 312 312 312 313 313 312 313
314 312 312 310 311 314 313 316 317 315 318 321 320 318 317 321 319 320 317 318 318 315 315 312 315 312 311 311 311 315 315 312 313 312 313 313 314 311 311 312 314 315 315 313 313
313 314 313 310 310 312 315 314 314 313 313 314 316 317 313 313 311 313 313 311 314 315 313 311 310 312 314 311 312 312 310 313 312 311 312 314 311 310 313 312 314 314 315 315 315

GFSSW_850_thetae_009.txt.gz
Theta_e
304 304 304 305 306 307 310 312 313 316 318 318 319 318 316 317 316 315 315 314 312 324 326 327 327 328 326 325 324 320 321 322 321 317 321 316 320 322 323 321 322 322 323 325 323
304 305 306 305 304 306 308 309 310 312 314 316 317 316 315 316 316 315 316 315 314 311 323 328 328 329 325 325 324 319 322 322 319 316 317 317 320 322 322 321 321 321 322 322 322
305 307 307 306 306 307 308 310 310 310 312 313 313 314 314 315 315 314 314 314 314 312 315 328 327 328 326 324 322 319 322 319 320 320 319 319 321 322 321 322 321 321 322 322 322
306 305 305 306 306 306 306 307 310 311 310 310 311 312 313 314 313 314 315 313 313 314 312 325 326 325 324 323 321 321 319 320 321 322 322 321 322 321 321 322 322 322 321 321 322
307 306 305 306 305 307 307 306 306 308 309 309 309 311 312 313 312 314 316 314 315 319 314 323 326 324 326 322 321 320 321 322 322 322 322 323 322 322 320 324 324 321 321 321 321
307 308 308 308 306 306 305 306 306 306 308 309 309 310 311 312 310 311 313 315 314 317 316 320 325 325 324 322 324 323 323 323 323 323 322 320 322 320 324 324 324 322 321 320 321
308 310 311 310 310 308 306 305 305 305 307 309 309 308 310 311 309 309 309 311 312 315 317 318 325 323 324 322 323 324 324 321 321 322 322 320 321 319 324 320 320 320 320 319 318
309 310 310 310 311 311 309 307 306 306 304 308 309 309 309 310 309 308 309 309 310 311 315 316 323 324 323 323 321 323 320 327 322 317 318 319 324 319 318 316 318 318 318 318 318
306 307 306 306 307 311 312 310 307 308 307 307 308 309 309 308 308 307 308 310 312 311 315 315 321 325 324 322 320 320 326 322 323 318 319 318 320 317 317 318 317 317 317 318 318
305 307 307 308 308 310 312 312 308 308 307 307 308 309 309 310 309 309 308 308 315 315 318 318 321 326 325 325 330 322 325 320 320 317 315 317 317 316 315 316 317 316 316 317 317
306 307 307 310 310 311 312 313 309 308 307 307 309 308 310 310 310 309 309 309 312 318 317 319 325 329 325 326 323 319 322 323 320 315 315 316 315 317 316 315 314 313 315 316 317
305 306 308 311 312 312 313 313 310 307 307 307 308 309 309 310 312 311 309 310 312 317 315 321 325 325 323 323 321 319 321 320 318 315 315 317 318 317 315 314 314 313 315 316 316
305 307 307 311 312 313 313 313 309 308 308 309 307 309 310 309 311 311 310 311 316 314 316 321 325 324 324 324 326 321 322 320 322 317 315 315 319 316 314 313 312 313 316 316 316
305 307 308 312 310 313 313 312 308 307 309 311 308 308 310 310 311 311 311 312 316 314 314 322 323 325 326 325 325 327 319 321 319 322 325 316 323 317 316 313 312 313 315 315 315
305 306 308 310 311 310 311 312 309 306 314 310 309 310 310 310 311 312 311 313 316 313 317 323 326 325 326 325 323 325 321 322 320 320 315 316 319 318 311 314 314 312 315 315 315
306 305 307 309 311 311 312 311 307 311 313 312 311 312 312 311 312 313 312 314 317 314 316 322 322 325 325 322 323 314 318 318 315 315 320 317 320 320 317 314 312 311 314 315 315
308 308 309 309 311 311 312 308 311 314 310 313 312 312 311 311 312 313 313 314 317 317 317 321 325 322 324 320 317 318 324 327 325 321 324 313 316 319 314 312 313 314 313 315 316
312 311 311 310 309 311 309 310 314 315 310 312 312 312 313 312 315 314 314 313 316 316 315 324 328 320 321 321 321 323 324 325 327 323 321 312 319 319 312 312 312 314 315 315 315
314 311 312 311 310 310 310 312 314 315 310 314 312 312 314 314 316 315 314 314 316 316 317 321 322 314 315 315 320 318 324 317 317 314 320 319 317 315 313 311 309 311 313 315 315
311 312 312 313 312 309 307 313 313 311 313 312 312 312 313 314 314 315 315 317 319 317 314 318 316 313 310 314 311 318 316 323 317 324 324 319 316 321 315 314 310 309 312 314 314
311 312 315 312 311 308 312 311 314 316 312 313 315 314 314 314 314 317 315 320 320 318 312 310 313 314 311 314 313 314 318 315 316 316 322 320 319 311 312 311 312 310 312 314 314
311 315 315 313 313 311 314 315 315 316 315 315 315 317 316 315 314 320 319 320 320 316 314 311 312 313 314 313 311 311 314 315 319 316 312 314 319 310 308 308 310 310 312 314 314
312 314 314 314 316 314 315 317 318 318 319 320 318 317 315 317 320 321 320 318 318 317 316 314 315 318 320 317 314 313 310 311 311 311 313 318 319 309 309 311 311 311 312 313 314
313 318 314 313 314 317 320 319 320 319 321 321 316 316 316 318 318 320 322 318 318 318 319 316 314 317 321 318 314 316 311 310 314 315 314 313 315 314 312 312 311 312 313 314 314
311 312 317 317 316 316 319 319 321 321 320 319 319 317 319 320 319 319 319 317 316 317 315 315 318 315 311 315 315 315 315 311 313 315 318 316 313 313 311 311 311 312 313 313 313
312 310 312 311 311 317 316 320 320 318 318 320 320 317 318 320 319 318 317 319 318 314 316 313 316 312 311 312 314 317 314 313 312 311 312 312 313 309 311 311 312 314 314 313 312
312 313 312 311 310 315 315 317 317 315 316 313 317 316 318 313 312 316 318 316 317 314 313 315 312 313 315 311 311 315 312 313 313 310 314 315 316 308 312 311 312 313 313 313 313

GFSSW_850_thetae_012.txt.gz
Theta_e
304 304 304 304 304 305 309 315 316 317 321 320 320 319 319 319 318 317 317 316 314 316 320 321 327 328 329 327 324 321 326 327 326 325 326 321 324 325 324 323 323 323 324 324 322
305 305 306 307 306 305 305 306 308 310 313 316 318 318 318 317 317 316 317 316 316 313 320 325 327 329 329 327 326 325 327 326 325 325 325 323 324 325 326 325 324 323 323 322 322
306 306 306 307 306 306 309 307 310 310 310 312 314 316 316 315 316 316 316 315 315 315 316 322 327 329 328 327 326 325 327 326 324 323 322 324 325 325 326 327 325 324 323 322 322
307 308 305 305 305 306 306 306 307 310 310 310 312 312 314 314 317 316 316 313 314 315 319 317 324 327 329 329 326 326 325 325 324 324 324 325 325 325 326 326 326 325 324 321 322
308 308 305 305 307 305 306 307 306 308 310 310 309 311 312 314 314 315 317 316 313 318 319 317 323 325 329 328 326 326 325 324 324 324 324 324 325 326 326 326 326 325 323 321 321
308 309 309 309 309 308 306 305 306 306 308 309 309 310 312 312 312 311 313 314 314 317 319 317 322 323 326 327 328 326 325 325 325 325 325 325 326 324 326 326 326 324 322 321 321
309 308 311 311 311 310 309 307 305 305 305 309 310 310 312 311 309 309 310 310 312 313 317 317 320 324 324 327 327 326 327 326 326 326 326 325 327 327 325 322 320 320 320 319 319
305 310 309 310 309 311 311 310 308 306 305 308 309 310 310 310 310 310 309 310 311 311 315 317 319 322 324 325 326 328 328 330 327 326 326 324 328 326 323 320 321 319 319 320 318
304 309 309 307 306 307 310 312 311 307 308 306 308 309 310 309 309 309 309 310 312 310 312 315 317 321 325 324 327 329 330 329 327 325 326 324 327 324 319 320 320 321 320 320 319
304 307 309 308 307 310 309 312 313 307 309 307 308 309 309 309 310 309 309 308 310 314 314 316 316 323 326 326 330 328 328 327 328 325 321 324 325 323 322 320 321 320 319 319 319
304 306 308 307 309 310 310 310 309 308 309 309 308 309 310 310 310 310 310 308 310 313 316 316 318 321 326 327 325 324 325 327 326 323 322 325 326 323 324 322 321 320 319 319 318
304 305 307 308 309 311 311 311 310 309 310 308 309 309 310 310 311 310 310 310 311 312 314 317 320 320 324 325 325 326 326 326 325 320 321 326 327 326 325 322 321 320 319 319 317
304 304 306 308 308 311 312 312 312 309 308 309 308 309 309 309 310 311 311 310 311 312 312 318 317 320 324 326 326 326 325 325 326 323 323 323 328 326 320 317 316 317 319 318 318
305 304 305 308 311 312 312 313 312 309 308 309 309 308 310 310 311 309 311 310 313 313 313 316 318 322 326 326 326 328 325 325 326 328 331 324 331 327 324 321 318 317 318 318 317
307 304 306 307 312 312 311 311 309 308 314 310 309 309 309 310 311 311 311 310 313 315 313 316 317 324 326 326 324 326 325 326 326 327 325 328 327 327 320 321 319 319 318 317 317
313 306 305 307 310 312 311 311 308 310 314 312 310 310 311 310 310 312 312 311 313 315 314 315 320 319 326 324 324 322 323 324 323 323 330 327 326 327 324 321 319 318 318 317 317
314 313 307 307 310 310 312 307 310 315 311 314 312 312 311 311 311 312 313 313 314 318 318 315 321 323 324 325 320 324 327 331 332 331 330 319 322 326 322 318 319 319 318 317 316
315 314 311 309 309 309 309 309 315 314 312 311 312 311 312 312 312 314 313 312 313 316 316 318 327 326 325 325 323 323 327 328 330 330 328 318 325 324 318 316 315 318 318 317 316
315 314 312 311 310 309 308 312 314 314 311 312 312 313 312 312 312 314 312 312 313 314 317 319 324 321 324 320 322 323 327 322 323 321 325 325 323 321 317 317 315 316 317 317 316
315 313 310 312 310 310 307 314 313 312 309 313 312 312 314 314 314 314 312 311 313 315 316 317 320 319 317 320 315 324 324 325 323 328 328 325 324 325 321 319 316 316 317 317 316
314 311 313 312 310 307 311 313 313 312 310 313 312 312 313 314 313 314 314 315 314 316 317 318 320 315 317 322 324 325 326 325 324 323 327 326 325 320 319 318 317 316 317 317 316
310 316 314 311 310 308 311 311 313 314 312 313 313 312 312 314 312 316 315 318 314 318 320 318 320 324 319 315 318 323 324 324 328 324 321 322 324 316 316 315 314 316 316 316 316
311 314 313 311 315 312 311 313 312 315 314 312 316 314 313 314 315 315 318 315 316 319 320 317 320 322 322 319 315 323 321 325 323 319 324 326 325 315 317 317 314 315 315 315 315
311 317 313 313 313 314 314 315 316 316 316 317 318 318 316 315 316 317 321 319 319 319 318 316 320 321 324 323 321 322 322 323 325 326 324 322 323 319 318 318 316 315 315 315 314
310 316 314 315 314 314 316 316 319 320 319 320 320 319 317 318 319 322 321 320 320 320 318 319 321 320 319 319 320 320 320 319 322 324 324 324 322 321 320 320 318 316 315 314 314
311 312 312 316 316 316 314 319 319 319 319 320 321 319 319 320 320 322 321 321 321 320 320 317 321 317 317 317 319 319 319 320 321 322 322 321 321 319 316 316 315 315 315 315 314
312 310 311 314 313 317 318 317 319 318 316 316 319 319 319 320 318 320 320 320 320 320 320 321 319 319 322 315 317 321 320 319 319 319 319 321 321 316 315 315 315 315 314 314 313

GFSSW_850_thetae_015.txt.gz
Theta_e
304 305 305 304 304 304 305 311 316 320 322 321 321 322 321 320 319 319 319 320 318 315 314 321 322 329 329 329 328 326 327 328 327 327 327 326 325 325 326 325 325 325 326 326 325
305 305 306 306 307 306 305 305 307 313 314 316 319 319 319 319 318 320 319 318 317 316 318 321 322 324 330 329 328 327 327 327 326 326 327 326 325 327 327 327 327 327 325 325 324
307 307 307 306 306 306 306 307 305 306 307 310 312 316 318 318 319 318 318 317 316 316 318 319 323 328 328 329 328 327 328 326 326 326 325 325 325 326 327 328 327 327 326 325 325
308 308 307 305 306 306 306 306 306 306 311 310 310 312 314 316 316 317 315 315 316 319 320 319 319 324 327 330 327 329 326 326 326 326 325 326 325 326 326 327 327 327 327 327 325
307 308 308 305 306 306 305 306 306 306 308 311 310 311 312 315 315 316 317 314 316 319 320 320 318 321 325 326 328 328 327 326 325 325 325 325 325 326 326 327 327 327 327 327 326
304 309 309 309 309 309 308 305 306 306 306 308 309 309 313 314 313 314 315 315 314 317 319 320 318 319 321 324 327 327 327 326 326 325 325 326 326 325 326 327 327 327 327 326 326
303 307 309 311 311 311 310 309 306 305 306 306 310 311 313 312 311 312 312 312 313 313 317 319 319 320 322 323 323 326 328 327 326 326 326 326 328 327 326 326 326 322 322 323 322
304 304 311 310 310 309 310 311 309 308 305 305 308 311 313 311 312 311 311 311 311 312 313 317 318 318 321 324 324 326 328 330 327 326 326 327 329 326 326 325 323 322 321 322 322
313 305 307 310 309 307 307 308 312 311 307 306 308 311 311 311 311 311 311 311 312 313 312 314 317 318 320 325 327 327 331 330 330 326 326 328 328 325 325 322 322 322 322 323 322
313 309 305 309 310 308 308 309 312 313 308 309 310 310 310 310 311 311 311 311 311 312 312 313 316 319 320 325 329 329 329 327 329 327 327 327 327 326 325 324 324 323 322 322 322
311 309 305 307 309 308 308 310 311 309 310 310 311 310 311 310 311 311 310 311 311 311 314 313 317 319 320 320 324 325 328 328 327 326 327 327 326 326 324 325 325 323 322 323 322
310 306 305 307 308 310 310 311 310 310 310 309 310 310 310 311 311 311 311 311 311 312 312 315 317 317 317 320 324 327 327 328 326 326 325 325 326 326 326 326 326 324 323 322 321
308 305 304 307 308 308 309 311 311 310 309 308 309 310 310 310 310 312 311 311 311 312 312 314 315 316 317 319 325 327 327 326 326 326 324 325 328 328 327 326 324 322 323 322 320
312 306 304 307 308 309 311 312 312 312 308 310 310 310 309 309 310 310 312 311 311 312 311 313 314 312 318 319 322 329 326 325 326 328 329 327 329 327 327 323 321 320 322 322 320
314 308 305 305 310 312 312 312 312 309 317 312 310 309 310 309 311 310 310 312 312 312 311 314 314 314 319 320 325 327 325 325 327 329 329 329 330 328 327 325 323 322 322 321 320
315 313 306 307 307 310 311 310 309 310 316 313 310 310 310 311 310 311 310 311 311 311 313 313 312 316 319 321 323 325 326 327 326 326 329 328 329 328 327 325 324 322 321 320 319
315 315 311 308 310 311 310 308 310 315 311 314 312 311 312 312 312 312 312 313 314 314 315 313 313 316 320 325 324 326 327 330 331 331 328 326 328 328 322 321 322 321 321 320 319
315 315 314 309 310 310 310 308 314 314 313 311 311 311 313 311 311 311 312 313 312 312 315 317 319 315 319 323 323 326 328 327 328 329 328 323 327 326 321 320 321 320 320 319 318
315 315 314 312 310 310 307 311 315 315 312 313 313 314 314 312 311 312 312 314 313 312 317 319 320 319 322 323 322 323 329 324 327 325 328 326 326 322 321 320 318 320 320 319 319
314 315 315 313 312 311 308 312 313 313 311 312 313 313 313 311 312 313 315 314 312 311 311 316 321 318 321 322 320 325 326 328 326 328 329 327 326 326 322 321 319 319 320 320 319
314 312 313 312 312 309 309 311 313 312 311 312 314 313 313 313 313 314 314 313 312 312 312 315 313 317 320 325 325 325 327 327 326 326 329 329 327 324 321 320 320 319 320 320 319
312 312 314 312 311 308 310 310 311 313 312 312 314 312 312 313 315 315 314 313 311 313 316 318 321 321 321 319 323 324 326 326 328 327 325 325 325 319 320 319 318 319 319 320 319
311 314 313 311 313 312 309 310 311 313 313 314 313 313 313 314 315 315 315 313 315 313 319 319 321 327 324 320 319 325 324 326 326 326 327 326 326 319 321 320 317 318 319 319 318
312 317 311 311 311 312 312 313 313 313 314 314 314 313 314 315 314 315 316 316 316 314 318 319 321 323 325 324 323 325 325 325 325 327 326 326 325 320 321 321 319 318 319 318 318
311 316 313 314 313 313 314 314 316 319 314 314 318 316 315 315 315 318 316 318 317 317 318 320 323 322 321 322 323 324 325 325 326 326 326 325 324 324 323 322 320 318 318 318 317
312 312 315 316 313 315 314 314 315 316 317 320 318 319 317 317 315 319 319 320 320 320 320 320 323 321 322 321 321 322 322 323 324 325 325 325 325 324 322 320 320 319 318 318 317
314 312 313 315 318 318 317 314 316 316 318 318 319 320 320 318 317 320 320 320 321 322 321 320 322 322 323 319 321 323 322 322 322 322 323 324 324 324 319 319 319 319 318 317 316

GFSSW_850_thetae_018.txt.gz
Theta_e
304 304 306 308 306 305 304 305 310 316 320 324 324 323 323 322 321 320 319 320 320 319 318 315 321 323 329 330 330 328 328 329 327 327 327 326 325 325 325 326 326 325 325 326 325
304 306 307 308 307 307 307 306 305 308 314 318 321 321 321 321 319 319 319 319 320 319 316 318 321 321 324 329 329 328 328 328 325 325 325 326 325 325 326 327 326 327 327 325 325
304 307 308 308 306 306 306 306 307 306 307 310 314 316 316 317 318 318 318 317 318 318 316 320 320 323 326 327 329 329 329 327 325 325 325 326 325 325 325 326 327 326 328 328 327
304 307 310 308 305 306 306 306 306 306 307 310 309 310 312 316 319 318 316 317 318 322 319 321 319 321 326 327 327 329 328 327 326 326 326 325 325 325 325 325 326 327 327 328 327
304 305 310 309 305 306 307 306 306 307 306 310 311 309 311 315 315 316 315 314 317 317 321 321 320 319 322 324 326 328 328 327 326 326 325 326 325 325 325 325 325 326 327 327 327
306 304 308 310 309 309 310 309 306 306 306 307 310 310 312 314 313 315 315 314 315 317 320 321 320 319 319 321 322 326 327 328 327 326 325 325 325 325 325 325 325 326 327 327 327
308 304 305 309 310 311 311 311 309 306 305 306 308 309 313 312 312 312 313 314 314 314 314 318 319 320 319 320 321 323 325 327 327 326 326 325 325 325 326 326 325 326 326 323 323
310 308 304 311 310 311 309 309 311 310 308 306 306 311 312 312 311 312 312 312 312 312 313 314 317 318 319 320 322 325 324 327 326 326 326 325 327 325 326 326 325 325 322 322 322
310 313 310 306 310 309 308 307 308 312 311 308 306 311 311 311 311 311 312 312 312 312 312 313 314 317 318 320 322 325 326 326 327 326 326 325 326 325 325 325 325 324 322 322 323
310 312 313 306 310 310 309 308 311 311 313 310 310 311 310 311 311 311 311 312 312 312 313 313 313 318 319 320 321 324 327 326 328 327 326 327 325 324 326 324 323 323 323 323 323
313 309 313 307 307 310 310 309 311 310 311 311 311 310 311 312 311 311 311 311 312 312 312 313 315 317 317 317 319 321 324 327 325 326 326 326 326 325 325 324 324 325 324 323 322
315 309 311 307 307 308 309 310 311 310 310 311 311 311 311 311 311 311 311 311 312 313 312 313 315 314 314 316 318 320 323 326 326 325 325 325 326 325 323 323 324 324 325 323 321
314 313 308 305 308 309 310 311 311 311 310 311 311 311 311 311 312 312 311 311 311 312 311 313 313 313 314 314 318 318 323 325 327 326 325 324 325 323 323 323 324 325 326 323 321
314 314 307 305 307 308 310 309 311 310 310 310 310 311 311 310 310 311 312 311 311 312 311 312 311 312 314 314 316 319 319 322 327 327 329 323 325 324 323 324 323 325 323 322 320
314 315 309 305 310 311 312 312 312 311 315 311 311 310 311 310 311 310 310 311 312 311 311 312 312 312 314 315 315 319 321 323 325 328 329 329 326 326 324 325 323 317 321 321 320
315 315 310 308 308 310 310 311 309 311 314 313 310 310 312 310 310 311 310 311 311 312 311 311 312 312 313 313 313 315 320 323 326 328 331 327 328 326 325 323 320 318 321 321 319
315 315 313 309 308 307 309 310 310 314 312 314 312 311 310 312 311 310 312 311 312 313 312 312 312 311 313 315 315 317 321 327 331 331 328 324 325 326 320 320 321 319 321 320 319
315 315 315 311 310 311 310 308 312 314 313 311 311 311 312 312 312 311 312 312 311 311 312 313 313 313 312 312 318 320 317 325 331 329 325 323 327 324 319 319 321 321 321 320 319
314 316 315 313 310 311 309 310 313 315 313 312 311 313 314 312 312 312 312 312 311 311 313 316 316 315 313 311 319 321 317 320 327 321 325 323 324 319 318 318 317 320 320 319 319
315 316 315 315 310 311 310 312 312 312 312 312 315 313 313 312 312 312 311 311 311 312 311 311 316 317 316 316 317 323 320 328 327 328 329 325 324 322 318 317 317 318 319 319 318
314 314 314 315 310 309 310 310 311 310 311 312 314 315 313 312 313 312 312 312 312 311 310 310 312 319 318 322 320 321 325 327 327 326 328 326 323 319 318 318 316 317 319 319 319
314 313 313 314 313 310 311 310 309 311 311 312 312 314 314 313 313 312 312 313 312 311 313 311 313 319 319 318 320 320 325 325 326 327 325 323 321 317 316 317 316 317 320 319 319
312 312 313 313 314 311 310 308 309 313 313 313 314 313 314 313 314 313 314 314 312 313 313 312 314 323 323 320 324 324 324 325 325 324 326 323 320 317 316 315 318 318 320 320 319
312 314 312 311 311 312 311 309 311 310 311 313 314 314 313 313 313 315 314 315 314 313 317 317 319 318 326 325 324 326 326 325 325 326 325 324 318 319 318 316 316 318 320 320 319
311 314 312 312 312 312 310 311 312 313 313 313 314 314 315 314 315 314 314 316 316 313 315 315 323 320 319 324 323 325 325 325 325 325 325 324 321 318 318 316 316 318 320 319 318
312 311 312 314 312 312 313 312 312 314 316 316 315 318 317 314 315 315 315 317 318 316 315 314 322 321 321 322 323 325 324 324 324 323 322 323 323 321 318 319 318 318 319 318 318
313 312 312 314 317 315 316 313 313 313 313 314 315 315 319 315 315 316 317 318 319 317 318 319 321 322 320 320 321 322 322 323 323 322 323 325 323 321 317 317 317 318 318 318 318

GFSSW_850_thetae_021.txt.gz
Theta_e
304 304 305 308 308 307 306 305 305 308 315 320 324 323 323 323 322 322 322 320 320 320 319 318 315 320 323 326 330 330 325 328 326 324 324 325 323 324 323 325 325 325 326 326 326
304 304 306 310 310 308 307 306 306 305 307 315 319 321 322 322 321 320 320 319 321 320 319 317 318 320 321 327 329 327 327 328 324 323 323 324 323 324 325 325 326 326 326 325 324
304 304 307 310 309 307 306 306 306 307 306 306 311 316 318 318 318 318 318 318 319 321 318 317 319 320 322 322 327 328 330 325 325 325 324 323 324 325 324 324 325 326 326 327 327
309 304 306 310 308 306 306 306 306 306 306 310 308 308 312 316 317 318 317 316 316 321 321 317 319 319 322 324 324 327 328 328 327 327 325 323 325 324 324 324 325 325 325 326 327
312 307 304 309 309 306 307 308 306 306 306 307 311 310 311 314 316 316 315 315 316 316 319 320 321 320 318 321 322 324 325 327 327 327 326 325 324 323 324 325 325 324 324 326 327
313 311 304 306 310 309 310 310 309 306 306 306 308 311 311 313 310 312 315 315 315 317 318 319 321 320 319 318 319 321 323 324 326 327 327 324 323 324 325 325 325 325 325 325 326
311 310 305 304 309 310 311 311 311 309 307 305 306 309 311 310 311 313 313 314 314 315 314 316 318 320 320 318 319 321 323 321 322 326 327 326 324 323 325 325 325 325 325 325 325
315 310 308 304 310 310 311 309 307 311 309 309 305 307 310 309 309 312 312 313 313 314 314 314 314 315 318 319 318 321 323 324 322 323 326 326 328 323 325 325 325 325 325 325 322
315 311 312 310 306 311 309 308 307 308 312 311 307 306 309 309 310 311 312 312 312 312 312 312 313 315 317 318 318 320 322 322 323 323 324 325 326 323 325 325 324 324 324 323 322
315 314 310 313 307 310 310 309 308 311 310 312 308 310 311 310 310 311 311 312 312 311 313 312 312 313 315 318 320 318 321 321 323 322 323 325 326 323 324 323 323 324 323 321 322
315 315 309 313 312 307 310 310 309 311 311 312 311 309 311 311 311 311 311 311 312 312 313 312 312 314 314 315 315 316 317 319 321 322 324 325 325 325 324 323 322 322 321 320 322
315 315 310 312 310 306 310 310 311 311 310 312 312 311 311 311 311 310 311 311 311 313 311 311 313 312 313 315 317 317 317 318 319 320 323 324 325 324 323 322 323 324 324 320 321
315 315 312 310 307 307 309 310 310 311 311 310 311 312 312 311 311 311 311 311 311 311 311 312 311 312 313 313 316 317 317 317 318 320 322 323 326 324 322 323 323 324 325 321 321
315 315 313 309 306 308 309 309 309 310 311 311 310 311 311 311 311 311 311 311 311 312 312 311 310 311 313 313 313 315 314 316 317 321 326 324 330 323 323 320 318 320 321 321 320
315 315 314 307 307 307 308 309 312 311 311 309 311 309 311 310 311 311 311 312 312 311 311 311 311 311 311 312 312 313 314 315 316 319 321 325 329 322 320 323 322 320 318 320 320
315 315 314 307 311 311 311 310 311 311 310 312 310 310 310 311 311 311 310 311 312 313 311 310 310 311 311 310 311 312 314 314 318 321 324 322 328 324 322 322 321 319 318 318 319
316 315 315 310 309 311 309 309 310 312 310 313 312 310 310 312 312 311 312 312 313 313 313 311 311 311 312 313 312 313 314 314 319 321 323 323 326 326 320 317 321 316 317 317 318
316 315 315 312 309 307 308 309 311 310 312 311 311 310 312 310 312 312 312 312 312 310 312 310 308 311 311 312 314 313 312 315 316 322 323 325 329 323 322 316 320 317 317 317 318
315 315 315 310 310 308 309 310 310 310 313 313 311 313 313 312 311 310 310 313 310 310 309 310 311 312 311 311 311 313 313 313 320 322 326 325 320 317 316 316 317 317 316 316 317
315 315 315 314 310 310 309 312 310 312 312 311 314 312 313 311 311 312 310 310 311 309 309 311 313 311 311 312 311 315 315 316 317 326 328 324 320 319 317 316 317 317 316 316 317
314 315 314 315 310 310 309 312 311 311 312 312 313 315 313 311 311 311 310 310 310 311 309 311 311 313 310 314 315 316 316 319 319 319 327 325 322 316 316 316 317 317 316 316 317
314 314 313 314 311 309 311 311 310 311 311 311 311 313 314 313 312 311 310 310 312 311 312 311 312 314 314 318 316 317 317 318 319 326 324 319 318 314 314 313 315 316 316 317 317
313 313 313 314 312 311 310 310 310 311 311 312 313 312 312 314 313 312 311 313 312 312 312 311 313 314 321 319 319 320 319 321 319 323 326 319 318 315 312 313 314 316 317 316 317
312 314 312 312 311 313 312 311 311 309 310 312 313 312 313 314 312 314 312 314 312 312 312 310 314 317 323 323 323 323 321 318 320 326 325 321 318 317 314 314 312 316 317 317 317
312 313 312 313 312 312 312 312 311 310 310 311 312 313 313 313 313 313 313 313 313 313 314 314 316 317 316 318 322 323 322 321 324 324 325 318 318 316 314 313 313 317 317 317 316
311 312 311 311 311 312 312 313 312 312 313 315 313 314 313 314 313 314 315 314 316 315 312 312 315 320 322 323 322 325 325 324 324 323 323 322 323 316 314 315 314 316 317 316 316
312 312 313 314 313 313 313 312 312 310 311 313 313 314 314 316 315 315 316 314 316 316 313 315 317 323 320 323 324 326 324 323 323 322 322 324 321 314 315 314 313 316 317 317 316

GFSSW_850_thetae_024.txt.gz
Theta_e
306 304 304 306 309 309 307 306 305 305 309 317 320 322 324 324 323 322 321 321 319 319 319 318 318 319 322 324 328 329 325 326 326 324 324 323 323 325 323 323 324 325 325 326 327
312 304 304 307 309 309 307 306 307 306 305 312 319 320 323 323 321 322 321 321 320 320 319 319 316 318 321 324 325 327 328 327 323 323 323 323 323 323 324 325 325 326 326 325 325
315 308 304 307 309 307 306 306 306 306 306 305 310 316 319 321 319 319 318 319 319 321 319 319 317 319 320 322 324 327 329 325 325 325 324 323 322 324 323 322 324 325 325 326 325
313 312 304 305 310 307 306 307 307 307 306 307 308 307 312 315 316 318 316 316 317 320 321 319 317 319 319 323 323 323 326 327 327 327 326 324 325 323 323 323 324 324 324 324 325
315 312 310 304 309 309 306 308 308 306 306 306 310 310 309 314 315 315 315 316 315 317 321 321 319 320 317 318 320 320 322 324 326 327 327 326 324 323 323 324 324 324 324 324 325
315 313 312 306 305 310 309 310 310 309 306 306 307 311 310 312 309 313 315 315 315 317 318 320 319 319 319 317 317 318 319 321 323 324 325 326 325 324 324 324 324 325 324 324 323
315 315 311 308 304 309 310 311 311 310 308 305 306 307 311 310 310 310 312 313 315 315 314 318 317 320 320 318 318 319 320 320 320 320 323 325 326 327 326 325 324 325 325 324 324
314 315 313 309 304 308 310 311 308 309 311 309 306 306 307 309 309 311 313 313 313 314 314 314 314 312 315 318 317 319 318 321 320 320 321 325 328 325 325 324 323 324 324 324 325
314 315 314 310 306 308 310 309 308 308 308 312 309 305 306 308 309 309 311 312 312 313 313 313 313 313 316 319 318 317 318 319 321 320 322 323 326 323 325 324 323 324 325 325 324
314 315 314 311 312 306 311 310 308 308 310 313 309 310 310 309 309 310 311 312 311 311 311 311 311 312 313 317 319 318 316 317 319 320 320 323 323 322 324 322 322 324 324 323 323
314 315 316 311 313 308 310 310 309 310 311 313 312 310 310 311 310 310 310 312 312 312 311 312 311 313 312 313 314 314 314 316 316 317 319 322 322 321 322 322 321 322 323 323 322
313 314 316 313 312 312 308 310 310 311 311 311 312 311 311 311 311 310 311 311 311 311 310 312 313 311 310 311 315 315 316 316 315 315 317 320 322 321 321 322 323 323 322 323 320
312 313 315 313 311 311 306 310 309 310 311 311 311 311 312 312 312 311 311 311 310 311 312 311 310 310 311 312 314 315 316 315 316 315 315 316 318 320 321 321 322 322 323 323 321
312 314 315 312 312 309 308 308 309 309 309 310 310 311 311 312 312 312 311 311 311 312 310 311 310 311 312 312 313 314 314 316 316 316 316 319 322 319 321 322 320 322 322 322 320
313 314 315 313 310 307 306 308 309 309 305 307 310 310 311 312 312 311 312 311 312 311 311 311 310 311 311 312 312 313 312 313 315 316 316 316 319 319 319 321 322 320 321 322 321
313 314 315 312 308 307 307 308 310 303 304 312 310 310 311 311 312 311 311 311 312 313 311 310 310 310 310 310 311 312 312 313 312 314 317 314 319 319 322 322 321 320 318 319 318
313 314 315 313 308 308 310 310 307 303 309 312 311 310 309 312 311 311 312 312 313 314 311 311 312 311 312 312 311 311 313 313 315 314 313 312 316 316 318 319 319 320 316 318 318
311 314 315 314 309 310 310 308 305 307 311 311 310 311 311 310 311 312 312 313 311 311 313 313 312 311 311 312 312 312 312 311 310 313 311 319 320 320 318 317 318 319 319 317 316
309 314 314 312 310 310 308 310 305 309 311 311 310 311 312 312 311 311 312 311 310 311 311 312 311 310 310 311 311 312 313 310 310 314 319 320 321 319 320 314 314 315 315 315 316
311 314 313 313 308 309 309 312 309 312 311 311 313 312 313 312 312 311 310 308 309 309 308 308 307 309 310 310 311 312 311 312 312 313 315 322 322 323 320 317 315 315 315 315 316
309 313 313 313 309 308 309 311 310 312 311 311 313 315 314 311 310 309 309 309 308 309 308 308 308 311 310 311 311 313 312 313 311 313 317 320 323 319 318 318 315 316 315 315 315
313 309 312 312 310 307 310 310 310 312 311 312 311 313 314 313 310 309 310 308 309 309 309 309 311 311 310 311 311 311 312 313 314 314 320 320 320 314 313 315 316 315 315 315 315
313 312 311 311 309 309 311 311 310 312 312 311 311 311 312 314 314 310 310 310 311 310 311 311 313 314 314 313 312 313 314 314 316 317 315 323 320 313 311 312 315 314 314 314 315
310 310 311 311 311 310 311 312 312 309 311 310 311 312 313 312 312 313 311 312 312 311 312 310 314 313 317 320 319 318 316 316 317 319 315 316 319 315 312 312 313 314 314 314 316
311 311 311 312 312 312 311 312 312 313 309 310 311 312 312 312 312 313 312 312 313 312 312 311 316 315 315 313 315 320 319 319 314 317 318 321 322 318 314 312 313 315 314 314 314
312 312 311 311 312 313 312 313 313 311 311 312 312 313 313 312 311 312 313 313 314 313 312 312 313 311 314 316 317 320 321 319 316 314 315 317 324 315 311 311 313 314 314 314 314
310 312 312 312 312 313 313 313 313 312 311 312 312 313 313 312 311 312 313 313 314 314 314 314 313 316 323 322 321 326 324 314 314 317 316 324 320 313 315 313 312 314 315 315 315

GFSSW_850_thetae_027.txt.gz
Theta_e
315 313 304 304 305 309 309 308 306 305 306 313 318 321 323 323 323 322 321 321 320 318 318 318 318 317 321 319 326 327 324 325 324 322 322 322 322 323 323 322 323 324 325 325 326
315 315 309 304 306 310 309 308 307 307 305 309 318 320 321 322 323 322 321 320 321 320 320 319 318 316 319 321 324 326 327 325 322 321 321 322 322 322 323 322 324 324 325 325 326
315 315 313 304 306 310 307 306 306 306 307 306 310 318 320 321 321 319 319 320 321 320 320 319 318 317 319 320 323 325 327 324 324 325 325 322 322 324 322 321 323 324 325 325 325
316 315 313 310 305 309 306 307 307 307 307 307 306 308 315 317 316 317 316 317 318 321 321 320 317 318 317 321 322 321 322 325 326 326 326 325 324 323 322 322 324 324 324 324 325
316 315 315 312 305 308 307 307 308 307 306 306 307 308 309 314 316 315 315 315 316 320 321 322 319 318 317 317 319 319 320 322 322 325 326 326 325 323 324 325 325 325 324 324 324
314 315 314 313 311 305 309 308 309 309 306 306 307 310 310 310 308 314 315 315 317 317 320 321 320 318 319 316 316 317 317 318 319 321 322 323 324 324 324 325 326 325 324 324 324
313 315 314 315 311 305 309 310 310 310 309 306 306 308 311 309 309 309 314 315 315 316 317 318 320 319 319 319 318 318 317 317 318 319 319 322 322 323 324 325 326 326 325 324 324
314 314 314 314 311 306 308 311 311 310 310 309 307 306 307 308 309 310 311 312 313 314 314 314 317 315 313 316 317 318 316 319 317 318 319 322 322 322 324 324 325 325 324 323 324
313 314 314 315 313 307 308 311 310 307 307 312 310 308 307 308 308 309 311 311 312 313 314 313 313 312 314 318 318 316 317 317 317 318 320 321 322 320 321 324 323 325 325 324 324
312 313 313 314 313 309 309 310 309 307 309 311 310 309 309 309 309 309 309 311 311 312 312 311 311 314 315 317 318 316 316 316 317 318 317 318 319 318 320 321 321 322 323 324 325
312 313 314 314 313 311 309 311 309 309 309 313 312 311 310 311 310 310 309 310 311 311 310 311 310 312 312 311 313 313 314 314 314 314 314 315 317 318 319 319 320 321 323 324 324
314 313 314 314 314 312 307 311 309 310 310 310 312 311 311 310 311 310 310 311 311 311 309 311 312 309 309 309 311 313 314 315 313 313 313 314 314 313 313 314 319 320 321 322 324
312 312 314 314 314 313 311 308 309 310 309 310 310 311 312 311 312 311 311 311 310 310 310 311 310 310 310 310 312 312 313 313 314 312 312 313 314 312 312 315 318 320 321 322 322
310 312 313 313 313 314 311 309 308 309 305 308 310 310 311 311 312 311 311 311 311 311 311 311 310 310 310 310 311 312 311 313 314 315 314 313 314 313 313 314 316 318 320 321 322
307 312 313 314 312 312 312 310 308 309 301 307 310 310 311 311 312 311 312 311 312 311 309 311 310 310 310 311 311 312 312 313 314 313 313 313 313 311 313 314 316 316 320 321 322
305 308 311 315 313 312 310 308 309 306 304 310 309 310 311 311 312 311 311 311 312 312 311 309 309 310 310 310 310 311 312 312 313 313 314 311 312 311 310 312 317 316 319 320 321
304 308 312 313 312 308 308 309 309 305 307 311 310 309 309 310 311 312 311 313 314 313 313 312 312 310 310 311 310 311 313 313 314 314 311 309 311 311 310 312 316 316 318 320 321
306 307 309 311 312 307 308 307 306 306 309 310 310 309 309 309 311 311 311 311 312 312 312 313 315 311 310 311 312 311 312 314 312 311 308 310 313 312 310 311 312 312 315 317 318
306 308 309 312 311 308 309 309 304 306 310 311 310 311 311 310 311 311 312 311 310 309 312 312 308 309 310 310 311 312 313 311 312 309 313 314 312 313 311 315 314 314 316 316 316
307 307 308 311 309 309 308 308 307 310 310 310 310 311 311 311 312 311 311 307 310 308 309 308 308 308 309 310 311 311 310 313 313 311 310 307 311 318 314 312 312 311 313 315 315
305 306 311 310 309 309 310 312 309 311 310 311 311 315 312 311 311 310 308 308 307 308 308 309 308 306 310 311 311 312 312 311 311 309 307 311 308 307 314 315 314 312 313 314 315
307 306 310 311 309 307 309 310 311 311 311 311 311 312 313 312 312 310 308 308 307 308 311 309 309 309 309 310 310 310 311 312 311 310 309 311 313 312 311 311 313 313 314 315 314
305 308 309 309 307 308 310 310 311 312 312 312 313 311 312 313 315 309 308 309 308 308 310 310 312 312 313 311 311 312 311 312 312 312 311 311 310 311 311 312 314 314 314 314 313
306 307 309 307 308 308 311 311 312 310 312 311 311 311 312 314 313 312 310 310 309 309 311 310 313 313 313 316 312 313 313 313 313 314 313 312 311 310 310 313 314 314 314 313 314
310 307 307 310 311 308 310 311 312 313 310 311 311 312 313 314 312 312 311 311 312 312 312 311 314 314 313 312 312 314 316 314 313 314 316 314 312 311 313 317 315 313 312 313 313
311 312 310 310 311 312 310 312 312 311 311 311 312 311 312 314 311 311 311 311 313 313 313 311 313 310 312 313 314 316 315 315 314 313 315 316 316 314 313 312 312 312 313 313 313
309 311 312 312 312 313 313 313 313 312 311 311 311 311 313 313 312 311 311 311 313 313 313 312 312 314 316 319 318 319 316 317 316 316 315 316 315 314 314 312 313 312 313 313 314

GFSSW_850_thetae_030.txt.gz
Theta_e
317 315 314 312 304 305 309 310 309 307 305 307 314 317 319 322 322 321 321 321 320 319 318 318 318 318 318 318 323 326 323 324 322 321 321 321 321 322 323 322 322 323 324 325 325
319 316 314 314 306 305 311 309 308 307 307 305 311 318 320 322 324 323 321 321 321 320 318 319 318 317 317 320 324 325 324 323 320 318 321 321 321 321 322 322 323 324 324 324 325
319 317 315 314 312 304 310 307 306 306 306 306 306 317 318 320 322 321 320 320 320 320 320 320 319 317 318 319 322 324 326 322 323 324 324 322 321 323 322 321 323 322 323 327 327
315 317 315 314 314 306 309 307 307 307 307 307 307 308 317 319 314 316 316 317 319 322 322 321 319 317 317 319 320 321 321 324 325 325 326 324 324 323 322 322 323 324 324 323 325
313 315 317 315 314 311 306 307 307 307 307 307 308 309 310 316 316 315 315 315 317 320 322 321 320 317 316 316 318 319 319 321 320 320 322 323 324 324 324 326 325 325 325 325 324
314 314 314 315 314 313 306 309 307 308 308 306 307 311 310 309 308 312 315 316 316 322 322 321 320 318 318 316 315 316 316 316 317 318 318 320 321 322 323 325 325 325 325 325 324
313 313 313 315 314 313 310 308 309 310 309 307 306 308 310 309 309 309 314 315 317 318 319 320 320 318 319 318 317 317 317 315 316 317 317 319 320 320 320 321 323 324 324 324 325
315 313 313 314 315 313 310 307 310 311 310 309 307 306 307 308 308 309 310 314 315 316 314 314 316 318 315 314 316 318 316 317 315 316 317 320 320 317 319 320 322 322 323 324 323
312 314 313 315 314 314 310 307 312 310 307 311 310 308 309 309 308 308 309 311 313 313 313 314 314 313 313 316 316 317 318 316 316 315 317 318 320 320 320 319 320 322 323 323 324
308 312 313 314 314 314 309 308 312 309 307 310 312 309 310 310 309 309 309 311 311 312 312 312 312 313 314 316 315 315 316 315 315 315 313 314 316 315 316 317 318 318 320 321 323
304 307 313 313 315 314 308 311 310 308 308 311 313 312 309 310 309 310 310 309 311 311 310 310 310 313 314 312 313 314 314 316 314 313 312 313 313 313 313 314 316 318 319 319 320
304 304 311 312 315 314 307 311 310 308 309 308 312 311 310 310 310 310 310 310 311 310 309 310 311 309 308 309 311 312 314 314 312 311 312 312 313 312 311 312 314 316 317 319 321
303 304 307 312 315 314 310 310 310 309 308 308 309 311 312 311 311 311 311 310 310 309 309 309 309 309 310 309 310 310 310 310 310 310 310 311 312 310 309 310 311 312 313 316 319
303 303 306 312 315 313 310 309 309 309 300 306 309 310 311 311 311 311 310 310 309 309 309 310 309 310 309 310 309 311 310 311 311 312 312 311 313 310 311 309 308 310 313 316 317
302 302 305 310 315 313 311 309 309 308 304 307 310 310 311 310 311 311 311 310 311 310 310 311 309 310 311 310 309 311 310 311 312 313 311 312 314 309 308 309 308 309 314 315 316
302 301 303 307 312 313 312 310 308 302 308 311 309 310 312 311 312 311 311 311 312 312 311 310 309 309 309 309 309 310 311 312 313 313 315 312 311 310 308 308 307 310 313 315 319
304 302 303 308 312 313 312 309 308 310 307 310 310 309 310 311 311 312 312 313 314 314 313 312 312 310 309 310 310 311 314 314 315 315 312 308 310 311 307 307 309 309 313 315 317
304 304 304 306 311 312 307 307 305 306 308 310 309 308 309 308 310 310 312 312 312 312 313 313 308 311 310 310 310 311 312 314 314 312 307 307 310 309 307 308 309 309 312 312 317
305 305 305 307 309 311 308 308 306 306 309 310 309 309 309 310 310 311 312 310 309 310 313 312 309 308 309 310 309 312 313 311 313 312 313 310 309 309 310 308 310 309 310 311 311
305 306 305 307 308 308 308 307 307 307 309 309 309 309 312 311 311 312 311 307 310 309 309 310 310 307 309 309 310 311 310 312 312 313 313 308 306 308 307 307 307 307 307 311 314
305 306 307 307 306 308 309 309 307 310 309 310 309 310 311 310 311 311 308 307 307 307 307 309 309 307 309 310 310 312 312 312 311 311 307 308 306 303 304 306 309 312 311 311 312
306 307 308 307 307 307 310 310 310 310 311 310 310 311 312 311 312 311 308 307 307 307 309 308 311 310 309 309 309 310 311 311 310 309 309 305 308 308 308 309 312 312 312 313 313
306 308 309 307 307 307 309 310 311 310 311 311 311 311 312 313 314 311 308 308 307 308 308 308 311 310 310 310 309 311 311 311 310 310 310 308 308 306 306 307 311 313 314 313 313
306 308 307 307 306 308 309 311 311 310 311 311 312 311 311 314 312 312 310 309 307 308 309 309 311 311 312 313 311 313 311 311 312 313 311 311 309 308 309 310 310 313 314 313 312
306 305 305 306 307 309 310 310 311 312 311 312 311 310 312 313 312 314 310 310 310 309 310 310 314 312 312 312 312 313 314 312 312 312 313 312 311 309 309 311 311 314 313 312 311
309 309 307 307 308 308 310 311 312 311 311 311 313 311 312 314 311 311 309 310 311 311 311 312 313 311 312 312 313 313 313 314 313 312 312 312 313 313 312 313 313 312 313 313 311
306 310 310 309 310 310 311 311 311 311 311 310 310 311 312 312 311 311 310 310 311 313 314 311 311 314 315 314 315 320 316 315 314 314 313 314 313 312 313 314 313 312 313 313 312

GFSSW_850_thetae_033.txt.gz
Theta_e
315 317 317 316 314 310 304 311 311 309 308 306 306 311 316 319 322 322 320 320 320 319 318 318 318 318 317 318 324 325 326 326 323 321 321 320 320 321 322 321 323 322 323 324 324
315 315 319 316 315 313 305 309 310 308 307 307 306 311 317 320 322 322 322 321 321 320 319 318 318 317 317 320 323 325 326 325 321 319 321 320 320 321 322 322 322 322 323 324 324
312 314 317 317 315 314 310 307 308 306 306 307 306 311 315 318 321 321 322 322 322 322 321 320 319 317 317 319 321 323 326 322 323 323 324 323 322 322 321 323 322 322 323 323 326
313 315 314 318 315 314 313 305 308 307 307 307 307 306 314 317 318 316 317 317 319 322 321 321 319 317 316 318 319 321 320 322 323 323 323 324 324 325 323 323 323 323 324 324 324
315 313 314 315 316 314 313 308 308 307 307 307 308 308 308 316 317 315 315 315 317 323 321 321 319 316 316 316 317 320 319 320 320 319 319 320 322 323 324 324 325 325 325 325 324
312 315 314 314 316 315 313 313 308 307 308 307 307 310 308 308 309 314 315 315 316 321 321 321 320 318 316 316 316 315 316 316 317 317 317 319 319 320 320 320 321 323 324 323 324
308 311 314 314 314 315 313 313 306 308 309 308 306 308 309 308 308 309 313 315 316 320 320 320 319 319 318 317 317 317 317 316 316 316 317 317 319 319 319 319 320 320 322 323 323
305 308 312 314 313 314 314 313 306 310 310 309 308 307 308 308 308 309 311 315 316 318 317 315 317 319 318 314 315 317 317 318 315 315 316 317 317 317 317 318 319 319 319 319 317
303 304 307 312 313 314 315 311 307 312 310 310 310 308 310 309 308 308 310 312 315 315 314 314 315 314 314 315 314 316 316 316 315 314 316 318 319 318 318 316 317 318 319 320 321
303 303 304 309 313 315 315 310 310 311 307 309 310 310 311 309 308 308 308 311 311 312 312 312 312 313 314 314 314 314 316 314 315 314 313 314 315 314 314 314 315 315 315 316 318
303 303 303 306 311 314 315 311 310 308 307 309 311 310 309 310 309 310 308 310 311 311 310 310 312 313 314 312 312 312 314 315 315 313 313 314 314 313 313 313 312 313 313 314 315
303 303 303 303 308 313 314 310 309 309 307 308 311 311 310 310 310 310 309 310 310 310 308 310 312 310 309 311 312 314 315 314 312 311 312 312 312 311 311 311 312 312 312 313 314
302 302 303 303 307 309 313 310 310 310 307 308 308 309 311 310 311 310 309 310 309 309 309 310 309 309 310 309 310 310 312 312 312 310 310 310 311 310 309 309 310 310 311 311 313
302 301 303 303 304 310 311 310 310 310 300 305 309 309 310 311 311 311 310 310 309 310 309 310 309 309 309 310 309 311 309 310 310 311 312 310 312 309 310 310 309 309 309 310 311
301 301 302 304 306 311 310 310 310 308 302 306 309 310 310 310 310 311 310 310 310 309 309 309 310 310 310 310 309 310 309 310 311 312 311 311 312 311 308 309 309 309 309 310 311
303 303 303 304 303 307 311 310 308 307 304 310 309 311 312 310 312 310 311 311 311 311 309 308 308 309 309 309 309 309 310 311 312 312 315 312 312 312 311 309 308 309 309 309 310
304 304 303 302 304 306 310 309 308 307 306 311 310 311 311 311 312 312 312 312 313 312 312 312 312 310 309 310 309 310 314 314 315 315 314 309 312 312 309 310 309 308 308 310 311
304 304 303 304 304 308 309 307 309 307 308 308 309 309 310 310 310 311 312 313 312 312 312 312 309 311 310 310 311 311 311 313 314 312 310 307 312 311 308 309 309 308 308 309 310
304 305 304 305 305 309 306 309 305 306 308 309 308 309 309 309 310 311 311 311 311 312 313 312 309 307 308 309 309 312 313 310 312 312 314 312 308 307 307 307 307 308 309 310 311
304 304 305 305 306 308 307 310 306 307 308 308 309 308 309 310 310 311 311 308 309 309 308 309 308 305 308 309 310 311 309 313 312 313 313 311 309 310 307 308 307 306 311 312 313
304 305 305 306 306 304 309 308 308 308 308 308 309 309 309 310 310 311 308 307 307 307 309 309 309 306 309 309 309 311 311 312 311 312 313 311 310 305 306 306 306 311 311 313 313
304 305 305 307 303 301 309 309 310 309 310 310 309 310 310 309 311 310 309 306 306 306 309 308 310 310 307 307 308 309 311 311 313 312 311 310 311 307 305 307 310 307 312 313 315
305 308 305 305 306 308 309 310 310 309 310 310 311 311 311 311 312 311 308 307 306 306 307 308 310 310 307 308 308 310 310 311 311 311 312 312 310 307 305 306 307 310 312 313 314
306 307 304 305 306 309 309 310 311 310 310 311 311 311 311 312 311 312 311 309 307 307 308 308 310 308 310 311 312 312 310 311 311 313 312 312 310 309 308 308 308 310 312 313 312
306 306 305 306 307 308 309 310 310 311 311 311 311 311 311 312 311 313 310 309 309 308 310 309 313 310 310 311 311 312 312 312 312 312 312 312 311 310 309 309 310 312 312 312 310
308 309 306 306 308 308 309 310 311 311 310 311 311 310 310 311 311 311 310 309 310 308 310 310 313 312 313 313 313 313 313 313 311 312 311 312 312 310 309 310 312 313 313 312 310
304 307 309 307 308 310 310 310 310 310 310 310 310 311 311 311 310 311 310 309 310 311 311 313 312 314 315 315 315 319 317 318 314 312 311 313 312 310 311 312 313 312 312 313 312

GFSSW_850_thetae_036.txt.gz
Theta_e
314 314 316 316 318 316 313 307 308 311 310 309 306 308 316 316 318 322 322 321 320 319 318 319 318 318 319 320 326 325 324 324 323 323 323 322 322 322 322 323 324 323 324 325 323
317 314 315 315 319 315 314 312 305 310 309 307 306 308 318 318 320 321 321 321 321 320 320 319 319 318 319 321 323 324 325 323 323 323 322 322 322 323 323 323 323 324 323 324 325
315 316 314 314 316 317 314 313 305 309 307 306 307 307 317 320 321 322 322 322 322 322 321 320 319 318 319 321 322 323 325 323 324 323 324 324 324 324 323 325 324 325 325 324 325
309 315 315 315 314 318 314 314 310 308 307 308 307 306 312 317 322 319 319 320 323 323 322 321 320 319 320 320 320 323 322 323 323 324 324 325 325 325 324 323 323 324 324 324 326
306 309 314 314 315 316 316 314 313 307 308 308 308 308 311 315 317 315 315 315 316 322 323 321 320 319 320 319 320 320 320 319 320 321 320 320 321 322 322 323 324 325 325 325 325
306 306 310 313 314 314 317 313 313 307 308 308 307 309 309 312 312 316 315 315 318 321 323 322 321 318 318 319 319 318 319 319 319 319 319 319 319 319 319 319 320 320 321 323 324
303 304 305 310 314 314 316 314 313 307 308 309 307 307 310 311 308 309 315 315 316 320 321 321 320 319 319 320 318 318 320 319 318 318 319 318 319 319 318 318 319 319 320 320 321
303 304 302 306 310 314 314 316 312 307 309 310 308 307 309 308 308 309 310 315 317 319 319 320 320 319 318 316 317 317 318 320 318 317 317 317 319 318 318 319 319 319 319 319 320
302 303 303 303 307 312 314 316 312 308 311 310 310 309 311 309 308 308 310 314 316 315 314 317 318 317 317 319 319 318 320 319 319 316 317 318 321 319 319 318 319 319 320 320 321
300 302 303 302 305 309 312 315 311 310 311 310 310 311 310 310 308 308 309 312 313 313 313 314 314 315 314 316 319 318 318 317 317 316 316 317 318 318 317 317 318 319 319 319 319
301 301 302 303 303 306 309 314 312 309 309 310 311 311 310 309 309 309 310 311 312 314 315 313 315 316 315 315 315 315 316 317 317 315 315 316 316 316 315 315 315 315 315 316 317
301 301 303 303 303 304 308 310 311 311 310 309 311 311 310 310 311 310 310 311 312 314 313 313 314 313 313 313 314 315 316 316 315 314 314 314 313 313 312 312 312 313 313 313 313
300 301 301 302 303 303 307 307 310 309 311 309 309 311 311 310 311 311 310 311 312 313 313 314 313 311 312 313 314 314 315 315 315 313 312 312 313 314 313 312 312 311 311 312 312
300 301 302 302 301 303 305 307 309 310 313 310 310 309 310 311 311 311 310 311 311 312 312 313 312 311 312 312 312 314 312 312 312 312 315 312 316 315 315 314 313 312 312 312 312
301 301 303 304 303 306 308 308 309 309 317 309 310 310 310 310 311 311 310 310 312 311 312 313 312 312 312 312 311 312 311 311 312 313 313 314 313 314 314 314 313 314 313 313 312
302 302 304 304 302 304 307 309 307 312 315 311 310 312 312 310 311 311 311 311 311 311 311 311 310 311 312 311 311 311 311 311 312 313 316 314 315 315 315 314 314 313 312 312 312
302 302 304 304 303 303 306 307 309 316 309 311 310 312 311 311 313 312 312 312 313 314 314 312 312 311 310 311 311 311 313 315 316 316 316 312 313 314 313 313 313 313 312 312 311
302 304 304 304 304 303 307 306 314 310 311 309 310 311 312 311 311 312 313 313 312 312 314 315 316 313 311 311 312 312 312 315 315 314 313 311 313 313 312 312 311 311 311 310 312
303 304 304 302 303 305 305 312 312 310 310 310 310 311 310 310 311 311 312 312 312 311 313 314 312 309 311 311 311 312 313 312 314 313 315 312 311 312 312 311 311 311 311 311 312
302 304 304 304 305 305 306 313 308 310 309 310 311 310 310 310 311 310 311 311 311 311 311 312 314 309 310 310 311 312 311 313 313 313 313 312 312 312 312 311 311 311 311 312 312
304 304 305 304 305 303 310 310 310 309 309 311 311 311 311 311 311 311 312 310 311 310 311 311 310 310 309 310 312 311 312 313 312 313 314 314 314 311 310 310 311 310 311 311 313
303 306 304 306 305 303 309 310 309 310 310 311 311 311 311 311 311 312 311 310 308 309 311 310 310 311 311 309 310 310 311 311 314 313 313 314 314 311 311 310 311 311 310 311 313
304 304 306 305 308 309 308 311 310 311 311 311 312 312 311 312 313 311 311 309 308 310 311 310 311 313 313 312 310 311 311 311 313 313 315 316 313 310 310 309 309 310 310 311 314
303 307 304 305 307 309 311 312 311 311 312 312 312 312 312 313 312 312 311 310 308 309 309 309 311 312 313 315 314 314 312 312 311 314 314 315 313 311 310 311 311 310 310 313 315
306 307 306 308 308 310 311 311 312 312 311 311 311 312 312 313 312 313 311 310 310 308 309 310 313 312 312 312 312 313 313 313 313 312 314 314 313 313 312 312 312 311 313 314 314
305 309 307 307 307 310 310 311 312 311 312 312 312 312 312 312 312 313 311 310 312 310 310 310 313 313 313 312 313 315 315 315 314 314 312 313 313 312 312 311 312 311 312 314 313
304 306 308 308 308 310 311 311 311 311 310 311 311 312 312 311 310 310 310 310 311 312 312 312 312 313 317 314 316 322 319 318 317 315 313 315 314 312 312 312 312 313 313 314 313

GFSSW_850_thetae_039.txt.gz
Theta_e
316 317 316 315 315 317 317 315 313 305 309 311 310 306 309 316 315 317 320 324 323 319 318 322 320 320 320 321 323 325 327 325 325 323 324 323 323 323 323 323 324 324 325 328 328
312 315 316 315 315 316 318 315 314 307 308 310 309 306 312 317 319 319 320 323 321 320 320 321 320 320 321 321 322 325 325 323 322 323 323 323 323 323 323 323 323 325 325 326 328
308 308 314 315 315 315 317 316 314 310 308 308 307 307 315 319 321 321 320 321 321 321 323 320 320 320 320 321 322 323 325 322 322 324 324 323 323 323 324 325 323 323 325 325 327
306 307 307 312 315 315 315 317 314 312 308 307 307 307 314 320 323 322 321 322 323 323 323 321 320 320 320 322 321 323 322 323 323 324 325 325 323 324 323 323 323 324 326 326 326
304 305 307 308 312 314 315 318 314 313 307 308 308 308 312 316 320 318 318 319 320 324 324 323 321 321 322 321 320 321 321 320 321 322 322 322 322 323 324 324 323 324 324 325 326
303 304 304 304 307 312 315 314 315 313 308 308 308 308 313 316 315 317 315 317 320 323 324 323 322 321 321 320 321 321 320 320 321 320 320 321 320 320 320 320 320 321 322 323 325
303 304 304 304 304 309 314 314 316 312 308 308 308 309 313 313 310 312 315 318 321 321 323 323 322 320 321 321 320 320 321 321 320 320 320 319 320 321 319 320 320 320 320 320 320
303 302 301 304 304 305 311 313 316 313 308 308 309 311 313 311 312 308 314 317 319 321 322 321 320 320 320 318 318 319 320 322 320 319 319 319 321 320 319 320 320 320 320 320 320
302 301 301 302 303 303 308 312 315 313 308 309 309 311 313 310 309 310 312 316 317 319 320 321 320 319 319 320 321 320 322 322 321 320 319 320 322 321 320 320 320 320 320 321 320
301 300 301 302 303 303 306 311 313 311 310 312 312 312 312 312 310 310 311 315 315 316 317 318 318 318 319 321 323 322 322 320 320 319 318 318 319 319 318 319 319 319 320 320 320
300 300 301 301 302 303 304 309 313 312 312 313 312 312 312 311 310 310 311 314 314 315 316 315 316 317 317 317 318 318 318 319 319 318 318 318 317 317 317 317 317 317 318 318 319
301 301 301 301 302 303 304 306 307 310 312 311 312 312 312 311 312 311 311 313 314 316 314 315 317 316 315 315 316 317 318 318 317 316 316 316 316 315 315 315 315 315 315 316 316
301 302 302 301 302 303 303 303 307 310 312 311 312 312 312 312 313 311 311 312 314 315 315 317 315 313 315 315 315 316 316 316 316 315 314 314 316 317 317 316 315 314 314 314 314
301 301 301 301 302 304 304 302 306 308 313 311 311 311 312 312 313 312 312 312 313 315 315 315 314 312 313 314 314 316 314 314 314 314 317 314 318 316 316 317 317 315 314 314 314
300 301 302 303 304 305 306 302 306 306 319 311 310 311 312 311 312 312 312 312 313 313 313 315 313 314 313 313 313 314 313 313 313 314 314 315 316 316 316 316 316 316 315 315 315
301 301 303 303 304 304 305 305 305 308 318 312 310 311 311 311 312 312 312 311 312 312 312 314 311 313 314 312 312 312 312 312 312 313 316 315 316 316 315 314 315 315 315 314 313
300 302 303 304 305 305 304 306 308 314 311 312 311 311 311 311 312 313 313 312 314 314 314 313 313 311 311 313 312 312 313 317 318 316 316 314 314 315 314 314 314 314 314 314 313
301 303 304 304 305 304 302 306 314 313 312 310 312 312 312 311 312 313 313 313 312 312 314 314 318 314 312 312 313 312 313 316 317 315 316 315 314 314 314 314 313 312 313 312 312
302 303 305 304 305 303 303 310 316 313 311 311 312 313 313 311 312 313 313 313 312 312 315 315 314 312 312 312 311 312 313 312 314 313 314 313 313 314 314 314 313 313 312 311 312
302 304 305 304 305 303 307 312 311 311 310 311 312 311 312 312 313 312 313 312 312 312 312 314 315 311 312 311 312 312 312 313 314 315 316 315 315 315 314 314 313 313 312 312 313
304 303 305 304 304 305 310 312 311 310 310 312 312 311 311 311 311 312 313 312 312 312 311 312 312 312 310 312 313 312 313 312 313 314 316 316 316 312 312 312 312 311 311 312 311
303 305 305 304 307 304 310 311 310 310 311 312 312 312 312 312 312 313 314 312 311 311 312 311 312 312 312 311 310 312 312 311 314 314 314 316 317 313 312 312 311 311 312 311 311
301 304 306 306 310 308 309 311 311 311 312 313 313 313 312 313 313 313 312 310 310 311 312 311 311 313 315 313 311 312 311 312 313 314 316 317 316 311 312 311 310 310 310 311 311
303 307 305 307 308 310 312 312 312 312 313 313 313 313 313 313 313 312 312 311 309 310 310 311 312 313 315 317 314 316 314 313 313 315 315 316 315 314 313 313 312 311 311 311 312
307 308 307 309 310 311 312 311 312 313 313 313 313 314 314 314 314 314 313 312 311 310 310 311 313 312 312 313 313 315 315 316 315 314 315 315 315 315 314 313 313 313 312 312 313
305 308 308 308 309 311 311 312 312 313 313 313 314 313 313 314 313 313 313 311 312 311 311 310 313 314 312 313 314 317 316 317 317 317 316 316 315 314 313 312 312 313 312 312 314
303 305 308 308 310 310 311 312 312 312 312 312 312 313 313 312 312 311 311 312 312 312 312 312 312 312 315 315 315 321 321 319 318 317 317 316 315 314 313 313 313 313 313 314 314

GFSSW_850_thetae_042.txt.gz
Theta_e
309 311 314 315 316 315 316 317 317 315 311 306 311 311 308 309 313 314 317 320 321 323 318 324 322 321 320 321 322 323 326 326 325 324 323 322 323 323 323 323 323 324 325 328 337
305 307 309 313 314 316 315 316 318 316 314 306 310 309 307 314 316 320 316 321 324 323 319 321 321 321 321 321 321 325 327 327 323 322 322 322 323 323 323 323 323 324 325 326 327
304 306 308 309 310 314 315 315 317 316 314 307 308 307 307 319 319 319 319 322 322 322 320 321 320 320 321 321 321 322 325 322 321 321 324 324 324 323 323 323 324 323 324 325 328
305 304 306 307 307 309 312 315 316 317 314 307 307 307 309 320 321 323 322 321 321 320 322 323 320 320 320 321 321 322 322 322 322 323 324 324 324 324 323 323 323 323 324 326 326
304 304 305 306 305 306 310 314 315 317 314 308 308 308 310 318 320 321 318 322 322 323 323 323 320 320 320 319 320 321 321 322 322 322 322 323 323 323 323 323 323 323 323 324 326
304 304 304 304 305 305 305 312 315 316 314 308 308 309 309 315 316 318 316 317 320 323 323 323 321 320 321 321 320 320 320 321 320 320 320 320 320 321 320 320 321 322 323 323 324
303 303 303 303 303 305 305 307 314 315 315 309 308 308 312 313 312 315 315 318 320 322 323 324 323 321 321 321 320 320 320 320 320 320 320 320 320 320 320 320 320 320 320 320 321
302 302 302 302 302 301 303 305 312 315 315 309 308 311 313 313 313 310 314 316 319 320 322 323 322 321 321 319 320 320 320 322 320 320 320 319 320 318 319 319 319 319 320 320 320
302 302 301 301 302 302 302 302 307 310 314 310 308 312 313 312 312 312 314 317 319 320 321 322 321 320 319 320 321 320 320 320 320 319 319 318 319 319 320 320 320 320 320 320 320
301 301 301 301 302 302 303 303 305 310 313 309 312 312 312 312 310 311 313 316 317 319 320 321 320 320 320 320 322 321 320 319 320 319 318 318 318 317 318 318 318 320 320 320 320
300 301 300 301 301 301 303 303 307 308 311 312 312 312 312 312 311 311 314 316 315 318 317 318 320 320 320 320 320 320 318 317 317 317 317 316 316 316 316 316 316 317 318 318 319
300 301 301 302 302 302 302 305 305 308 312 312 313 312 312 312 312 311 314 315 315 316 315 315 316 316 316 316 317 316 316 317 316 316 315 314 314 314 314 314 315 315 316 317 317
300 301 301 302 302 302 302 303 303 306 308 311 312 312 312 312 312 312 313 314 315 315 315 316 315 315 315 316 315 315 315 315 315 314 313 313 313 313 315 313 314 314 314 315 315
300 300 301 302 303 303 302 303 305 303 308 314 312 312 312 313 313 312 312 313 314 315 316 315 314 313 314 315 315 315 314 314 314 314 314 313 315 313 313 313 313 314 315 315 315
300 301 301 302 302 304 305 305 303 303 313 312 311 312 312 313 313 312 312 313 314 314 314 315 314 314 314 314 313 314 313 313 313 313 312 313 313 313 315 313 313 313 315 315 315
299 300 301 302 304 303 304 304 304 307 312 313 310 312 313 313 313 312 312 312 312 313 313 314 312 313 314 313 313 312 312 312 312 312 313 312 314 313 312 313 313 312 315 315 315
300 300 302 303 305 305 305 304 306 309 310 313 312 311 312 313 313 312 313 312 313 313 314 313 313 312 312 313 312 312 312 311 316 314 311 313 313 313 312 312 312 312 314 314 314
301 303 304 305 305 305 304 306 308 312 313 310 312 311 312 312 313 312 312 312 311 312 314 313 315 313 311 312 313 312 313 311 316 315 314 312 313 311 312 312 312 313 312 312 312
303 303 305 305 305 304 305 310 311 312 311 312 312 313 312 312 313 313 312 312 311 312 315 314 315 312 312 312 312 312 312 311 313 311 308 310 309 310 311 311 310 312 312 312 312
304 304 306 304 304 302 306 312 310 311 311 312 313 312 313 311 313 314 313 312 311 311 311 314 315 312 313 311 311 312 311 313 310 306 312 312 311 312 311 311 311 310 309 311 312
304 303 305 304 303 305 309 309 311 311 311 312 311 311 311 312 312 312 311 312 311 312 311 312 312 312 311 311 312 311 312 312 311 313 311 314 313 311 312 312 311 311 312 311 311
303 305 305 304 306 305 308 309 311 312 312 312 312 311 311 311 312 311 313 312 312 312 312 311 312 312 311 311 310 311 312 310 311 310 311 311 314 312 311 310 310 309 311 311 311
303 304 304 306 308 308 306 311 311 312 313 313 313 312 311 311 312 313 313 310 311 311 312 311 312 308 313 312 310 310 311 311 311 312 313 313 312 310 310 312 312 311 311 310 310
304 307 305 307 308 307 312 312 313 313 314 313 313 312 312 313 312 313 312 311 310 311 310 311 312 311 312 313 313 310 312 311 312 314 313 313 312 312 313 314 314 313 312 312 311
308 308 307 309 310 310 311 312 312 313 313 313 314 314 313 313 313 313 312 311 310 310 310 310 312 312 312 311 311 312 313 314 314 314 316 315 316 315 315 314 313 313 313 312 312
305 307 308 309 309 311 311 312 313 313 313 313 314 313 313 314 314 313 312 312 313 310 311 310 311 308 308 310 311 312 313 315 314 316 317 318 318 314 313 313 313 313 313 313 314
305 305 307 309 310 310 312 312 313 313 312 312 313 313 313 313 312 312 312 311 312 311 311 312 310 312 314 314 314 316 317 318 318 318 317 318 317 315 314 314 313 313 312 313 313

GFSSW_850_thetae_045.txt.gz
Theta_e
306 306 306 309 311 313 314 316 316 317 317 315 309 308 310 310 308 314 315 310 318 322 319 320 320 319 320 320 320 322 321 322 324 323 322 323 320 323 323 323 323 324 328 337 338
305 305 305 305 308 309 312 314 315 316 317 316 312 307 309 308 310 315 312 313 316 320 321 323 322 321 320 320 321 320 322 323 321 321 320 322 322 322 322 322 322 323 327 336 336
306 305 306 304 306 307 307 311 313 315 318 316 312 308 308 310 316 314 314 314 323 322 323 321 321 320 320 320 320 320 322 322 323 322 322 323 323 323 321 321 322 322 323 326 325
305 304 305 305 305 305 306 307 310 314 317 317 312 307 307 315 317 322 320 316 323 323 321 318 321 320 319 319 320 319 320 321 321 321 322 323 324 323 323 322 322 323 323 323 328
304 304 304 304 304 303 304 305 308 312 315 317 311 307 308 315 317 320 321 320 322 321 320 322 322 320 318 317 319 318 318 320 321 321 320 321 321 321 322 323 323 323 322 323 324
303 303 303 303 303 303 304 305 305 311 314 317 311 308 309 316 315 318 317 319 322 322 321 322 321 320 319 319 317 318 319 319 320 320 319 319 319 319 320 322 322 322 322 322 322
303 303 302 302 302 302 303 304 304 309 314 317 312 309 311 313 313 316 316 316 319 321 322 322 323 321 321 320 320 319 319 318 318 319 318 319 318 318 320 319 319 319 320 321 321
302 301 300 301 300 302 302 302 302 303 313 316 311 308 312 310 312 313 315 318 320 321 321 322 323 321 320 319 319 319 319 321 318 318 319 319 319 317 319 318 319 319 319 319 319
300 300 300 301 301 301 302 303 302 301 309 316 308 310 311 312 313 313 314 316 321 321 322 322 322 320 319 320 320 319 318 318 319 317 318 318 318 317 318 318 317 318 318 319 319
301 300 300 301 301 302 301 301 302 303 306 312 309 311 311 311 313 313 313 317 319 319 321 321 320 320 318 319 321 319 319 317 317 317 317 317 316 315 318 317 317 317 317 319 319
300 299 300 301 301 301 302 301 305 306 308 309 310 311 312 312 311 311 315 316 319 319 318 320 318 319 317 317 317 317 318 315 314 315 314 315 315 313 314 315 315 316 316 317 318
301 300 301 301 302 302 302 302 303 305 305 308 312 311 311 310 311 312 315 315 317 318 314 316 317 316 317 318 319 317 315 314 314 314 312 312 312 312 312 312 313 314 314 315 316
299 300 300 301 302 302 301 302 302 303 304 310 312 311 311 312 311 312 314 315 315 317 315 314 313 314 314 315 315 314 314 314 314 312 310 310 312 311 310 311 312 313 313 313 314
299 299 300 301 303 302 303 303 302 303 306 310 312 312 312 312 312 312 315 314 315 315 315 315 313 313 314 315 313 315 312 313 313 311 311 309 312 309 310 310 311 311 312 313 314
300 300 300 300 301 303 303 304 305 303 309 310 313 311 312 313 311 312 314 313 314 315 315 313 313 313 313 314 313 313 312 312 312 310 309 310 310 309 308 312 310 309 312 314 315
299 300 302 302 303 303 304 304 303 306 308 312 312 313 313 312 312 311 312 312 312 313 313 312 311 312 312 312 312 311 311 311 310 309 309 309 310 309 310 312 311 311 313 314 314
302 303 303 303 303 304 305 303 302 305 306 312 313 313 313 313 312 312 313 312 310 311 308 311 312 311 311 312 311 313 310 304 315 314 309 310 311 310 309 310 310 309 312 313 314
305 303 305 305 304 304 303 304 304 306 308 311 313 313 314 313 313 313 312 311 311 311 308 307 308 311 310 311 312 311 310 306 313 313 311 309 312 310 309 311 310 312 311 312 313
303 304 304 304 304 304 304 306 308 312 311 312 312 312 313 312 313 312 312 311 310 310 311 310 312 312 311 311 310 311 311 309 311 307 301 307 306 307 307 309 307 309 310 311 311
303 303 303 304 304 303 305 311 309 309 311 311 313 312 313 313 312 312 312 310 311 310 310 314 314 312 313 311 311 309 308 308 302 302 309 309 308 309 310 310 309 308 309 311 311
303 304 303 303 303 304 307 308 308 310 311 312 311 312 310 312 312 313 312 311 310 310 310 312 310 312 312 311 310 311 313 311 309 308 307 311 310 307 309 311 309 308 310 311 312
303 305 304 304 303 304 307 305 310 311 311 312 310 310 309 310 311 312 310 311 310 311 311 311 310 313 310 309 308 309 309 308 303 306 307 305 311 309 309 308 310 311 313 312 312
303 304 304 305 306 306 305 309 311 313 313 313 312 311 310 311 311 312 311 310 311 311 311 311 311 302 312 309 309 309 309 309 309 310 305 308 311 307 307 310 312 313 313 313 312
304 304 305 306 305 306 311 311 313 313 313 312 309 310 311 312 310 312 311 310 310 311 311 310 310 306 308 308 310 308 310 309 309 310 311 310 311 310 311 314 314 313 312 312 312
307 306 307 307 308 310 311 311 313 313 312 312 311 311 313 313 311 312 312 310 309 310 309 309 308 310 310 310 310 309 310 311 310 311 313 312 314 314 315 316 314 312 312 311 312
306 305 306 307 309 310 311 312 313 312 312 313 312 312 311 313 312 312 312 310 310 309 309 308 305 307 302 308 309 308 310 311 311 312 313 314 315 315 315 315 314 313 313 312 310
304 305 306 307 307 308 310 311 312 312 311 311 311 312 312 312 310 310 310 310 309 308 310 311 309 301 305 310 311 313 313 312 313 314 315 319 317 316 316 316 310 308 306 308 311

GFSSW_850_thetae_048.txt.gz
Theta_e
307 307 306 307 305 307 308 310 313 315 316 319 316 314 307 310 311 309 313 309 310 321 320 323 323 321 318 320 320 321 319 321 322 319 319 321 320 322 322 321 322 324 329 328 336
305 305 306 306 306 305 307 307 310 312 315 318 317 315 307 310 312 310 310 310 309 321 319 322 321 320 320 320 320 318 318 320 319 320 321 320 322 322 321 321 321 325 329 336 338
306 305 305 305 305 305 305 306 307 309 312 315 318 315 308 310 312 311 311 310 310 322 321 321 322 321 320 319 319 318 320 319 322 323 322 322 322 323 321 320 320 324 335 337 338
305 304 305 304 304 304 304 304 306 305 309 314 318 316 308 310 316 322 320 313 311 317 319 321 321 320 318 318 319 319 319 321 322 322 321 321 323 322 322 322 322 322 323 327 336
305 305 304 302 303 303 303 303 304 306 308 313 316 316 308 311 314 320 321 314 323 322 322 322 321 321 318 317 319 317 318 319 320 320 319 319 320 321 322 323 323 323 322 322 323
303 304 303 302 302 302 303 303 303 305 305 313 314 312 309 312 310 318 320 317 323 322 322 319 321 321 318 317 317 317 318 319 319 319 319 319 318 319 319 322 322 322 322 321 322
303 303 301 301 300 301 302 302 302 302 303 311 314 310 310 310 315 316 317 318 319 320 320 320 321 320 320 319 320 319 318 318 318 318 318 319 319 317 319 319 320 321 321 320 320
301 301 301 300 301 301 301 301 303 302 301 305 310 311 311 310 314 316 316 317 319 320 321 320 322 321 321 319 318 318 317 320 317 318 318 318 320 317 318 318 319 319 318 317 317
301 300 300 300 301 301 301 301 301 302 302 303 311 311 309 310 310 315 315 317 320 321 320 321 322 320 318 317 318 317 318 318 318 317 317 316 318 316 318 317 317 318 318 318 318
300 301 301 301 302 301 302 302 301 302 302 305 312 309 310 311 311 312 312 317 320 321 321 321 320 321 320 318 321 319 318 317 317 316 316 316 316 315 316 316 317 317 317 318 317
301 300 299 300 301 302 302 302 303 305 307 307 307 310 312 311 313 312 314 317 319 320 320 320 321 321 321 320 316 317 318 316 314 313 312 312 311 311 312 313 314 315 315 316 317
300 300 299 300 300 301 302 302 302 304 305 305 308 309 311 311 312 313 314 316 319 318 316 319 318 317 318 318 318 318 318 315 313 313 312 311 311 311 311 311 312 313 314 314 315
300 300 300 300 300 302 302 302 302 303 305 306 306 310 311 311 311 311 313 316 317 316 314 316 314 314 315 316 318 313 313 314 314 311 309 309 311 310 309 310 311 312 312 313 313
299 300 300 300 300 302 302 304 301 303 306 309 310 312 311 311 311 312 315 315 315 316 314 314 313 314 314 315 313 315 311 312 312 311 311 309 311 308 309 309 308 309 311 312 313
301 302 303 303 302 300 302 303 302 303 309 310 312 311 312 313 312 313 314 313 314 315 313 313 313 312 313 314 312 313 311 311 311 309 308 309 310 308 307 310 309 308 312 314 314
302 304 304 305 303 303 303 303 303 302 307 311 312 313 312 311 312 312 313 312 312 314 313 311 311 311 311 311 311 311 309 308 308 306 305 308 309 308 308 311 311 310 310 312 314
303 303 304 304 303 303 303 303 301 304 305 310 314 313 312 312 312 313 313 312 311 313 313 312 311 310 311 311 310 309 306 303 305 304 308 308 309 308 308 308 308 307 308 310 311
303 304 304 304 304 303 303 303 304 306 306 310 312 313 315 311 313 313 312 312 310 309 308 310 309 311 309 310 310 310 307 304 309 312 309 307 310 309 308 307 307 308 310 311 311
303 304 304 304 304 304 304 305 308 307 308 313 312 313 314 312 313 312 312 311 310 309 309 307 310 311 309 310 309 310 305 307 307 303 301 306 305 304 306 308 307 308 311 311 311
303 303 303 303 304 304 304 310 309 307 311 311 312 311 313 312 313 312 312 309 310 309 309 310 309 312 311 311 311 308 308 306 298 300 307 307 307 308 308 309 308 307 309 311 313
303 303 303 303 303 303 305 308 307 310 311 311 311 311 311 311 311 311 310 310 309 309 309 311 307 312 312 310 310 310 310 309 305 304 305 310 309 305 308 309 308 306 311 313 313
303 304 303 304 303 304 306 304 309 311 311 311 308 310 310 310 311 311 310 310 309 309 310 311 309 309 311 309 308 308 309 307 303 304 304 303 309 307 307 307 308 310 313 314 313
303 304 304 305 306 307 304 307 310 312 311 312 310 310 309 309 310 310 310 310 310 310 310 310 309 305 311 308 308 308 308 308 306 307 301 308 309 306 305 308 310 313 314 313 312
304 299 305 306 305 307 309 310 313 312 311 309 309 309 310 311 310 311 310 310 310 311 311 310 307 305 307 306 306 304 309 308 306 305 305 306 309 309 309 310 313 315 315 312 313
306 304 306 308 310 309 310 310 312 313 311 310 311 310 312 312 310 311 309 309 309 310 309 308 308 309 308 308 309 308 308 308 305 309 309 310 311 311 312 313 314 314 312 312 312
304 304 305 307 309 309 310 312 311 311 311 311 311 312 310 312 311 311 310 308 309 308 308 306 303 307 301 306 307 307 308 308 309 310 311 311 312 311 312 315 311 309 307 306 307
303 305 305 306 305 307 308 310 311 311 311 311 311 311 312 311 309 309 310 309 308 307 308 310 308 302 304 308 310 309 310 310 310 309 312 313 314 314 315 313 307 304 302 301 305

GFSSW_850_thetae_051.txt.gz
Theta_e
307 307 307 306 305 305 306 305 306 309 312 315 318 317 316 311 312 314 312 310 308 320 320 321 322 322 321 318 319 319 318 320 319 318 319 319 320 321 321 320 321 322 326 329 332
308 307 306 306 306 306 305 305 305 306 310 312 316 318 316 314 312 313 308 309 309 321 321 321 321 322 320 319 319 317 317 319 318 317 320 319 321 321 321 320 320 324 328 332 336
306 307 306 306 305 304 305 304 305 305 306 309 314 316 316 313 311 310 308 308 309 319 321 322 322 321 320 318 319 317 318 318 321 321 322 320 320 322 321 319 319 321 336 337 338
303 304 304 304 305 303 304 304 304 304 305 306 312 315 317 310 313 321 321 312 310 319 322 322 322 320 318 318 319 319 318 320 320 320 320 320 320 322 322 322 321 322 324 334 337
304 304 303 304 303 303 304 303 303 304 304 306 309 314 314 310 311 319 319 319 312 320 322 322 322 320 318 317 318 317 317 319 320 320 319 319 318 319 321 321 322 322 322 322 324
303 302 301 301 301 301 301 301 302 303 303 304 308 312 313 310 314 311 320 320 312 320 321 321 322 321 319 316 318 317 318 318 319 318 318 318 317 319 318 320 320 321 322 322 321
302 301 301 301 301 301 301 301 301 302 301 303 307 311 312 311 311 310 319 320 316 321 320 321 321 321 319 317 318 318 318 317 317 318 317 318 317 315 319 319 319 319 319 319 320
302 300 300 300 300 301 301 301 301 301 303 301 305 309 312 313 312 315 317 318 318 320 319 319 321 320 320 318 318 317 316 319 317 316 317 318 319 316 318 319 319 319 319 318 318
301 300 301 301 301 302 301 302 302 301 301 301 304 306 310 311 311 317 317 318 318 319 320 320 319 320 319 317 317 316 317 318 318 316 316 316 317 316 317 317 317 317 317 316 317
301 301 300 299 299 301 302 302 302 301 301 302 305 310 310 310 310 316 315 316 319 320 320 321 320 320 317 317 320 318 318 316 317 315 315 315 314 315 316 316 315 316 317 318 318
301 301 301 300 301 301 302 302 302 304 304 307 310 310 310 310 310 315 314 315 319 320 321 320 321 322 320 317 316 315 317 317 315 313 312 311 310 310 311 311 311 313 316 318 318
301 300 300 301 301 300 301 302 301 302 303 306 306 309 310 312 312 311 312 316 318 319 318 320 321 318 320 320 320 318 318 317 313 312 312 310 310 310 310 311 312 313 314 314 315
300 300 300 300 301 299 302 303 301 302 304 304 305 307 310 311 312 312 313 316 317 316 316 318 316 318 319 318 319 317 314 313 314 311 309 308 309 309 308 309 310 311 312 312 312
301 302 302 303 303 301 301 302 302 302 299 305 307 309 311 311 311 312 313 316 316 314 314 313 312 316 314 316 313 313 311 312 311 311 312 308 311 308 307 307 307 309 310 310 311
302 303 304 303 305 303 301 302 301 303 305 307 308 310 311 312 311 312 314 314 314 315 313 313 313 313 314 314 311 313 310 310 309 308 308 309 309 308 306 309 309 307 308 309 310
304 303 303 303 302 302 302 303 303 302 309 310 310 312 312 312 313 313 312 313 314 313 311 311 311 311 311 310 311 309 309 307 306 306 304 307 309 308 308 309 307 306 309 310 311
304 304 304 304 304 302 303 303 297 304 305 310 313 312 312 314 314 313 313 312 314 315 313 311 310 309 310 310 310 308 306 303 305 305 308 307 309 308 307 307 308 306 309 311 312
303 304 304 304 303 302 302 300 303 305 306 308 312 312 314 313 314 314 312 312 310 309 310 312 313 311 309 310 310 309 307 304 308 311 309 306 310 309 306 306 306 309 310 311 312
303 302 304 304 304 302 303 306 307 307 307 313 312 313 314 312 314 314 312 311 310 309 309 306 310 309 309 309 309 309 305 306 304 301 303 306 304 302 306 307 307 308 310 311 313
303 303 303 304 304 303 304 308 308 306 311 309 311 312 312 313 314 313 312 310 310 309 308 308 310 311 311 310 309 308 307 307 299 299 306 305 305 305 307 308 307 305 308 311 314
303 303 303 303 303 302 302 307 308 311 311 311 310 311 310 311 311 311 311 309 309 308 309 309 307 312 311 310 310 309 307 306 304 303 303 308 306 304 306 307 307 305 308 313 314
303 302 304 305 301 303 306 305 308 311 311 310 308 309 310 310 311 310 309 310 309 308 310 309 306 312 312 308 307 308 308 306 303 304 301 301 307 305 305 305 306 309 309 314 315
303 304 305 305 303 307 307 309 310 311 310 311 309 309 308 309 310 309 309 309 309 309 309 309 305 303 308 306 306 308 308 306 304 301 301 303 307 305 304 307 308 312 313 314 313
304 299 305 306 305 307 310 311 312 312 310 308 308 309 309 310 309 310 309 310 310 309 310 309 305 305 306 305 304 304 308 307 303 302 304 304 306 308 308 308 311 314 313 312 311
305 304 305 308 308 310 310 311 311 311 310 309 309 309 311 311 311 310 309 309 309 310 309 307 308 307 307 307 308 308 307 307 302 307 303 307 308 308 309 310 312 311 309 307 307
303 304 305 306 308 306 308 310 310 310 310 311 311 311 309 311 310 311 309 308 310 308 308 305 306 306 302 306 306 306 307 307 307 308 308 309 310 309 310 313 313 307 304 303 303
303 304 305 305 304 305 307 310 311 311 311 310 310 311 311 310 308 309 309 308 307 307 307 309 308 303 304 306 308 307 308 307 307 307 310 311 310 313 313 314 308 304 300 300 299

GFSSW_850_thetae_054.txt.gz
Theta_e
308 308 308 308 307 307 307 307 306 306 306 308 311 314 317 317 315 312 314 310 310 316 320 318 323 322 322 319 319 319 317 318 319 318 318 318 319 320 320 320 320 320 322 327 332
306 306 306 305 305 306 306 305 306 305 305 305 308 312 316 318 315 313 311 307 308 316 321 321 322 323 322 319 319 316 316 318 317 316 317 319 320 320 321 319 320 322 330 328 334
305 305 305 305 305 304 305 304 304 305 305 305 305 309 311 315 315 315 315 310 307 314 321 322 322 322 320 319 318 316 317 317 319 319 321 320 320 321 320 320 319 319 328 334 337
303 304 304 302 302 302 303 304 305 304 305 304 305 307 310 314 315 316 316 309 307 311 321 322 321 321 317 316 318 318 317 318 318 320 320 319 320 320 321 320 321 321 322 329 335
303 303 303 303 303 302 302 302 301 302 303 304 304 306 311 314 314 319 319 318 309 314 321 322 320 319 319 317 317 317 317 318 320 320 319 319 318 318 319 320 320 321 321 322 322
303 303 301 302 302 301 301 301 302 303 303 303 303 306 310 313 313 314 313 320 313 318 321 322 321 320 319 317 317 317 318 318 318 318 318 317 317 318 318 319 319 320 320 320 321
303 302 301 301 302 302 302 301 301 302 302 304 303 304 309 312 313 312 310 318 314 317 320 321 321 320 318 316 317 317 318 316 316 317 317 317 316 315 318 319 319 318 319 319 319
302 302 302 302 302 302 301 301 302 303 302 302 303 304 309 312 313 315 315 319 317 318 320 321 321 320 318 317 316 316 316 319 316 316 317 317 316 315 317 317 318 318 318 318 318
302 302 302 301 301 300 301 302 302 302 303 303 303 303 310 310 312 315 317 317 316 317 318 319 318 320 319 316 316 316 316 317 318 315 316 315 317 315 316 315 315 317 317 316 316
302 302 302 301 301 301 301 302 301 302 301 302 302 306 309 310 313 312 316 317 319 318 319 319 319 319 315 318 318 318 318 316 317 314 315 315 313 311 314 314 315 316 317 317 317
301 301 299 300 301 301 301 301 301 303 303 304 305 309 310 311 312 312 315 317 318 319 322 319 319 322 320 317 315 315 316 316 315 313 312 312 310 310 311 311 310 312 314 316 318
300 300 300 302 300 301 299 302 301 301 302 304 306 307 310 310 311 312 314 317 318 320 319 320 318 319 319 317 318 317 316 317 314 311 311 310 309 309 311 310 312 313 314 314 315
301 302 302 303 302 302 301 302 301 302 302 304 304 306 310 311 311 311 313 316 317 319 318 318 318 319 320 319 320 317 317 314 314 310 308 307 309 308 308 308 309 309 310 310 310
303 304 304 304 301 301 301 302 302 302 294 305 306 309 311 312 311 312 313 316 316 316 315 314 315 319 318 318 318 318 312 312 311 311 313 307 313 308 307 306 306 305 307 308 310
304 303 303 303 303 302 302 302 301 303 300 305 309 309 309 311 311 312 314 314 315 315 314 313 316 315 318 316 315 313 310 310 309 308 308 309 309 307 306 308 306 305 308 311 312
303 304 303 303 302 302 302 301 302 302 308 309 310 312 312 311 312 312 313 312 313 312 311 310 310 310 310 309 311 308 308 306 305 305 305 307 308 306 307 307 306 306 309 311 313
303 304 303 302 302 302 302 302 300 305 304 310 311 312 313 314 313 313 313 312 315 314 313 310 311 309 309 310 309 308 309 306 303 304 306 307 308 307 306 306 306 307 309 311 314
303 303 303 302 302 302 303 302 306 306 306 308 312 312 315 313 314 313 312 311 309 310 309 310 312 311 309 310 310 308 307 305 306 309 308 305 309 308 305 305 307 308 308 310 313
303 303 304 304 302 302 303 303 308 308 305 312 312 313 314 313 314 314 312 310 310 308 311 307 310 309 309 309 308 308 304 304 302 301 301 305 304 302 305 306 307 307 309 310 312
303 302 303 303 303 303 302 309 308 307 310 308 312 311 313 314 314 312 312 310 309 308 307 307 310 311 310 310 308 308 305 307 297 299 305 303 304 304 307 308 305 305 307 310 313
303 304 304 304 304 303 304 307 309 311 310 309 310 310 310 311 310 311 310 309 308 308 308 307 308 312 310 310 309 309 306 305 303 303 304 307 304 302 305 307 307 305 311 313 314
304 299 305 305 302 304 307 307 308 310 310 308 308 309 309 309 310 309 310 310 308 308 310 308 308 312 311 307 307 307 307 305 302 303 300 302 305 305 303 305 306 307 311 314 314
303 304 306 306 308 308 308 310 309 311 311 309 308 308 308 309 309 309 308 309 308 308 309 308 305 302 309 307 305 308 307 304 302 300 300 303 306 304 303 304 307 308 312 312 311
305 302 306 307 306 308 311 311 311 310 309 308 308 308 308 309 308 309 309 309 308 309 309 307 304 305 306 305 304 305 308 305 303 305 304 302 304 306 306 305 307 309 311 309 306
304 304 305 305 308 308 308 310 310 310 309 308 309 309 310 310 310 309 308 309 308 311 307 306 307 307 307 306 307 307 307 306 301 304 302 305 305 307 306 307 307 310 308 305 304
304 304 304 306 306 304 305 309 310 310 309 310 310 309 309 310 310 310 308 308 309 307 307 304 305 304 301 306 306 306 307 306 306 306 306 308 308 308 308 310 314 308 305 302 301
302 302 304 304 302 304 306 308 309 310 310 310 310 310 310 309 308 308 308 308 307 307 307 309 307 302 305 305 307 307 307 307 306 306 308 309 309 308 311 313 311 306 305 300 299

GFSSW_850_thetae_057.txt.gz
Theta_e
306 306 306 306 307 305 307 307 306 305 307 306 306 308 311 315 316 317 313 312 308 314 319 317 323 322 322 318 318 319 322 320 321 319 319 317 316 319 319 319 320 319 320 324 329
307 306 305 305 304 305 305 305 305 306 306 306 304 306 307 310 313 314 316 315 311 309 321 318 321 323 323 319 318 318 320 320 317 317 317 318 319 320 320 319 319 321 327 326 328
305 305 304 304 304 304 304 304 304 304 304 305 304 305 306 308 312 315 317 316 313 310 319 320 320 322 321 318 317 316 319 317 318 317 320 319 320 320 320 320 319 319 328 332 337
304 303 303 304 303 305 304 304 302 303 303 305 305 304 306 308 316 314 315 314 316 310 318 321 321 322 320 317 317 318 317 317 318 320 320 319 319 319 320 319 320 321 321 324 334
303 303 303 303 303 303 303 302 303 303 302 303 303 304 304 309 312 315 318 318 318 315 319 320 321 321 321 318 316 317 317 318 319 319 319 319 318 319 319 319 320 320 320 321 321
303 302 302 302 302 302 302 303 303 302 302 302 302 303 305 311 312 314 315 313 316 317 319 320 320 320 319 318 317 317 317 317 318 318 318 317 317 317 318 318 318 318 319 319 320
302 302 302 302 302 302 302 303 303 303 302 302 302 304 305 308 312 313 315 314 316 316 318 320 320 318 318 316 318 316 317 316 316 316 317 317 317 316 317 318 318 318 317 318 319
302 302 301 303 302 302 302 301 302 302 303 303 302 303 305 308 311 312 314 313 316 313 318 320 319 319 318 316 316 317 317 319 316 316 316 317 317 315 316 316 317 317 317 317 316
301 302 301 302 301 301 301 302 302 301 303 304 303 304 306 308 312 313 314 317 319 315 319 318 319 319 317 316 317 316 318 317 318 315 316 317 317 315 316 315 315 316 316 316 316
302 301 301 301 301 301 302 301 301 303 301 302 302 303 305 310 311 313 314 318 318 316 316 317 318 318 317 318 319 319 317 316 317 314 314 315 315 314 315 312 313 313 315 316 317
302 302 302 302 302 301 302 300 301 303 303 302 303 305 308 310 312 312 313 317 316 317 317 318 319 319 320 317 314 315 315 316 315 312 313 313 312 312 311 311 311 313 315 315 315
303 303 304 304 302 302 301 300 301 301 302 303 305 305 309 311 312 311 314 316 317 318 318 318 320 319 317 316 316 315 316 316 314 311 311 310 310 311 311 310 310 310 311 311 311
304 303 304 303 304 301 302 301 301 301 302 305 305 305 310 311 311 311 313 317 318 319 315 315 318 319 318 319 319 317 316 314 315 310 308 308 312 309 308 307 306 306 307 309 311
303 303 303 302 302 302 301 301 301 302 298 305 307 307 311 310 311 312 314 316 316 316 313 314 316 320 320 320 319 320 314 312 311 313 316 308 317 311 307 306 306 307 310 312 313
303 303 303 302 302 302 301 302 301 302 303 306 308 308 310 310 311 313 314 314 315 314 314 312 318 316 317 317 316 316 310 310 309 309 309 309 312 310 306 307 306 306 309 312 314
302 303 302 302 301 302 301 301 302 297 305 309 309 309 310 312 312 313 314 313 311 312 311 310 311 313 312 315 314 309 307 307 305 306 311 307 309 308 308 307 306 306 308 311 313
303 303 302 302 302 302 302 302 297 301 303 309 311 310 312 313 313 314 313 313 315 314 313 312 311 309 309 310 309 309 313 311 309 310 312 307 308 309 306 306 306 307 308 309 313
302 303 303 302 302 302 302 298 302 306 305 307 313 313 315 312 313 313 313 311 308 310 309 311 315 311 309 310 311 308 312 310 309 310 309 306 311 309 305 305 307 307 309 311 313
303 303 303 303 303 302 302 305 309 307 306 313 312 313 314 313 313 313 311 310 308 307 312 308 311 309 308 308 308 308 308 304 303 301 306 306 305 303 305 304 306 306 310 312 314
304 303 304 305 305 303 304 310 311 307 309 308 311 310 313 314 314 311 311 309 309 308 307 307 311 310 308 309 307 308 305 308 302 305 307 303 303 304 307 307 306 306 307 311 314
304 304 306 306 305 305 306 308 310 310 309 309 309 309 310 311 311 311 310 309 308 308 306 307 309 311 310 309 309 308 307 305 304 304 306 306 305 302 304 305 306 306 308 311 313
305 300 307 308 304 305 306 305 308 310 310 308 307 308 309 308 309 309 309 309 308 308 309 307 309 312 310 307 306 307 307 304 307 306 302 304 307 304 303 304 305 306 308 312 310
304 304 307 307 307 306 307 309 309 310 310 308 308 308 307 308 309 308 308 308 308 308 309 307 305 309 310 308 306 308 306 304 302 302 304 307 306 303 303 304 305 306 310 309 308
305 302 306 307 307 308 309 309 310 310 308 307 308 307 308 309 307 308 309 309 308 308 308 307 305 306 310 307 305 306 307 304 304 305 304 303 304 305 305 305 306 308 310 308 307
304 304 304 303 305 308 308 309 309 309 308 308 308 308 309 310 309 309 308 308 308 310 306 306 308 307 306 306 306 307 308 306 303 304 306 305 305 306 306 305 307 309 308 306 305
303 304 304 304 304 304 305 309 309 309 308 309 309 309 308 309 308 308 307 307 309 307 306 304 307 302 302 306 306 307 307 306 306 306 306 306 308 308 308 308 312 309 306 302 302
302 302 302 304 301 304 305 308 309 309 310 310 309 308 307 307 308 307 307 307 307 307 306 308 304 302 306 305 306 307 307 307 306 305 308 308 308 307 309 310 311 307 305 301 300

GFSSW_850_thetae_060.txt.gz
Theta_e
307 307 307 307 306 305 305 306 305 306 307 307 306 306 304 306 311 314 318 317 314 316 318 309 321 324 319 319 318 321 323 324 324 323 322 320 321 319 319 320 320 321 324 327 327
306 306 306 304 304 304 305 305 305 305 305 306 305 306 307 305 308 312 315 317 315 317 320 315 321 323 322 319 318 318 321 320 321 321 321 320 319 321 321 321 321 323 324 325 324
305 304 304 304 304 304 305 305 305 305 304 303 305 306 306 306 308 312 316 316 317 314 317 318 321 323 322 320 318 318 319 320 320 319 319 320 321 322 321 322 321 322 325 335 330
304 304 303 303 303 304 304 303 303 304 304 304 304 304 304 307 309 313 314 316 317 317 317 319 321 322 322 322 319 320 317 318 320 321 321 321 321 321 321 321 321 322 321 325 338
304 304 303 303 302 303 302 302 303 304 303 302 302 302 304 307 306 314 315 318 320 318 317 318 320 321 321 321 319 319 319 319 319 320 320 320 321 321 321 321 320 320 320 322 322
303 303 302 302 302 302 303 303 304 303 303 303 303 303 304 306 307 309 313 313 317 318 317 319 319 320 320 320 320 319 318 319 319 319 319 319 320 319 320 319 319 319 319 320 320
303 303 302 302 302 303 302 302 303 303 303 303 304 303 304 305 309 312 313 314 317 318 316 319 319 320 320 319 319 318 319 318 319 318 318 318 319 319 318 318 318 318 318 318 319
303 302 302 302 301 302 302 301 301 302 304 303 303 303 303 304 306 310 312 312 315 318 316 318 319 319 317 318 318 319 318 320 317 318 318 318 317 317 317 317 318 317 317 317 317
303 303 302 302 301 302 301 302 302 301 302 303 304 303 305 305 308 311 313 314 315 317 317 318 318 318 318 319 320 319 318 317 319 318 317 318 316 317 316 317 317 317 317 317 317
304 304 304 303 302 301 302 302 301 302 301 304 303 303 304 307 310 312 313 314 316 318 316 318 318 319 319 319 318 319 318 318 317 318 318 319 317 317 317 316 316 317 316 316 316
304 304 304 304 303 302 302 300 302 304 302 304 304 304 307 309 311 313 313 315 318 316 317 317 318 321 320 318 316 317 317 316 317 314 317 318 319 318 317 316 316 316 316 316 316
304 303 303 303 303 303 302 301 301 302 303 303 304 304 305 310 312 312 312 316 318 318 316 318 319 319 318 318 317 317 316 317 316 314 316 317 317 317 317 316 314 314 314 314 312
302 303 302 302 304 302 301 302 301 301 304 305 304 304 307 310 311 309 312 316 316 316 318 318 317 317 318 319 318 318 317 318 318 314 312 314 317 315 310 309 308 309 310 312 312
302 302 302 303 301 301 301 301 301 302 306 304 306 306 309 310 311 312 313 316 314 316 314 315 314 319 319 319 318 319 317 317 316 318 320 313 318 314 311 311 312 313 313 314 313
302 302 301 300 301 302 301 301 301 302 311 307 308 308 310 311 311 313 312 313 315 312 314 312 314 320 320 319 319 318 316 315 314 316 315 314 318 313 311 312 312 312 313 314 315
302 302 302 301 301 301 301 301 302 308 311 310 309 309 311 311 313 313 313 311 312 313 310 310 311 313 315 316 313 310 312 312 312 314 319 314 315 312 311 312 311 311 312 312 314
302 302 302 303 302 302 302 303 310 311 306 311 311 311 313 314 314 313 314 315 316 317 316 308 311 310 314 312 312 312 315 320 320 320 319 310 312 313 310 309 311 312 312 312 314
303 303 304 304 304 303 302 307 313 309 310 309 312 313 315 313 313 313 314 315 311 314 315 318 317 312 311 312 314 313 317 320 317 314 314 309 314 312 310 308 310 308 310 312 314
304 304 305 305 305 304 305 311 311 309 308 313 312 313 314 313 314 313 313 313 311 311 316 316 315 310 310 309 312 312 316 309 312 308 313 312 311 309 308 308 309 310 311 312 314
305 305 306 307 306 305 310 311 312 308 310 310 312 312 313 313 314 314 314 311 311 310 310 312 315 311 309 310 309 312 309 314 314 316 315 310 309 312 310 310 310 311 312 313 314
305 306 307 308 308 309 308 310 311 311 310 311 311 312 312 313 313 313 312 311 310 310 310 311 314 313 312 313 313 311 313 309 310 309 313 310 310 311 313 312 310 310 311 313 313
305 312 308 308 309 307 310 308 308 312 311 310 310 311 311 312 312 312 312 312 309 310 312 310 313 314 313 309 309 310 311 310 314 312 309 312 311 308 311 311 308 310 311 313 310
305 306 308 308 314 312 310 311 311 311 310 310 310 310 310 311 313 311 311 310 309 311 311 310 312 313 312 311 309 311 310 308 307 309 312 314 311 308 309 309 309 310 313 312 308
305 311 308 308 308 311 312 312 311 310 309 308 309 309 310 311 310 311 311 310 309 310 308 309 309 311 313 312 311 312 310 308 312 315 312 312 310 310 310 310 311 311 312 310 307
304 306 305 312 311 310 310 311 311 312 310 309 310 310 311 311 311 311 311 310 310 310 309 310 312 310 309 308 309 310 311 309 309 312 316 311 310 311 310 311 311 312 309 307 305
304 304 305 306 305 308 309 312 311 311 311 311 311 311 310 311 310 311 310 310 311 309 310 308 312 307 309 308 308 310 310 310 309 310 310 311 311 311 311 310 312 312 308 304 302
302 302 302 306 307 309 311 311 311 310 311 310 311 311 311 310 309 308 308 309 310 310 310 310 309 311 312 308 309 312 311 310 310 309 311 312 312 311 311 310 312 310 307 303 300

GFSSW_850_thetae_063.txt.gz
Theta_e
306 307 306 306 305 306 305 306 306 307 306 306 308 307 308 307 304 307 313 318 318 316 313 315 322 325 323 321 319 321 326 327 326 326 325 325 325 323 322 322 321 322 325 333 340
306 306 306 305 304 305 304 304 305 305 306 305 305 306 306 307 307 307 311 318 319 316 320 315 320 324 322 321 319 321 325 324 324 324 324 324 323 323 321 321 321 321 326 334 337
305 305 305 305 304 304 303 305 304 304 305 305 305 304 306 306 307 307 309 316 318 317 318 318 318 323 322 321 320 319 320 321 321 321 320 322 321 321 322 322 321 322 324 334 337
304 304 304 304 303 304 304 303 304 304 304 305 305 305 304 307 309 308 313 315 317 318 316 318 315 321 322 323 320 320 318 318 321 320 320 320 321 322 322 322 322 324 324 329 336
304 304 304 303 303 303 303 303 304 303 304 303 303 303 304 306 307 310 315 315 319 318 316 316 316 319 322 322 320 320 320 319 320 321 320 318 320 322 321 322 323 323 322 323 326
305 304 303 303 303 302 303 302 303 304 304 303 303 303 305 307 306 307 307 316 319 320 316 316 317 319 320 320 320 319 320 319 319 321 320 321 320 321 321 321 321 321 321 322 323
304 305 304 303 301 302 302 303 303 303 303 304 303 304 305 305 306 311 307 312 315 319 317 316 317 318 319 320 320 319 320 319 319 319 320 320 321 321 321 320 320 320 319 319 320
305 305 305 304 302 301 302 302 303 302 303 304 303 304 305 304 305 306 308 310 315 318 317 316 318 319 319 319 319 320 320 321 319 319 319 319 320 320 319 319 319 319 318 318 318
305 304 304 304 304 303 301 301 302 302 301 301 304 305 305 306 305 307 309 310 315 318 317 316 319 319 319 320 320 319 319 319 318 318 319 319 318 318 318 318 318 318 318 318 318
306 304 303 303 305 304 301 301 301 302 304 305 305 305 304 306 306 310 312 313 315 317 316 316 318 319 319 319 322 319 318 317 317 319 318 319 318 318 317 317 317 317 318 317 317
305 303 302 302 302 304 302 303 304 305 305 305 305 304 306 307 309 312 310 311 316 316 316 317 319 319 318 318 317 316 317 317 316 318 318 317 318 317 317 317 317 317 317 317 317
303 303 302 304 304 304 303 303 303 304 304 304 304 305 305 304 309 311 311 315 318 316 315 318 319 317 317 317 317 317 318 317 317 316 317 317 318 318 318 317 317 317 317 317 317
304 302 302 301 301 303 303 303 302 303 305 305 305 306 307 309 311 311 313 315 317 315 317 318 318 316 319 319 318 317 317 317 317 316 316 317 318 317 316 313 312 312 313 314 314
302 302 300 302 303 303 303 301 301 303 310 307 307 308 310 311 310 312 311 312 316 317 317 317 317 317 319 320 317 317 316 316 317 317 316 316 315 318 315 313 313 314 315 315 315
302 302 302 300 303 304 301 301 302 304 312 308 309 309 311 311 310 310 312 315 316 314 316 315 318 318 320 320 318 319 318 318 318 319 318 317 318 316 314 314 315 315 315 316 316
303 303 302 304 304 302 302 302 304 310 314 311 309 311 311 312 312 312 312 313 312 312 310 309 310 313 317 314 317 317 317 317 317 318 322 319 318 316 315 314 314 313 314 315 316
304 303 304 305 305 304 303 304 312 314 308 312 313 312 314 315 314 314 314 315 316 315 315 309 309 309 312 314 313 315 319 322 323 323 322 313 315 316 313 314 313 314 314 315 316
305 306 305 305 305 305 306 311 315 312 312 309 313 314 315 314 314 315 315 315 315 315 317 318 317 308 310 313 315 318 319 324 323 321 320 312 315 315 312 312 313 312 313 315 316
306 306 307 306 306 306 310 313 312 311 310 313 314 314 314 315 314 316 315 314 313 313 317 318 317 310 312 311 314 314 318 313 315 312 316 314 313 311 310 311 311 312 313 315 316
306 307 308 307 308 309 313 312 313 311 312 312 314 313 314 314 315 316 315 312 313 311 312 315 316 312 311 311 311 314 313 317 318 319 316 314 313 314 310 311 311 313 314 315 316
307 312 308 308 311 311 312 314 312 312 311 312 313 313 313 314 314 314 314 312 312 312 313 314 315 314 313 314 315 313 314 313 312 312 317 312 312 313 312 311 313 313 313 315 315
308 315 309 308 313 312 313 311 311 313 311 311 312 312 313 313 314 314 314 314 311 312 314 313 314 316 315 311 311 313 314 314 315 315 313 315 312 312 313 312 311 312 313 315 312
309 310 309 310 316 315 313 313 312 312 311 311 312 312 312 313 313 313 312 311 311 312 313 312 315 314 313 312 311 312 313 312 311 313 317 317 314 313 313 312 310 312 314 314 312
308 314 312 312 312 314 313 313 313 311 311 310 311 311 312 312 312 313 313 312 311 312 308 310 312 314 315 316 314 313 313 312 312 316 314 313 312 311 311 311 312 313 314 314 311
307 310 306 315 313 312 312 312 312 313 311 311 311 311 312 312 312 312 312 312 311 309 311 312 314 312 311 311 311 313 313 312 312 314 319 314 312 312 312 312 313 313 313 311 308
305 305 305 308 310 311 311 313 313 312 312 312 312 311 311 311 311 312 312 312 312 311 312 311 313 311 312 310 310 312 312 312 311 311 312 312 313 312 312 312 313 314 313 310 306
302 303 304 309 310 311 313 313 312 312 312 312 312 312 312 312 312 311 311 311 311 311 311 312 312 313 313 310 310 313 312 312 312 311 312 313 313 312 312 312 312 314 312 309 305

GFSSW_850_thetae_066.txt.gz
Theta_e
308 306 306 306 306 305 305 306 305 305 307 307 306 307 308 308 307 305 308 316 318 319 312 316 321 324 326 325 321 322 326 328 330 328 326 326 325 324 323 323 322 322 331 339 342
307 306 305 305 305 304 304 304 305 304 305 305 306 305 306 306 307 308 307 310 317 319 317 316 318 323 323 325 322 320 323 325 325 325 324 324 324 324 322 322 322 322 329 335 333
306 306 305 305 304 304 304 304 303 303 305 305 304 305 305 306 308 309 306 310 316 318 318 318 315 321 322 322 321 319 321 322 323 321 320 323 323 323 322 321 321 321 325 335 337
305 305 305 304 304 304 303 304 303 302 303 304 304 305 305 306 309 311 308 305 316 319 318 318 316 319 322 322 321 320 319 319 320 320 320 321 321 321 321 322 323 323 327 334 336
307 306 305 305 303 303 303 303 303 304 304 303 303 303 304 306 306 307 311 313 317 318 318 318 316 319 322 322 320 321 319 318 319 320 320 319 319 319 322 322 324 323 323 325 331
306 305 306 305 305 303 302 303 303 303 304 304 303 303 304 306 305 306 307 309 317 318 319 317 317 317 318 321 321 320 320 319 319 321 320 318 318 318 321 322 322 322 322 322 323
307 305 304 305 305 303 303 303 302 304 303 303 303 304 305 305 306 309 309 308 315 317 318 317 317 316 319 320 320 320 319 319 319 321 320 320 319 319 320 321 321 321 321 320 320
305 304 304 304 304 304 302 302 301 301 301 302 304 304 305 305 305 305 308 308 314 316 318 317 315 317 319 319 320 320 319 321 319 319 320 319 320 319 320 320 321 320 320 319 319
305 304 303 303 303 305 302 302 301 302 301 301 305 305 305 305 306 305 306 307 312 316 318 317 316 318 318 320 321 321 320 320 320 318 319 318 319 318 319 319 319 319 319 319 318
305 303 303 304 302 305 304 301 301 303 305 305 305 305 305 305 306 305 307 308 311 315 317 317 317 319 319 321 321 321 319 317 318 319 318 319 318 317 318 318 318 318 318 318 318
305 303 302 303 304 304 302 304 305 306 305 304 305 305 305 306 308 308 309 308 313 317 319 317 318 318 319 319 318 317 317 317 316 318 318 318 319 317 317 317 317 317 317 317 317
304 303 301 301 303 304 304 304 303 303 305 304 305 305 306 306 308 309 307 311 314 313 316 317 318 317 317 318 319 318 317 316 316 318 318 317 317 316 316 316 317 317 317 317 317
302 303 301 302 303 304 303 303 303 304 305 306 306 307 307 306 309 311 309 311 312 313 316 316 316 316 317 317 318 317 316 315 317 316 316 316 316 316 316 317 315 314 314 315 314
303 302 301 303 305 304 302 301 302 303 308 309 309 308 308 307 310 310 311 313 316 315 316 316 317 317 318 319 318 319 315 317 317 316 316 314 312 315 316 312 312 312 313 314 314
304 303 303 304 305 303 302 302 302 305 311 309 309 309 311 311 310 309 312 312 315 316 316 314 316 317 315 315 318 317 317 317 317 316 317 315 315 316 313 312 312 313 315 315 315
304 304 305 306 306 306 304 305 305 308 312 310 310 311 312 311 311 312 313 312 313 313 310 310 311 314 315 315 318 318 317 317 317 318 318 317 316 314 312 313 313 314 315 316 317
305 307 306 305 307 306 306 305 312 312 309 311 313 313 312 313 312 314 314 315 315 315 313 311 309 309 312 313 314 318 316 319 319 320 318 314 316 315 312 313 312 312 314 315 316
307 308 308 307 306 307 307 310 313 312 311 312 313 314 315 314 314 314 315 316 315 314 316 317 315 311 310 314 316 317 317 317 318 319 315 312 314 312 311 313 313 314 314 315 316
307 308 309 308 307 308 309 312 312 310 311 313 314 315 314 315 315 315 315 315 314 314 318 318 316 309 311 311 315 315 318 313 314 312 313 311 311 310 310 310 311 312 314 315 316
308 311 310 309 311 311 310 312 313 311 312 312 314 313 315 315 315 316 315 313 313 313 312 314 316 312 311 312 312 315 315 316 313 313 316 311 312 311 309 310 310 311 313 315 316
309 313 311 308 312 311 310 313 313 312 312 312 313 313 313 314 314 314 314 313 313 312 312 314 315 314 312 314 314 313 315 314 311 312 314 311 309 310 309 310 309 311 314 315 316
311 316 310 311 313 314 313 311 311 312 311 312 312 312 313 313 314 314 314 313 312 312 314 313 313 315 315 311 311 312 314 313 313 315 310 309 310 309 308 309 312 312 313 315 314
308 310 312 313 317 317 314 313 313 312 311 312 312 312 312 313 313 313 313 312 311 312 312 312 313 311 313 312 311 312 313 313 310 311 315 314 309 310 308 309 310 312 313 315 313
308 313 311 313 313 314 314 313 313 312 312 311 311 311 312 313 312 313 313 312 311 311 309 311 312 313 313 314 312 311 312 312 309 308 313 310 310 310 310 309 310 312 314 315 312
308 310 306 312 314 312 313 313 313 313 312 311 312 312 312 313 312 312 313 312 311 310 311 312 313 312 311 311 312 313 312 312 308 310 307 312 311 309 309 309 311 313 314 314 311
304 304 304 306 310 311 311 314 313 313 312 312 312 312 311 312 312 312 312 312 312 311 311 311 310 308 306 310 310 310 311 311 311 310 310 311 311 310 311 312 312 313 313 312 310
297 302 303 305 309 311 312 313 313 312 312 311 312 312 312 312 312 311 311 311 311 311 310 311 309 308 310 310 310 308 310 310 311 310 310 310 310 311 311 312 312 314 314 312 309

GFSSW_850_thetae_069.txt.gz
Theta_e
308 308 307 306 305 305 305 305 305 305 305 306 307 307 306 308 309 308 305 313 318 317 316 317 315 324 325 326 324 324 326 325 327 328 328 326 323 322 323 322 324 335 338 340 343
308 307 307 307 306 305 305 305 305 303 303 305 305 305 306 307 306 306 307 306 315 317 314 316 314 323 323 324 322 320 325 322 319 323 325 322 324 324 321 321 329 334 336 337 337
308 307 307 306 306 304 304 304 305 304 302 303 304 304 304 305 306 306 310 310 312 317 317 316 313 322 322 323 322 320 321 322 322 322 323 323 323 324 320 320 321 333 329 328 328
307 307 306 307 306 305 303 304 304 303 302 303 303 304 305 306 308 310 311 309 309 317 318 319 314 320 321 321 322 318 319 319 320 321 322 322 320 321 320 322 322 322 326 329 330
307 307 306 306 306 305 300 302 304 302 303 302 303 303 303 304 305 307 308 312 312 316 316 319 315 318 320 321 321 320 319 318 319 319 320 320 318 318 319 323 324 329 334 335 334
307 305 305 304 305 305 303 300 303 303 302 304 304 303 303 305 303 306 306 308 312 317 316 317 317 317 320 320 320 320 320 320 319 320 319 318 318 318 319 322 322 323 322 323 327
306 305 304 305 304 305 303 301 302 301 303 302 303 303 304 304 305 308 309 308 310 316 317 317 317 317 318 317 320 320 320 319 318 320 320 318 318 318 319 319 320 321 321 321 322
306 304 304 304 303 304 303 300 300 300 301 301 304 303 304 302 304 305 305 306 308 314 316 316 317 316 317 319 319 321 317 320 318 319 320 317 319 317 319 319 320 320 320 320 320
306 302 302 303 303 305 300 301 301 301 301 301 303 304 304 305 306 304 305 305 307 315 316 316 316 315 318 317 318 319 321 319 319 318 319 317 318 317 318 318 319 320 320 319 319
304 302 302 303 303 303 301 302 304 304 304 305 305 304 304 305 305 306 305 306 309 314 316 317 316 316 317 318 319 322 319 318 318 317 317 318 317 317 317 318 318 319 319 319 319
302 300 300 302 303 304 304 304 305 304 305 304 304 304 305 305 306 306 306 307 309 313 317 317 318 318 317 317 317 316 318 317 316 316 318 318 318 317 317 316 316 317 317 316 317
302 303 301 302 301 301 302 302 303 303 304 305 305 306 306 306 307 308 308 308 312 313 315 317 317 314 316 317 318 317 317 316 314 315 317 317 318 317 316 315 317 317 317 317 316
303 303 302 302 302 303 301 301 302 304 305 306 306 305 305 307 308 306 308 310 313 315 314 316 315 315 317 318 319 318 316 315 315 315 314 315 316 317 314 315 316 316 316 316 315
304 303 303 303 303 303 303 301 302 303 306 309 308 307 308 308 308 309 309 311 311 314 314 316 316 316 317 317 316 317 315 315 315 315 316 313 315 313 314 313 311 313 313 314 314
304 305 305 305 304 305 304 303 303 305 310 308 309 309 310 310 309 311 309 311 313 315 315 314 317 316 316 316 317 317 317 316 314 313 314 314 313 312 313 311 310 309 312 314 314
305 307 306 306 306 306 305 304 304 300 309 310 310 312 312 311 311 312 312 312 313 311 311 311 311 313 314 314 315 317 317 315 314 315 314 315 313 313 312 314 310 310 314 315 315
306 307 307 307 306 306 306 306 304 306 307 309 313 313 313 313 314 313 315 315 314 313 312 310 311 310 312 312 313 316 317 317 318 313 313 313 314 314 312 310 310 312 315 316 316
307 308 308 308 307 307 307 304 306 311 310 310 312 314 315 315 313 313 315 316 313 311 312 309 310 313 310 313 313 313 315 311 315 315 314 310 315 313 307 311 313 315 315 316 316
308 309 308 308 310 310 308 305 308 307 309 313 312 315 314 314 315 314 315 315 314 314 313 312 312 310 310 312 312 316 316 313 311 310 308 310 309 309 309 310 311 313 315 316 316
309 312 310 308 311 311 304 306 308 310 312 312 314 313 315 313 315 314 313 313 314 312 313 314 312 311 312 312 312 315 315 315 310 313 314 309 309 310 310 311 310 311 313 315 316
311 313 311 310 312 308 307 305 312 312 311 312 312 313 312 313 313 313 313 312 311 312 312 313 313 314 312 314 315 315 316 314 312 309 310 310 308 306 309 310 309 310 313 315 316
309 307 311 312 310 308 302 309 311 312 311 311 311 311 311 312 312 312 313 312 311 311 312 312 310 313 314 313 312 313 314 314 311 313 307 306 309 307 305 307 309 311 313 315 315
308 310 312 312 308 304 311 313 312 311 311 310 311 311 311 311 312 311 312 311 311 311 311 311 310 308 311 309 310 310 311 314 310 309 310 307 308 305 306 308 311 312 314 315 315
308 305 308 312 311 310 311 312 312 311 311 310 310 310 311 311 311 311 312 311 310 310 309 310 310 309 308 311 309 310 311 311 309 308 311 308 309 308 307 307 308 311 312 314 314
302 305 304 303 308 307 309 311 312 312 310 311 310 310 310 311 310 311 311 311 310 309 310 309 309 310 310 311 311 310 311 310 306 309 306 310 308 309 307 306 308 310 314 314 312
301 301 301 303 305 307 308 311 313 311 311 311 310 310 310 311 310 311 311 310 310 309 310 308 305 302 301 309 309 309 310 310 309 309 309 309 310 308 309 309 311 311 313 313 311
295 300 302 301 303 305 308 307 310 309 312 311 311 310 310 311 311 310 310 309 309 309 308 310 305 303 306 309 308 306 308 309 309 309 310 310 309 309 309 310 311 312 313 313 313

GFSSW_850_thetae_072.txt.gz
Theta_e
308 308 309 307 306 305 305 305 305 305 305 304 305 307 308 308 310 309 308 306 315 317 318 317 316 317 325 321 323 324 326 326 326 328 326 325 324 323 321 322 325 334 340 341 343
308 308 307 306 306 305 305 305 304 305 305 302 305 305 306 306 308 308 309 306 315 317 317 317 317 315 323 324 322 322 326 325 323 324 325 324 324 323 322 325 338 339 341 343 343
309 308 307 306 307 306 305 305 304 305 304 303 303 304 305 305 306 306 308 308 307 317 317 315 316 316 321 323 322 321 321 320 322 321 321 323 323 324 321 318 333 339 340 341 341
306 307 307 305 305 305 305 303 303 304 302 302 303 303 304 305 308 307 310 312 311 312 316 316 315 319 320 321 322 320 319 322 322 323 321 323 323 322 319 321 322 323 327 333 338
306 306 306 305 304 305 303 300 304 303 302 302 302 302 304 305 306 307 306 310 314 310 316 317 315 320 319 320 321 320 319 319 319 321 320 320 322 322 317 323 322 328 331 328 332
306 304 306 305 305 304 303 298 302 301 301 303 303 302 303 305 305 307 307 311 313 313 316 318 315 318 319 320 320 321 320 319 319 318 319 322 320 320 320 321 331 332 334 334 334
305 302 306 304 303 304 300 300 301 300 302 302 303 302 303 302 304 307 307 308 312 313 315 316 316 317 318 317 320 320 320 319 319 319 318 318 319 319 320 319 321 322 322 322 327
303 303 304 305 304 301 300 301 300 300 300 302 303 303 302 305 305 305 306 307 307 312 316 316 316 314 316 318 318 319 318 320 318 318 319 317 319 317 318 318 319 320 320 320 320
303 300 303 304 304 301 301 301 301 301 301 301 303 303 304 304 305 306 304 306 306 311 315 316 316 315 316 317 317 319 319 318 318 318 319 316 317 316 317 317 318 319 319 319 319
303 300 302 303 301 302 303 303 304 304 304 305 305 303 304 305 305 306 304 305 308 313 313 316 316 313 314 315 319 319 318 318 318 318 318 318 317 316 317 316 317 319 320 319 319
303 302 301 302 301 302 303 304 305 304 305 304 304 304 305 305 307 306 305 305 310 313 316 316 317 316 315 315 315 317 317 318 317 316 317 319 317 317 317 317 315 317 318 319 318
304 303 301 302 302 301 300 301 303 303 304 305 305 305 305 306 307 306 307 309 312 313 315 317 317 314 315 316 317 317 317 316 314 314 316 316 318 316 316 316 316 317 318 318 316
305 304 303 302 303 303 301 302 302 303 304 306 306 305 305 308 307 308 308 310 311 311 315 317 316 315 316 317 318 317 315 315 315 314 314 315 315 315 314 315 316 316 317 317 316
306 306 305 304 304 303 303 302 302 303 303 308 307 307 308 306 309 307 310 311 311 310 313 316 314 315 316 317 316 319 314 315 314 315 316 313 315 310 314 315 313 315 315 315 314
307 307 306 306 305 305 305 304 304 305 309 307 309 310 310 309 309 310 310 311 312 312 314 314 316 315 317 316 315 317 317 315 314 313 313 313 313 311 310 313 313 310 314 314 314
307 308 307 306 306 305 305 304 304 299 309 309 309 312 312 311 312 310 310 310 312 313 312 312 311 312 313 313 315 315 315 313 313 315 314 313 312 311 310 311 312 308 311 312 313
307 308 309 308 307 306 306 305 300 305 305 312 313 313 312 314 314 311 311 315 315 313 314 312 311 311 311 312 312 316 313 317 319 319 316 311 312 314 310 310 311 308 311 314 314
308 308 308 310 309 307 307 300 304 308 308 307 311 313 315 314 313 314 314 313 312 310 312 313 316 313 311 312 312 315 315 311 316 315 312 310 314 314 308 308 311 312 314 315 315
308 309 309 308 310 309 307 301 303 302 305 311 311 313 315 315 314 313 314 314 313 310 311 312 313 310 310 313 312 314 316 313 308 307 306 309 308 307 309 309 311 313 314 316 316
310 311 310 310 311 309 303 304 307 308 309 311 312 312 314 314 315 313 313 313 313 311 311 310 314 311 312 312 312 314 314 314 305 309 312 310 308 311 310 309 311 312 313 315 316
309 313 311 311 312 308 302 300 310 312 311 311 311 312 311 312 312 312 311 311 311 312 311 312 309 312 312 313 314 314 315 313 311 308 309 310 308 304 308 310 312 312 314 316 316
307 304 311 312 309 305 302 307 311 312 311 310 310 311 311 310 311 312 312 311 310 310 311 311 309 312 314 313 312 314 315 312 311 314 305 304 307 304 304 308 311 311 314 315 315
308 310 311 312 305 302 308 312 311 311 310 310 310 310 310 311 311 311 312 311 310 310 310 310 306 313 312 310 312 313 313 315 310 305 302 306 307 305 305 306 310 311 312 315 315
307 302 306 310 309 308 308 310 311 311 310 310 309 309 310 311 310 311 311 310 310 310 309 309 308 307 310 308 308 308 310 313 314 311 308 307 309 308 307 308 309 312 313 315 315
301 302 302 298 302 304 306 309 311 311 310 310 309 309 309 310 310 310 311 310 310 310 309 307 308 309 308 310 309 309 310 309 308 311 312 313 308 309 308 308 309 312 313 314 314
300 300 300 300 302 303 306 309 311 311 311 310 309 310 309 308 311 310 310 309 309 309 309 306 304 301 301 308 309 308 309 309 308 308 309 308 310 308 308 307 308 309 311 312 313
296 298 301 299 300 303 304 301 305 307 310 311 310 310 310 310 310 310 309 308 308 308 307 308 304 301 304 308 306 307 308 308 309 308 309 310 309 308 307 308 309 309 309 313 314

GFSSW_850_thetae_075.txt.gz
Theta_e
308 308 308 308 307 307 305 306 304 304 305 306 303 305 307 307 309 310 309 306 314 317 317 316 317 318 323 323 323 324 324 324 323 326 326 324 323 324 323 321 329 334 340 340 342
308 308 306 307 306 306 305 305 303 305 305 304 302 305 306 308 308 309 310 308 307 317 317 318 317 316 322 322 322 324 324 324 322 323 324 324 323 323 323 320 329 340 341 343 343
308 308 307 306 306 305 305 303 303 304 305 303 303 302 305 306 307 307 308 310 306 314 317 317 317 316 321 322 321 321 324 322 322 322 323 322 323 322 322 317 322 339 342 343 343
307 307 306 306 307 304 304 299 303 304 301 302 303 302 302 305 307 308 309 311 313 310 317 316 316 316 321 323 321 320 321 322 322 323 322 323 321 321 322 321 321 322 340 340 342
307 307 305 305 304 304 303 299 304 302 302 302 302 302 305 305 306 307 308 309 310 313 314 316 316 316 319 320 322 319 319 320 321 320 319 318 319 318 319 321 319 322 335 336 337
306 306 305 304 304 303 301 299 302 301 301 302 303 302 302 303 305 306 308 310 309 311 311 316 315 317 319 319 321 321 319 321 320 320 319 320 319 319 322 321 320 329 332 336 336
304 303 306 304 301 300 299 299 300 301 301 302 303 302 302 302 304 306 308 311 313 313 310 316 315 317 318 318 320 320 320 318 319 319 319 320 322 320 321 320 318 328 333 332 333
303 301 303 304 301 300 300 301 300 301 299 302 302 302 301 305 306 305 305 307 311 313 313 315 315 316 317 317 319 318 318 320 318 318 318 320 322 321 320 319 318 319 319 327 332
303 300 301 302 301 301 301 301 301 301 301 302 304 303 303 305 305 305 305 306 307 312 314 314 316 315 316 315 317 318 317 319 318 318 318 317 318 320 320 320 316 318 319 318 319
304 302 301 301 302 302 303 304 303 304 304 305 304 303 303 304 305 305 304 306 307 311 314 316 316 313 312 315 319 317 318 317 319 318 318 317 316 316 317 316 316 317 319 318 319
305 303 301 301 300 300 302 304 304 303 304 305 305 304 305 307 307 306 305 306 308 313 314 316 316 315 313 314 314 315 316 318 317 316 318 318 317 317 318 316 315 316 316 319 319
306 305 303 302 302 301 301 301 302 303 304 305 305 305 305 306 306 306 306 309 311 314 313 315 316 313 314 314 316 316 316 316 315 314 317 317 318 316 316 316 317 317 316 317 318
306 306 305 303 303 303 301 302 303 304 305 307 306 306 306 307 306 307 308 311 311 312 312 315 315 314 316 316 317 315 315 315 316 314 313 315 316 316 316 315 316 317 317 315 317
307 307 306 305 304 303 303 302 302 303 305 308 309 306 307 307 308 307 309 311 310 311 311 316 314 315 315 317 315 318 314 315 313 315 316 314 317 311 314 314 312 316 317 317 315
307 308 307 306 305 305 305 304 303 305 305 308 309 310 308 309 308 309 310 311 311 311 311 313 315 315 316 316 315 315 316 314 314 314 314 313 314 313 309 311 313 314 315 316 315
307 308 308 308 307 306 305 304 304 299 306 310 310 311 312 311 311 310 310 311 311 311 312 313 311 312 313 313 315 315 313 313 313 312 311 313 314 312 310 309 310 311 313 315 315
307 308 309 309 308 307 306 305 300 304 304 308 313 312 312 313 312 310 310 313 313 313 314 313 312 312 311 312 312 315 314 319 317 317 314 310 312 315 309 308 308 309 310 312 313
307 308 308 307 309 308 306 299 304 305 305 306 310 313 314 314 313 313 314 314 311 310 313 313 317 313 311 311 313 315 312 313 316 315 312 309 313 313 309 310 310 311 312 311 312
308 310 309 309 309 308 306 301 301 299 303 310 310 312 315 314 314 314 314 313 312 309 311 309 312 310 311 312 311 313 317 309 307 305 304 308 307 306 306 307 308 309 310 311 313
310 310 311 311 310 308 302 305 307 306 308 310 312 310 313 314 315 314 313 312 312 311 310 308 310 311 312 313 312 313 312 315 306 312 311 309 308 310 308 308 308 309 311 313 314
311 311 312 311 310 307 303 300 309 311 310 311 310 311 310 311 313 311 312 311 311 311 310 308 309 312 311 314 315 315 316 315 313 307 309 311 308 303 305 306 308 310 312 314 315
308 304 311 312 308 302 301 306 310 311 311 310 309 309 310 310 310 310 310 310 310 311 312 310 308 311 312 313 311 312 314 314 309 312 303 302 307 305 303 303 309 311 313 315 316
308 310 309 310 302 302 306 310 310 310 310 309 309 309 309 310 311 310 310 310 310 309 310 310 310 313 313 311 313 314 314 315 310 303 300 307 309 305 304 306 310 311 314 315 315
306 299 304 308 306 306 307 308 311 311 309 310 308 308 309 310 308 310 310 309 310 310 309 310 307 309 311 310 309 313 312 313 314 307 307 305 309 309 308 307 308 311 314 315 315
302 301 300 296 299 302 304 307 310 311 310 309 309 309 310 309 309 309 309 310 309 309 308 308 309 307 306 306 307 308 308 311 313 313 312 313 309 309 307 307 308 311 312 313 314
300 299 300 299 300 301 304 306 309 307 309 310 309 308 309 308 308 309 309 309 308 307 307 305 304 302 302 307 308 308 308 308 311 312 313 312 308 308 308 307 308 310 312 313 314
299 299 300 298 298 300 302 300 301 303 307 309 309 310 309 309 309 310 309 308 307 307 306 306 303 301 304 307 306 306 307 307 308 308 309 309 311 308 307 306 308 309 311 312 312

GFSSW_850_thetae_078.txt.gz
Theta_e
309 308 307 307 309 307 305 305 305 303 304 305 304 303 305 308 308 311 310 307 312 317 317 317 320 319 322 322 322 323 322 320 321 324 324 323 323 323 323 322 321 333 339 339 342
309 307 307 307 309 306 304 305 302 304 304 304 303 303 306 307 306 307 309 309 308 316 316 316 316 317 321 322 322 321 322 321 320 323 324 323 323 323 323 322 323 325 340 341 342
308 306 307 306 307 304 304 299 303 304 302 302 303 302 305 306 306 307 308 310 310 311 316 317 316 316 319 321 320 322 322 321 322 322 323 323 323 322 322 320 318 321 321 340 342
307 307 307 305 304 304 302 299 304 302 301 301 302 303 303 305 307 308 309 310 312 312 316 316 317 316 319 320 320 321 321 321 322 322 323 323 322 320 320 322 322 320 321 336 343
306 307 307 305 303 300 298 299 303 302 302 302 303 302 304 305 305 307 308 308 311 314 314 315 316 315 318 320 320 318 320 322 322 321 319 319 320 318 320 322 323 321 325 335 336
307 304 305 303 300 299 298 298 300 300 301 302 302 302 302 302 305 306 308 308 310 313 313 315 315 316 318 320 320 319 319 321 320 320 319 319 320 320 322 322 322 321 324 335 333
305 301 304 303 300 300 300 299 299 300 301 302 302 302 302 303 304 306 306 308 310 310 313 315 315 316 318 318 320 319 321 318 319 319 320 319 320 321 321 320 320 321 319 332 333
304 301 301 302 300 301 300 300 300 300 299 302 302 302 303 305 305 305 305 307 310 313 311 315 314 316 316 317 318 319 319 321 318 320 319 319 321 320 319 319 320 321 319 322 333
304 302 301 301 301 302 301 301 301 301 301 303 303 303 303 305 305 304 305 306 310 312 310 314 315 315 315 315 317 317 321 318 318 319 320 320 319 320 318 319 320 319 320 317 327
305 304 301 301 301 302 303 303 303 304 304 304 303 302 304 305 305 305 306 307 308 311 311 314 315 312 313 314 318 320 318 318 317 317 319 320 316 320 319 318 320 319 319 317 318
305 305 303 302 301 300 302 303 303 302 305 304 305 304 304 307 306 305 306 307 309 312 313 312 315 314 312 313 312 314 315 316 316 316 317 319 317 319 318 318 318 319 318 316 318
306 306 304 302 302 301 301 301 303 303 304 306 305 305 306 306 305 305 307 309 310 313 311 313 315 311 313 313 315 315 315 316 315 315 317 317 318 316 316 316 318 318 317 317 317
306 307 306 304 302 303 302 302 303 303 305 307 306 306 306 306 306 306 310 310 311 311 311 313 314 313 315 315 315 314 314 314 315 313 314 315 317 316 316 316 316 316 316 317 316
306 307 306 305 304 304 303 302 302 303 299 308 308 306 307 307 307 309 310 310 310 312 310 314 314 314 315 316 314 317 314 314 314 314 317 314 319 313 316 315 313 315 316 317 317
306 307 307 306 305 305 305 304 304 304 303 308 310 308 307 307 307 309 310 311 311 311 311 313 315 314 315 316 314 315 315 314 313 312 313 313 314 314 310 311 314 315 315 316 316
307 308 308 308 307 306 305 304 304 299 305 310 310 311 311 310 310 309 310 311 310 312 313 313 311 312 313 313 314 314 313 312 311 310 316 311 313 314 312 310 310 310 313 315 316
307 308 308 308 308 306 305 305 299 303 303 309 313 311 312 312 311 310 311 311 310 310 314 313 313 312 311 312 313 313 315 313 312 317 316 309 311 315 311 308 308 309 311 313 315
308 308 308 308 308 306 305 298 304 305 305 306 310 312 314 313 312 311 313 313 312 311 314 316 317 313 311 311 314 313 313 311 314 314 311 308 312 312 309 310 311 312 311 312 312
308 309 310 309 308 307 304 300 302 300 302 309 309 314 313 314 313 313 312 313 311 309 311 310 313 311 312 312 311 313 313 308 310 303 304 308 307 306 305 305 306 308 308 310 311
309 310 310 310 309 307 300 305 304 304 307 309 311 309 313 313 312 313 313 311 312 309 308 309 309 312 311 312 312 313 310 314 310 313 312 309 307 309 308 307 306 307 309 309 309
310 310 310 311 309 306 300 298 307 309 309 310 310 310 309 312 312 311 311 310 310 310 309 307 307 312 312 313 315 315 315 312 310 307 308 310 309 303 306 305 303 306 310 310 310
308 303 309 310 306 300 300 305 309 310 310 309 309 309 309 309 310 310 310 310 310 311 311 309 306 308 312 312 311 313 314 314 315 312 304 301 310 304 303 302 303 307 311 311 312
308 308 308 309 301 299 304 308 310 310 309 308 309 308 308 309 310 308 309 309 310 310 310 308 307 310 314 311 312 313 313 313 311 306 302 313 312 304 304 305 308 310 312 313 313
305 299 303 305 303 305 305 306 309 309 309 309 307 307 308 308 307 309 309 309 309 309 310 311 309 308 308 308 309 314 311 312 313 315 313 309 309 308 307 307 307 310 312 314 315
303 300 299 296 298 300 303 305 308 310 309 309 308 307 308 309 308 308 308 309 309 309 309 310 309 308 308 306 308 309 311 312 313 314 314 310 308 309 309 307 307 310 312 313 314
302 300 299 298 298 300 302 306 304 304 306 308 308 307 308 308 307 308 308 308 308 306 306 305 308 303 303 306 306 308 307 308 311 312 313 312 312 310 308 308 307 308 310 313 314
300 300 300 297 297 297 300 300 300 300 300 305 301 300 305 309 308 308 308 308 306 306 305 305 304 303 306 306 305 305 307 307 307 308 311 313 312 309 307 307 307 308 309 312 313

GFSSW_850_thetae_081.txt.gz
Theta_e
309 309 309 307 308 307 304 305 301 302 304 304 304 303 305 306 308 307 310 307 310 315 316 315 319 319 321 323 322 322 323 325 323 322 324 323 324 323 322 322 327 330 334 338 341
309 308 307 308 306 304 303 299 302 304 303 303 302 303 305 307 307 308 308 309 312 314 316 315 318 319 321 322 322 322 323 321 319 322 325 323 323 323 323 319 320 321 325 338 345
308 307 307 308 304 303 301 302 304 302 301 301 302 302 304 307 307 307 306 309 312 314 315 316 317 317 319 321 321 322 324 321 322 323 323 323 322 322 322 320 320 321 321 332 338
308 306 307 309 300 299 298 305 303 301 301 301 302 303 303 305 307 308 308 309 311 313 314 317 316 316 318 320 320 323 320 322 322 322 323 322 321 320 321 323 322 322 321 327 339
308 304 306 304 300 299 299 298 301 301 302 302 302 301 303 304 305 307 306 309 309 313 312 316 316 316 318 319 319 319 321 322 321 320 318 320 320 320 321 321 321 322 321 323 334
307 303 307 305 300 300 300 299 299 300 302 302 301 301 302 302 305 306 306 308 309 312 312 315 316 315 317 319 319 319 321 321 320 319 319 320 320 321 320 321 322 322 322 321 328
306 303 301 305 302 300 300 300 300 301 300 301 301 302 304 304 304 306 305 308 310 310 313 315 315 316 317 318 319 319 320 319 320 319 320 318 321 321 321 321 321 322 322 321 319
305 304 301 301 301 301 301 300 300 300 299 302 302 302 304 305 305 305 305 307 310 311 313 315 315 316 316 317 318 320 319 322 319 319 319 318 323 318 319 319 321 321 321 321 319
305 305 302 301 301 301 302 301 302 302 302 303 303 303 303 304 304 304 305 308 310 312 311 314 314 315 315 316 319 318 321 319 320 318 320 319 320 318 318 319 320 321 321 321 320
305 305 304 301 301 300 302 303 303 304 304 303 304 301 304 306 305 306 306 308 309 312 312 314 314 314 314 315 320 320 320 318 319 320 319 320 320 320 318 319 320 320 321 321 320
305 306 305 302 302 301 301 303 303 303 305 305 305 304 305 306 305 305 306 308 309 311 310 313 314 316 313 314 313 315 317 317 316 316 320 321 320 319 319 318 320 320 320 319 320
303 307 306 304 302 302 301 302 303 304 305 306 305 305 306 306 305 306 307 308 310 311 310 311 315 311 312 314 315 315 315 316 315 315 319 318 320 317 319 319 318 319 320 319 320
302 307 307 305 303 303 302 302 302 304 305 307 307 306 306 306 306 308 309 310 310 310 311 312 313 312 314 315 315 313 315 314 316 314 314 317 319 317 316 317 318 318 320 320 319
302 307 307 306 305 303 303 302 302 303 303 309 308 307 307 307 306 309 310 309 310 311 311 314 313 314 314 314 314 316 313 313 314 316 320 313 322 315 317 317 316 317 318 320 319
301 307 308 307 305 305 305 304 304 304 307 308 310 307 307 306 307 308 310 311 310 310 311 313 315 314 315 315 313 314 313 313 312 313 314 313 317 314 312 317 316 315 316 317 316
302 307 307 308 307 305 304 304 303 299 305 310 310 311 310 310 309 309 310 310 311 311 311 313 311 312 313 312 313 312 312 312 310 311 316 313 315 315 313 313 312 315 317 317 318
305 307 308 308 307 305 305 305 300 303 302 308 310 311 311 310 309 310 312 310 311 311 314 313 313 312 311 313 313 314 313 316 315 316 315 309 312 315 313 310 310 311 311 313 315
307 309 310 309 307 306 305 301 304 305 304 306 310 312 313 311 310 310 312 311 310 310 314 316 315 314 311 311 313 314 314 313 315 315 313 308 314 314 310 309 311 311 310 310 311
308 309 310 310 308 306 304 301 302 299 301 308 309 314 311 313 312 310 313 311 310 309 313 313 314 311 312 311 311 313 316 308 310 304 308 310 308 307 306 307 307 308 309 310 311
309 309 310 310 308 306 300 305 304 303 305 309 310 308 312 313 311 312 311 310 311 308 308 309 311 312 312 312 311 313 309 314 313 314 314 310 308 312 309 308 307 306 307 309 310
309 309 309 309 308 305 300 299 306 308 309 309 309 309 308 311 311 310 309 309 310 309 308 307 308 312 312 314 315 315 315 312 310 309 313 311 310 305 307 307 305 304 305 308 310
308 303 308 308 305 299 299 305 308 309 309 309 308 308 309 308 313 309 309 308 310 310 311 307 307 312 313 312 311 313 313 314 316 312 305 305 312 305 303 303 303 304 309 310 310
307 307 306 307 298 297 302 306 309 310 308 308 308 307 307 308 310 308 308 308 310 310 310 308 309 312 312 311 311 313 313 314 309 309 304 312 312 304 304 305 307 309 310 311 310
304 299 302 304 304 303 305 305 307 308 309 308 307 307 307 308 307 309 308 308 309 311 311 310 309 308 311 308 308 311 312 312 313 314 311 311 311 310 309 307 306 309 311 312 312
303 299 299 295 297 300 302 304 307 308 307 307 308 304 307 309 307 307 307 308 307 309 311 312 313 309 308 307 309 309 310 310 312 312 313 311 310 310 309 309 307 308 309 312 313
302 300 299 297 298 299 301 304 304 303 303 306 307 301 306 308 309 308 308 308 308 306 307 306 311 305 305 307 306 307 308 309 310 311 311 312 312 311 310 309 309 310 309 309 313
301 301 300 296 296 296 298 301 300 298 299 302 300 299 300 302 306 304 304 305 308 306 305 306 307 307 310 306 305 305 307 308 309 309 311 312 311 310 310 309 310 311 311 310 310

GFSSW_850_thetae_084.txt.gz
Theta_e
308 306 309 309 307 304 303 299 302 304 304 304 303 303 304 305 307 308 310 309 312 314 316 316 319 321 324 324 324 323 327 328 327 326 325 325 325 324 323 326 327 326 329 334 339
309 307 307 307 305 301 299 305 306 303 301 301 302 302 305 306 307 308 307 308 312 314 316 316 318 319 321 323 324 324 326 327 324 324 325 325 325 325 324 326 325 325 325 337 343
308 307 307 307 300 299 298 306 302 301 301 302 301 302 304 307 308 308 307 308 311 314 315 316 317 318 319 322 323 323 325 323 323 323 324 325 325 325 324 325 324 323 323 335 341
308 307 307 306 300 299 298 300 301 302 302 302 302 302 304 305 308 308 308 309 311 313 314 316 317 318 319 321 322 324 323 323 325 325 325 325 324 324 325 324 323 322 323 329 339
308 307 306 306 301 300 300 299 300 301 302 302 301 302 303 305 306 306 306 308 309 313 314 315 316 316 318 319 321 322 323 323 323 323 323 323 324 324 323 322 321 322 323 324 330
306 307 303 307 304 301 300 300 300 300 301 301 301 302 303 305 305 305 306 308 310 313 314 315 316 315 317 319 321 320 322 323 322 322 321 323 324 323 324 322 322 322 323 323 322
306 307 304 302 303 301 301 300 300 299 299 301 301 303 305 305 305 306 305 308 310 313 314 314 316 316 316 319 319 320 322 323 322 322 323 321 324 324 323 322 323 323 323 323 322
305 306 306 301 301 301 302 300 300 300 299 301 301 303 305 304 305 304 306 308 310 310 313 314 315 316 317 318 320 320 320 323 322 322 322 321 326 323 322 322 322 322 323 323 322
303 306 305 302 301 301 302 302 303 305 303 302 302 303 304 304 304 305 306 309 310 312 312 314 313 316 317 320 321 321 321 320 323 322 322 322 323 321 320 320 321 322 322 323 323
298 305 306 304 301 301 301 302 303 305 303 302 304 304 305 306 305 306 306 309 311 312 313 313 315 317 318 320 321 321 320 320 320 321 321 322 322 321 321 320 321 321 323 323 323
298 305 306 304 302 302 302 303 303 305 306 305 305 305 306 305 305 307 307 309 311 312 312 310 316 317 316 318 317 319 319 320 319 320 321 321 322 321 320 320 320 321 322 322 323
298 305 307 305 303 302 302 303 303 305 307 306 305 306 306 305 305 308 308 309 311 312 311 311 316 315 315 316 316 318 318 318 318 318 321 321 322 320 320 320 319 320 321 322 322
299 306 307 306 304 303 303 302 303 305 309 308 307 307 307 306 307 309 310 310 311 311 312 313 314 314 315 316 317 317 317 318 318 318 320 319 320 321 320 319 320 319 321 323 322
300 307 307 307 305 304 304 302 302 304 313 309 309 307 308 306 309 309 309 310 310 311 312 314 313 314 316 316 317 318 317 317 318 319 320 319 321 320 320 319 320 319 319 320 322
301 307 308 308 307 306 305 304 305 304 316 309 310 307 307 307 308 310 310 311 311 311 313 315 314 315 316 316 316 316 316 317 317 319 319 318 320 319 318 319 319 319 318 318 320
302 307 308 308 307 306 304 304 304 311 314 311 311 311 310 310 309 309 311 311 312 313 312 313 313 314 314 315 315 315 316 316 316 317 319 316 319 318 318 317 317 318 318 318 318
307 309 309 308 307 305 304 305 313 316 306 310 311 311 311 311 310 310 312 312 314 314 315 314 314 314 314 316 315 316 317 319 320 320 317 314 317 316 316 316 316 316 316 317 317
308 310 310 309 306 306 305 307 318 310 311 308 310 311 313 311 311 310 311 312 312 313 314 317 316 315 314 316 317 316 316 316 316 315 315 312 316 315 315 314 314 314 313 311 312
308 309 310 309 307 306 305 318 312 310 308 311 311 313 313 313 312 312 311 311 312 313 316 317 315 312 313 313 315 317 318 314 316 310 316 315 315 314 315 314 313 312 311 312 312
309 309 309 309 306 306 309 311 310 306 307 311 313 312 313 313 312 311 312 311 313 312 311 314 315 313 313 313 313 315 314 316 317 318 317 315 314 314 313 313 313 312 311 309 310
308 309 308 308 306 306 316 311 309 308 309 311 311 312 312 313 313 312 313 312 312 312 310 311 313 314 313 315 317 314 315 315 314 315 317 314 314 313 312 312 311 312 309 310 310
310 311 307 308 309 306 312 308 308 310 309 311 310 311 311 311 313 313 314 313 312 311 312 310 312 314 314 313 313 315 314 315 316 315 314 314 315 310 310 309 309 311 312 312 311
307 307 305 306 312 310 306 307 309 311 310 310 310 310 310 311 312 312 312 311 311 312 313 310 315 315 314 313 313 315 315 315 315 313 316 316 315 309 309 309 310 312 313 313 311
305 309 302 303 304 306 306 307 309 308 310 309 310 309 309 310 310 311 311 310 310 312 311 311 313 314 315 313 313 314 313 314 316 318 315 316 314 313 312 313 311 311 311 313 312
303 303 301 308 303 304 304 305 307 308 309 307 310 309 310 309 309 310 310 310 309 311 312 311 314 313 311 310 311 312 313 314 315 315 315 314 313 312 312 313 312 311 310 311 313
302 302 299 299 300 302 302 305 307 306 304 307 308 306 304 308 309 311 307 309 311 309 312 311 313 311 313 312 311 312 312 312 313 313 313 313 314 312 312 312 312 311 311 310 311
301 300 301 298 300 301 302 304 303 300 301 301 302 302 302 302 302 304 304 303 301 307 311 311 311 311 314 310 310 313 311 311 311 312 313 315 313 312 312 312 312 312 311 312 312

GFSSW_850_thetae_087.txt.gz
Theta_e
310 309 309 309 308 300 300 306 307 303 301 301 302 303 303 305 306 308 311 311 313 314 315 318 319 319 322 323 325 325 330 329 326 326 326 325 325 326 325 328 328 330 332 334 339
309 308 306 308 305 299 300 306 302 302 301 302 302 303 303 306 309 309 309 309 311 313 317 318 318 318 321 319 324 325 329 327 325 325 326 326 324 324 326 327 328 327 331 337 342
308 308 308 307 306 300 299 302 304 302 302 302 301 302 304 307 309 309 308 307 309 314 317 318 318 317 318 320 323 324 327 325 325 325 325 327 325 325 324 327 327 326 329 338 342
308 308 304 308 304 300 300 299 300 301 302 301 301 302 303 308 309 307 308 308 310 314 315 318 318 317 318 322 321 325 324 324 324 325 325 326 325 325 324 326 325 325 327 335 341
308 307 306 304 307 302 301 300 300 300 301 301 301 301 306 306 306 305 306 308 310 313 316 318 317 317 317 319 322 323 323 323 325 325 324 324 325 325 326 325 324 324 326 329 337
307 307 306 301 305 303 301 300 300 300 300 300 301 304 306 306 306 306 306 309 311 314 316 316 316 316 316 317 321 322 323 323 324 324 324 325 325 325 324 325 324 324 325 326 327
306 307 306 303 301 301 302 300 300 300 299 300 301 303 305 305 306 306 306 309 310 314 315 314 315 316 316 318 319 320 323 323 323 323 324 323 325 326 324 324 324 324 324 325 326
302 305 306 304 301 301 302 301 304 305 302 302 301 306 305 305 306 307 308 309 312 314 314 312 315 317 318 318 319 320 321 325 323 323 323 323 324 323 323 324 324 323 324 324 325
300 301 306 305 302 301 301 302 303 305 302 303 306 305 305 306 306 307 309 310 312 313 311 312 315 316 318 320 321 320 321 322 323 322 322 323 323 322 323 324 324 323 323 324 324
300 302 307 305 303 302 302 303 304 307 305 305 306 306 306 306 306 308 309 311 312 312 312 312 315 316 317 319 320 320 319 319 321 323 323 324 323 322 322 322 322 322 322 323 324
300 302 307 306 303 302 302 304 307 308 307 306 307 307 307 307 307 308 309 312 312 313 312 310 316 317 316 317 317 317 318 318 318 320 322 322 322 322 321 321 322 322 322 322 323
301 304 307 306 304 303 302 306 305 308 308 308 307 307 307 307 309 310 310 311 312 314 313 314 318 316 316 316 318 319 318 319 319 319 320 320 320 320 320 321 321 321 321 322 323
301 305 307 306 304 304 305 304 303 307 310 309 308 308 308 308 309 310 311 311 312 312 314 315 316 315 316 317 318 318 318 319 319 319 319 320 321 320 320 320 320 320 320 321 322
302 307 307 307 307 306 306 303 303 305 313 310 309 309 309 308 310 309 311 312 312 312 313 314 314 315 316 316 316 318 317 317 318 319 321 319 319 318 319 320 320 320 320 320 322
302 307 308 308 307 308 306 305 303 306 318 310 311 308 310 309 309 311 311 312 311 312 314 316 315 315 316 316 316 317 317 318 318 319 319 320 320 319 319 320 320 320 320 319 320
304 308 309 308 307 306 304 305 305 312 315 311 311 311 310 310 309 310 312 312 312 313 313 314 314 314 315 316 316 317 317 317 318 318 322 319 319 318 319 319 319 319 319 319 319
307 310 309 308 309 305 305 307 313 319 308 312 312 312 311 311 311 310 312 313 315 315 316 314 316 315 315 317 316 316 317 320 319 320 319 316 316 318 317 317 317 317 317 319 319
308 310 309 308 306 305 307 310 319 313 313 311 312 312 312 312 311 310 312 313 313 314 316 317 318 315 315 315 315 315 316 318 317 317 316 315 315 315 315 315 316 316 316 315 316
308 309 309 308 306 306 309 316 315 315 312 312 313 314 314 313 313 312 312 312 312 313 317 319 319 314 315 315 316 316 319 316 317 315 316 315 315 314 314 315 315 315 315 315 315
308 310 309 308 306 307 312 314 313 310 310 312 314 313 313 314 313 313 312 312 312 312 314 316 317 315 314 314 315 317 315 317 318 317 315 313 315 314 314 314 315 314 313 313 312
308 312 308 308 306 310 311 313 312 311 311 313 313 312 313 313 313 313 313 312 312 313 312 313 315 315 314 316 315 316 316 316 316 314 315 314 315 314 314 314 314 314 313 313 313
310 314 307 307 312 312 314 310 309 311 311 312 312 312 312 312 312 313 313 314 313 313 313 313 315 318 315 314 315 314 314 314 317 316 315 315 316 312 313 312 312 314 315 315 314
310 310 305 306 315 313 308 309 310 312 312 312 312 311 311 311 311 311 312 311 312 313 313 312 315 316 316 315 314 316 317 316 315 315 320 317 316 312 312 312 312 314 313 313 314
308 311 304 306 306 308 307 307 308 310 311 310 311 311 310 310 310 310 310 311 311 312 313 313 314 314 316 315 314 314 314 315 317 319 316 317 315 314 313 312 312 312 313 313 313
305 308 307 310 306 306 306 306 306 307 309 310 309 310 309 309 306 306 307 309 310 311 312 310 314 314 314 311 313 314 314 314 316 316 317 316 315 314 314 313 313 314 313 312 312
305 305 301 303 303 305 304 307 307 306 307 304 307 306 306 304 303 303 305 307 310 310 310 311 314 313 314 313 312 313 313 314 314 314 314 315 315 313 313 313 313 313 312 312 312
301 301 305 301 304 305 305 305 305 303 302 302 303 303 302 302 301 301 302 304 305 304 307 308 311 313 316 314 313 315 313 314 313 313 314 316 314 313 313 313 312 312 312 312 312

GFSSW_850_thetae_090.txt.gz
Theta_e
309 310 310 310 307 302 299 306 305 302 302 302 302 302 302 305 306 309 310 311 311 314 314 315 318 319 317 324 325 326 329 329 328 327 325 325 326 326 327 328 329 331 337 339 341
309 309 309 309 308 304 300 300 306 304 301 301 301 302 302 307 309 309 309 309 308 312 316 315 318 319 320 319 323 325 328 328 326 325 325 325 325 324 327 327 328 332 336 341 341
309 308 308 308 307 302 301 300 300 303 301 301 301 302 303 306 308 307 307 308 309 313 313 316 318 318 322 319 322 324 326 326 325 326 326 326 324 324 326 328 327 327 336 340 341
307 308 308 305 308 306 302 300 300 300 301 301 300 301 304 308 308 304 307 308 309 311 314 316 316 319 319 320 319 324 324 324 325 325 325 327 326 325 325 326 326 327 334 339 342
304 307 307 307 303 307 303 302 300 300 300 300 300 303 307 307 306 306 306 308 309 311 314 316 317 317 318 320 318 320 320 324 324 325 325 326 326 325 325 325 325 326 332 337 339
300 303 307 308 302 302 302 301 301 303 299 300 301 306 307 306 306 307 306 310 310 313 315 317 317 317 317 319 320 319 318 322 323 325 324 324 325 325 325 324 324 325 327 331 337
301 300 305 306 303 302 301 301 304 305 301 302 300 305 305 305 307 307 308 310 311 313 316 316 316 318 317 317 320 319 319 322 324 324 324 324 325 326 325 325 324 324 325 327 328
304 299 305 306 303 302 301 302 303 304 302 301 304 307 305 305 307 308 310 310 313 315 315 314 315 316 318 318 319 321 322 322 321 323 324 324 324 324 324 325 324 325 324 325 326
303 299 306 306 304 302 302 303 307 307 302 305 306 307 306 307 307 308 310 312 314 312 313 312 313 316 318 319 319 319 322 321 322 322 323 323 323 321 323 323 324 324 323 324 325
302 300 306 307 304 302 302 304 306 307 307 307 307 307 307 307 307 309 311 312 313 312 311 312 314 316 317 319 321 319 318 319 322 322 322 324 322 320 321 323 323 324 323 323 324
302 301 307 307 304 303 303 307 309 308 307 307 307 307 307 307 309 310 311 313 312 312 312 311 316 317 316 317 316 317 317 317 319 322 323 321 322 320 320 322 322 322 322 322 323
302 302 307 307 304 303 304 307 306 308 309 307 307 307 308 308 310 310 311 312 313 313 312 314 317 315 316 316 317 318 316 316 319 320 322 320 320 319 319 320 322 322 321 322 322
303 303 307 307 305 305 306 306 305 308 311 310 308 307 308 309 310 311 312 312 312 313 314 314 317 316 316 317 318 318 317 318 319 319 318 318 318 317 317 318 320 321 321 321 321
303 305 308 308 309 307 307 304 303 308 312 310 309 309 310 309 310 310 312 313 311 313 313 315 314 315 317 318 317 318 317 318 319 319 319 317 318 317 317 317 317 319 320 320 320
303 306 309 308 308 309 307 305 304 308 316 311 312 308 310 310 310 312 310 313 312 312 314 315 315 315 317 315 315 317 317 318 318 318 317 319 318 315 316 318 317 317 319 320 320
303 307 309 308 308 307 305 305 306 313 312 311 311 312 311 310 310 311 312 312 312 312 313 314 314 315 315 316 315 317 317 317 317 317 318 318 318 316 315 315 318 317 319 319 320
305 309 309 308 310 305 305 309 314 317 309 312 312 311 311 311 311 311 312 312 313 314 312 313 315 315 315 317 316 317 317 318 318 319 315 315 316 316 315 315 316 315 316 318 319
308 309 309 308 305 305 309 311 316 313 312 311 312 312 312 311 312 311 311 311 312 314 315 311 315 315 315 316 316 316 316 318 317 316 314 313 315 313 313 314 315 316 316 316 316
309 308 308 308 306 307 309 315 316 315 312 313 312 313 314 313 312 312 311 311 311 312 316 315 314 314 314 315 315 315 314 315 317 315 312 314 314 312 311 313 314 315 315 316 315
308 311 310 308 306 308 311 314 314 311 311 312 313 313 313 314 314 313 312 311 311 312 313 316 316 314 315 315 315 317 315 316 313 313 315 310 310 312 313 312 313 312 313 314 314
309 312 311 307 307 310 309 315 312 311 311 312 313 312 312 312 314 313 312 312 311 311 312 314 315 315 313 315 315 316 318 317 315 313 311 313 313 310 312 311 311 312 314 314 313
311 314 308 307 311 314 317 311 310 311 311 311 312 312 312 311 311 310 313 311 313 313 313 312 314 315 315 314 314 314 316 316 318 316 313 310 313 312 309 309 312 314 315 314 313
312 310 306 307 316 315 309 308 309 312 312 312 312 311 310 310 310 309 309 312 312 313 313 312 312 316 317 315 315 316 314 314 314 314 313 313 312 310 311 311 312 314 313 313 314
310 309 305 306 308 308 309 308 309 309 311 310 310 310 310 309 308 308 309 309 310 311 312 311 313 311 313 315 314 314 315 315 315 317 314 315 315 313 311 311 311 313 313 312 312
308 310 308 308 307 307 306 307 306 307 309 309 309 309 307 308 306 305 303 303 306 308 311 308 311 313 313 313 313 314 314 315 315 315 315 314 315 313 313 312 312 312 312 312 312
306 305 303 304 305 306 305 306 307 307 307 305 306 304 304 304 303 301 302 303 304 306 308 305 312 309 314 314 313 313 313 314 314 315 315 314 314 312 313 313 312 312 313 312 313
305 305 306 303 304 304 305 306 306 304 303 303 303 301 301 302 301 301 301 301 303 304 304 305 307 310 314 312 311 313 312 313 313 313 314 314 313 312 312 312 312 312 312 312 312

GFSSW_850_thetae_093.txt.gz
Theta_e
308 309 309 308 309 309 305 303 301 301 301 304 306 302 302 305 307 308 310 310 310 313 314 313 317 319 320 318 324 325 325 327 326 325 324 324 325 325 328 330 331 337 342 342 344
303 308 308 308 309 306 304 304 300 300 301 301 300 301 302 306 308 307 308 308 309 311 312 315 317 319 318 319 323 325 325 326 324 325 322 324 324 326 327 328 336 337 340 341 344
300 304 308 308 304 308 307 306 301 300 300 301 300 301 305 307 307 305 307 309 308 310 312 314 316 319 319 319 322 324 325 324 325 327 324 324 323 326 326 327 329 339 339 341 342
301 301 306 307 305 303 307 304 306 300 299 300 300 304 307 307 305 306 306 307 309 311 313 313 315 318 318 320 321 324 323 323 324 325 325 327 325 323 326 326 328 333 337 340 342
304 300 303 307 306 302 303 302 303 304 300 299 300 306 306 306 306 307 307 308 309 310 313 311 313 317 318 319 319 321 320 323 323 325 325 326 326 325 324 326 327 331 339 341 340
304 301 301 306 305 302 301 302 303 304 300 301 301 305 305 305 306 307 308 310 311 312 313 311 313 316 317 318 319 318 319 318 321 323 325 325 326 325 324 325 327 333 336 340 340
304 303 301 306 305 303 302 303 304 302 302 302 305 306 305 306 307 308 309 310 313 314 315 316 313 317 317 318 319 319 319 318 319 323 324 323 327 325 324 324 325 327 330 335 339
303 302 302 307 305 303 303 306 306 302 304 305 306 306 305 306 306 308 311 312 313 314 315 314 314 316 317 318 319 321 320 320 320 322 322 324 326 325 324 324 324 324 326 327 332
303 302 302 307 306 303 303 306 306 306 306 306 306 306 306 307 308 309 312 313 312 312 313 313 313 315 317 316 319 319 322 320 320 320 322 323 323 321 323 324 324 324 324 325 325
304 302 303 307 306 304 304 304 307 306 306 307 306 306 306 307 309 310 312 313 311 311 311 312 314 313 312 314 318 319 320 320 319 320 321 324 322 320 320 321 323 324 323 324 325
304 302 303 307 305 304 304 307 309 308 307 306 306 306 307 309 309 311 312 312 312 311 309 311 312 314 314 315 316 316 317 318 319 320 320 322 323 321 320 321 321 322 323 323 322
305 303 305 307 305 304 306 307 308 308 308 307 307 308 309 309 309 310 311 312 312 311 311 311 314 314 315 314 315 316 315 317 319 322 321 321 321 321 319 319 321 322 322 322 322
305 302 306 308 306 305 307 306 307 309 309 309 308 307 308 309 310 310 312 312 311 313 314 312 315 315 316 316 316 316 316 316 319 320 320 319 318 317 318 317 321 321 321 321 321
305 302 307 308 308 307 307 304 306 309 301 308 310 308 309 309 309 310 311 312 311 312 312 313 314 314 315 317 316 318 317 318 319 319 319 315 315 313 316 314 314 319 321 321 320
305 303 307 308 308 308 308 305 304 309 301 308 311 308 310 310 309 311 309 312 311 312 311 312 314 315 316 316 314 316 316 317 318 317 315 317 316 314 312 313 315 313 317 320 320
304 305 308 308 307 308 306 304 307 304 300 310 312 312 312 309 309 311 312 311 312 311 312 313 313 313 314 315 315 315 316 315 315 314 313 315 317 314 312 313 314 314 317 318 320
304 307 308 308 309 306 305 308 305 301 306 307 312 311 311 310 310 310 312 311 311 311 312 309 311 313 314 315 315 315 316 316 312 311 312 313 314 315 313 311 312 312 315 317 319
303 309 308 308 307 305 309 304 302 309 307 308 312 311 312 311 311 310 310 312 311 311 311 305 304 313 314 314 314 315 314 313 315 315 312 311 313 311 310 312 314 315 316 316 316
306 308 308 308 305 306 309 304 304 309 309 312 312 312 312 312 311 311 310 308 309 311 315 310 310 313 313 314 313 313 313 313 314 313 308 311 311 310 310 312 312 314 315 315 315
307 308 307 307 306 309 307 309 310 311 311 311 311 311 312 312 312 310 310 309 309 308 310 313 311 313 313 314 314 315 313 314 314 318 315 309 312 311 311 310 311 309 311 313 314
309 311 310 307 307 308 300 308 311 311 310 311 311 311 310 310 311 310 311 310 310 310 310 313 314 315 314 314 314 315 315 315 313 311 310 311 309 308 308 309 310 311 313 313 312
310 309 309 306 309 309 305 310 310 310 310 310 311 310 310 310 309 308 311 310 312 312 312 312 314 315 317 314 313 314 315 315 310 314 309 308 311 309 307 308 312 313 313 312 312
311 308 307 307 310 307 308 307 309 311 310 311 311 310 309 309 309 307 307 309 309 311 312 311 312 313 315 314 313 314 315 315 314 311 306 310 310 307 307 308 312 314 314 313 313
311 306 304 307 308 307 308 306 308 308 309 310 309 309 308 308 307 306 305 306 305 308 309 310 308 312 313 314 314 315 314 314 314 315 311 309 313 310 309 309 309 312 312 312 313
310 307 304 305 305 305 304 306 307 308 309 308 308 308 305 306 305 304 301 301 304 306 308 308 309 311 310 311 312 314 314 315 314 313 312 312 313 313 312 310 310 311 312 311 311
307 305 306 304 305 304 305 304 305 306 306 304 306 302 301 302 301 300 301 301 302 302 304 304 309 308 309 311 312 312 314 314 314 314 314 313 313 311 312 312 311 312 312 312 312
306 305 304 302 301 301 302 303 306 303 302 302 301 300 299 300 300 300 300 300 298 300 302 302 304 301 310 313 311 312 311 313 312 313 314 314 313 312 312 310 311 312 312 311 311

GFSSW_850_thetae_096.txt.gz
Theta_e
301 307 310 310 306 309 306 301 301 300 301 305 300 300 303 305 306 307 308 309 310 309 312 314 315 317 316 313 322 325 327 325 325 324 323 323 324 326 329 331 333 340 341 340 341
304 306 310 309 308 305 309 305 305 300 300 300 299 301 306 306 307 305 305 310 309 311 311 314 315 317 317 314 322 324 325 325 324 325 323 323 324 327 329 334 338 342 341 342 342
305 304 308 308 309 303 305 304 304 305 300 299 299 305 306 306 307 306 306 310 309 310 310 314 316 318 318 315 321 323 325 325 325 327 326 322 323 326 327 327 337 340 342 344 342
305 305 302 307 308 303 302 302 304 304 300 299 300 306 306 305 304 306 308 308 309 311 309 313 316 318 319 317 317 324 324 325 324 326 326 326 323 323 325 326 330 339 340 343 343
304 304 303 303 307 303 302 302 303 303 300 300 303 304 304 305 306 307 308 309 309 312 312 312 315 317 318 319 317 322 322 321 323 324 325 326 325 325 324 328 332 335 340 341 342
305 303 301 304 306 303 302 304 303 301 301 300 304 305 305 304 307 308 309 310 312 313 311 312 314 315 317 319 318 319 319 319 321 323 325 326 325 325 324 330 332 336 339 341 340
305 303 301 305 306 303 304 304 301 302 302 305 306 305 305 306 306 308 310 311 314 314 311 312 313 315 317 318 318 318 320 319 320 322 324 324 326 324 323 325 333 332 339 340 340
305 304 302 305 306 303 305 305 304 303 305 306 306 306 305 306 308 312 312 313 314 315 314 314 314 315 316 318 319 319 317 319 320 321 322 323 328 324 324 322 325 330 331 338 340
305 305 303 306 306 303 304 306 305 305 306 306 306 306 306 308 310 311 312 311 312 314 313 312 314 315 316 316 318 318 319 319 320 320 322 323 324 321 323 322 321 325 327 328 334
305 305 303 306 306 304 304 305 306 306 306 306 306 305 307 308 310 311 312 311 311 311 311 312 313 312 312 313 319 318 319 318 319 320 322 324 323 322 320 321 321 322 324 325 326
305 306 303 306 306 304 304 306 308 307 307 307 307 306 308 309 310 311 312 311 311 310 309 312 310 313 314 314 315 315 319 320 318 319 321 321 321 322 321 320 319 321 322 323 325
304 305 303 307 306 304 306 307 309 307 307 307 307 307 309 309 309 310 312 312 310 311 311 308 310 314 314 315 314 315 316 316 319 319 319 319 318 319 321 320 318 320 322 322 322
304 305 303 307 306 305 306 306 307 309 308 309 308 306 308 309 309 309 312 311 311 313 311 309 313 314 315 315 315 314 314 316 320 321 319 319 319 319 319 319 319 320 321 322 322
304 305 303 308 306 307 306 305 306 309 298 306 310 307 309 309 308 309 311 312 309 312 312 312 313 314 314 316 315 317 316 316 320 321 322 319 319 313 313 316 316 317 319 321 322
304 305 304 308 309 307 308 304 305 307 299 305 310 308 309 309 309 310 309 312 311 312 309 311 313 314 315 315 314 315 316 317 318 316 315 316 317 314 312 313 314 312 317 319 320
304 304 305 308 308 308 307 304 305 301 298 309 311 312 311 309 309 310 311 311 311 311 311 311 312 312 313 314 314 314 315 315 317 315 318 314 317 315 313 312 312 312 315 317 319
304 303 307 308 308 306 305 305 302 297 304 307 311 311 310 309 310 310 311 310 309 305 303 307 310 313 313 314 314 315 318 318 319 319 319 311 316 316 312 310 310 310 313 316 317
304 304 308 308 309 305 306 302 296 306 305 307 310 310 311 310 309 310 309 310 309 309 308 304 304 311 312 312 313 314 315 315 316 316 313 312 315 313 310 312 313 314 315 315 317
303 307 308 308 306 306 309 301 299 305 308 311 311 311 311 311 310 309 308 307 308 309 312 309 309 310 312 313 312 313 314 312 312 310 308 310 310 309 309 310 311 312 313 314 315
305 308 308 308 305 307 308 306 308 310 310 310 309 309 310 311 310 309 309 308 308 307 309 311 314 311 313 314 314 313 312 316 313 317 316 309 311 311 310 309 309 309 311 313 314
308 309 308 307 306 309 304 303 309 310 310 310 310 310 309 309 309 309 310 309 308 309 308 310 312 312 313 314 313 315 314 314 313 312 312 310 308 304 307 307 308 308 311 312 312
309 311 309 306 308 309 307 307 309 310 310 310 310 310 310 309 309 308 309 309 311 310 310 310 313 314 313 314 312 313 314 314 313 312 308 307 310 308 308 308 310 311 312 312 312
310 308 307 306 308 309 308 306 308 309 309 309 309 309 308 308 309 306 306 306 306 308 310 311 311 313 313 313 312 314 314 314 311 310 306 309 309 306 306 309 312 312 312 312 312
309 306 306 306 307 307 307 306 307 308 309 310 309 308 308 307 306 307 303 303 305 307 309 309 307 310 310 312 312 313 315 314 313 313 309 306 309 309 306 307 310 312 312 312 312
310 305 306 306 306 305 305 305 307 308 308 308 307 305 305 305 304 304 300 300 303 304 306 306 305 308 309 310 311 311 314 314 314 313 311 311 310 311 307 308 309 311 311 311 311
309 305 304 303 304 305 303 303 304 306 307 306 305 301 300 302 301 301 300 300 301 301 303 302 306 299 303 308 310 311 312 314 314 314 313 312 312 310 311 310 310 312 312 312 311
306 305 305 302 301 301 302 301 304 303 301 302 301 299 299 299 300 300 300 299 297 298 300 299 298 295 300 306 310 309 309 312 312 312 313 315 313 312 312 311 311 311 311 311 311

GFSSW_850_thetae_099.txt.gz
Theta_e
305 305 304 309 310 307 309 309 308 306 301 300 300 300 306 306 306 305 306 308 311 310 309 313 313 315 316 316 316 321 326 322 321 321 321 321 324 327 329 333 335 338 341 340 338
305 305 304 304 308 309 304 307 306 306 304 299 299 304 306 306 305 306 307 310 310 310 309 314 311 316 315 315 315 322 325 323 325 326 321 321 325 329 332 336 338 342 341 341 339
305 305 304 300 307 309 303 302 305 304 301 299 300 305 306 304 305 307 308 310 310 310 310 314 315 316 316 314 313 322 324 325 325 327 326 322 324 326 330 331 338 342 342 342 335
304 305 304 301 305 305 303 302 303 302 299 299 304 303 304 306 304 307 309 309 310 312 311 313 315 317 317 314 313 319 324 325 325 325 325 326 323 323 325 328 336 341 338 340 335
303 304 303 301 306 305 302 303 303 301 300 301 304 305 305 306 306 307 309 309 311 312 311 311 315 316 317 315 313 314 318 322 324 325 325 324 323 322 325 332 334 339 340 341 340
302 304 303 301 306 304 303 303 301 301 302 304 305 305 306 305 307 310 310 310 311 311 311 313 313 315 316 315 312 315 320 319 322 323 323 324 324 323 324 335 336 339 340 340 338
303 304 304 302 306 304 304 304 302 301 304 305 306 305 306 307 308 311 311 313 314 312 312 313 315 315 316 314 315 318 316 318 319 322 322 323 324 323 322 335 335 334 338 339 338
304 303 304 302 306 305 305 304 303 303 305 306 306 306 305 308 310 312 312 312 315 314 314 313 314 315 316 318 318 319 315 317 320 321 320 323 327 323 323 324 328 334 334 336 337
307 303 305 302 306 305 305 305 305 305 306 306 306 305 306 308 310 311 311 311 312 314 313 312 314 314 316 317 318 318 319 316 318 320 320 322 325 320 321 322 320 322 331 332 333
313 303 305 302 306 306 305 305 306 306 305 306 306 305 308 309 311 311 311 311 311 311 311 312 311 313 311 313 318 318 319 319 318 320 319 319 322 321 321 320 321 320 321 327 331
317 303 305 303 307 305 305 304 306 306 306 306 307 306 308 309 310 311 311 311 311 310 309 310 310 315 313 312 313 316 318 319 318 319 320 319 320 321 321 321 319 320 320 321 324
318 303 304 303 307 305 305 307 308 307 306 307 306 308 309 309 309 310 312 311 311 309 309 307 310 313 313 314 314 314 317 316 317 319 319 321 321 319 319 320 320 319 320 319 322
319 302 304 303 307 305 305 306 307 308 307 308 308 306 308 308 308 309 311 311 311 311 310 307 312 313 314 314 315 314 314 314 318 319 319 319 320 319 318 320 320 320 320 319 319
318 302 304 305 305 306 306 306 307 309 296 305 309 307 308 309 308 309 310 311 309 311 311 312 312 313 314 315 314 316 314 314 320 320 320 317 320 313 318 319 319 319 319 319 319
318 304 304 305 309 307 307 306 306 307 299 304 309 308 309 309 308 310 309 312 310 311 308 308 313 313 314 315 314 315 315 316 319 316 315 320 316 315 312 316 316 317 317 318 318
318 306 303 306 308 308 308 304 305 301 298 308 310 311 310 309 308 310 311 311 311 310 310 309 311 311 312 313 314 313 313 314 316 316 320 314 317 315 313 313 312 313 316 318 319
314 306 303 307 308 308 307 304 305 300 303 307 310 310 309 309 309 309 310 309 307 304 300 305 309 311 312 314 313 314 313 319 318 320 315 311 317 315 313 310 309 310 314 315 317
309 305 305 307 308 306 304 306 306 303 305 305 309 309 310 309 309 309 308 309 308 308 304 304 304 310 311 311 312 313 315 313 316 316 316 312 318 314 311 310 312 313 313 314 315
305 303 307 308 308 305 308 306 305 303 306 309 310 310 310 310 309 309 308 306 307 308 307 308 308 308 311 313 312 313 311 312 315 309 307 313 309 308 308 308 310 310 312 313 314
304 305 308 308 306 307 307 310 304 308 308 309 309 308 309 310 309 308 308 307 308 307 307 309 308 310 311 313 313 312 311 314 313 317 316 310 309 310 310 309 309 309 311 312 314
304 307 307 307 306 308 306 306 307 310 310 309 308 309 308 309 308 308 309 308 308 308 307 308 310 310 312 313 312 314 312 313 312 314 311 311 308 305 307 307 308 308 311 311 312
305 310 307 306 307 307 308 305 309 309 309 309 308 309 308 307 308 308 309 307 307 309 309 308 309 310 309 311 312 313 315 314 315 313 306 303 308 306 305 306 307 308 311 311 312
307 307 307 307 308 309 308 308 308 309 308 308 309 308 307 307 308 306 306 304 304 306 309 309 309 309 307 313 312 315 313 314 311 310 307 309 308 305 306 309 310 311 311 311 311
308 307 307 306 307 307 308 305 306 308 308 309 308 307 307 307 306 307 304 302 304 305 308 308 307 307 305 310 309 312 313 313 313 313 309 309 309 309 308 309 310 311 311 312 312
308 305 307 307 307 307 305 305 307 307 307 308 306 306 306 305 304 304 300 299 301 303 303 306 305 306 307 308 310 309 312 314 313 313 310 309 309 309 307 307 308 310 311 311 311
308 304 306 305 306 305 305 303 306 306 306 306 304 301 301 303 302 300 299 299 300 299 302 300 297 302 297 304 307 309 309 311 313 313 313 311 311 308 310 308 309 311 311 311 311
308 305 305 303 304 305 304 301 303 302 301 302 302 298 299 299 300 299 299 298 296 296 299 298 298 300 297 301 304 305 308 309 310 311 313 314 312 311 312 311 310 311 311 311 311

GFSSW_850_thetae_102.txt.gz
Theta_e
304 305 307 309 309 310 308 304 308 308 309 308 299 300 305 306 304 306 307 309 311 310 309 312 312 312 315 316 316 315 318 324 322 321 319 320 323 328 328 330 334 328 328 337 344
305 304 304 308 306 309 308 303 303 307 310 301 299 304 305 305 305 307 308 311 310 310 310 313 313 314 315 315 315 314 321 321 321 321 320 320 324 330 333 336 336 337 335 337 341
309 304 304 306 304 305 306 303 303 302 309 299 302 303 304 305 305 307 308 311 311 310 311 313 312 315 313 314 313 313 321 320 322 325 326 321 324 326 333 334 336 336 341 338 337
317 305 304 304 303 305 306 303 303 301 301 300 304 305 305 306 304 307 308 310 310 311 311 313 313 315 314 315 314 315 313 313 325 325 325 323 323 323 326 329 336 334 338 341 339
320 311 304 304 302 305 303 303 302 301 300 301 305 305 306 305 307 310 309 309 310 310 311 314 314 315 315 314 313 312 311 316 321 324 324 324 322 325 326 334 338 336 337 338 337
321 317 305 305 302 306 303 303 301 301 303 305 305 305 305 305 308 311 311 311 311 312 312 313 313 316 314 312 312 311 313 314 319 322 322 323 322 324 328 335 337 336 335 334 333
322 318 305 305 302 306 304 304 302 302 303 305 306 306 305 307 310 312 312 314 314 312 312 312 313 316 314 313 312 313 314 311 319 321 321 321 324 323 321 332 336 336 338 337 334
321 320 309 304 303 306 304 304 304 303 305 306 306 305 306 309 311 311 311 312 314 313 313 313 314 316 317 315 316 315 310 313 315 320 320 322 326 319 321 326 326 333 334 335 335
321 320 315 304 303 306 304 305 305 304 305 305 305 305 306 309 310 311 311 311 313 313 312 312 314 314 316 318 319 317 317 314 314 318 320 320 323 319 320 320 319 322 330 333 335
319 320 315 307 304 306 304 304 306 306 305 305 306 304 307 309 310 310 311 311 311 311 310 312 311 313 311 313 318 320 318 317 315 318 319 318 318 317 317 319 319 320 320 328 333
315 318 316 309 304 306 304 304 304 306 305 306 306 306 307 309 310 310 311 311 310 310 311 309 314 316 314 312 313 316 318 318 317 318 316 317 317 318 317 317 317 319 320 320 328
314 315 315 304 304 305 303 305 307 306 306 306 306 307 308 308 309 311 311 311 310 309 308 307 313 313 312 313 313 315 317 317 318 319 318 318 317 319 317 317 317 318 320 320 320
314 314 314 308 304 305 304 306 307 307 307 308 308 306 308 308 308 309 311 310 309 310 309 307 311 312 313 313 314 313 314 314 319 320 318 318 319 319 317 317 317 318 319 320 320
312 315 313 310 304 305 305 306 307 309 298 304 309 307 308 308 307 309 310 311 308 310 310 310 311 312 314 315 313 315 313 314 319 319 319 317 318 317 318 318 317 318 318 320 320
310 312 313 307 307 306 306 306 307 307 303 303 308 307 309 308 308 309 309 311 310 310 308 308 312 312 314 314 313 314 314 314 318 316 318 319 317 315 316 319 318 316 317 319 319
305 310 311 306 305 307 307 304 306 305 305 307 309 310 309 309 308 310 310 310 310 308 307 308 309 311 311 312 313 312 314 314 314 315 318 315 317 315 313 315 316 316 316 317 318
305 310 311 306 306 308 307 304 306 308 304 307 309 310 309 308 308 308 309 308 306 303 299 304 307 308 311 313 311 314 314 317 319 320 315 310 317 317 313 311 310 311 314 316 318
309 309 308 305 308 308 304 306 307 306 304 304 309 309 309 308 308 308 308 307 307 306 302 303 304 308 310 311 311 313 312 310 315 315 312 312 317 315 311 310 310 311 312 313 314
308 307 307 305 308 307 306 307 308 304 305 308 309 309 309 309 308 308 307 305 306 306 306 308 307 307 309 312 312 313 311 311 309 308 305 311 310 307 308 308 308 309 311 313 313
305 305 306 305 308 305 306 309 306 305 308 308 308 307 307 309 308 307 307 306 307 306 306 307 306 308 310 312 312 313 310 315 316 317 316 310 308 309 309 309 309 309 309 311 312
304 304 305 308 306 307 307 307 305 308 309 309 306 308 307 308 306 307 308 307 307 308 306 308 310 306 310 311 311 314 316 313 312 312 311 311 308 304 307 306 307 307 310 310 311
305 306 306 307 307 307 307 307 308 308 309 308 307 307 306 305 306 306 308 306 304 308 308 308 310 308 307 309 312 313 314 313 314 313 305 303 308 305 305 305 306 307 310 311 311
304 306 307 306 307 308 308 309 308 308 308 308 308 308 307 306 306 306 305 303 303 304 306 308 304 306 301 310 311 313 313 313 312 308 304 307 308 305 305 307 308 309 310 311 311
306 306 306 306 307 307 309 308 308 308 307 307 307 307 307 307 305 305 303 302 303 305 306 306 303 300 301 301 307 306 310 309 313 314 308 309 309 308 307 309 309 310 310 311 311
305 306 306 306 306 307 306 305 306 307 307 307 307 306 306 306 304 304 300 299 301 302 301 302 296 302 304 304 307 308 309 309 311 313 311 309 308 308 307 307 308 310 310 310 311
307 305 306 305 306 306 306 305 306 306 305 307 305 303 302 302 301 300 299 298 299 298 299 299 293 299 297 301 302 305 307 309 310 309 312 311 310 307 309 307 308 309 309 310 311
307 304 306 304 304 306 306 304 305 302 301 300 302 298 299 299 299 298 298 297 295 295 297 297 299 296 299 300 305 302 306 308 309 311 311 312 312 311 311 310 311 310 311 311 311

GFSSW_850_thetae_105.txt.gz
Theta_e
322 316 305 305 304 302 309 310 305 307 308 307 300 299 304 305 304 305 307 310 313 311 309 310 311 310 312 313 314 316 319 317 320 321 322 317 320 323 328 329 330 329 329 330 341
323 321 313 304 304 302 305 309 308 304 306 307 299 303 305 305 305 305 307 311 312 311 310 312 311 312 313 314 314 315 319 317 319 320 322 323 322 328 331 334 330 329 329 329 332
323 323 317 305 304 302 305 308 306 303 301 303 301 303 306 305 305 307 308 311 311 311 311 312 312 313 312 313 314 315 318 315 316 320 320 323 323 327 331 334 330 330 327 330 331
322 322 321 308 304 303 305 304 304 302 301 300 303 304 305 305 304 310 310 309 309 311 311 312 313 314 313 314 313 315 314 313 314 314 323 322 322 325 330 330 330 328 326 328 331
321 321 321 312 304 304 305 304 303 301 301 302 304 304 305 305 307 309 310 312 310 311 312 313 313 315 313 313 313 314 313 314 313 316 323 323 321 324 325 332 334 330 328 336 334
320 321 321 317 306 304 304 304 304 302 301 304 305 305 305 304 310 311 312 313 313 312 312 312 313 315 313 313 312 311 312 312 313 315 316 323 322 322 324 329 336 333 332 333 332
319 320 320 318 308 304 304 305 304 303 302 304 305 305 305 307 310 311 311 313 314 311 312 312 313 315 312 312 312 312 314 313 314 312 317 321 325 321 319 329 335 333 332 332 333
317 319 319 318 310 306 303 305 305 304 304 304 305 305 305 309 310 311 311 312 314 314 313 313 313 315 315 313 314 313 313 315 314 312 312 321 326 320 319 322 326 332 332 332 332
314 316 317 317 313 308 303 305 305 305 305 305 305 305 305 307 310 310 310 311 313 312 311 311 313 315 315 317 318 316 317 315 315 312 314 321 324 318 317 319 319 323 329 331 331
311 313 316 316 316 310 304 305 305 305 306 305 305 305 305 308 310 310 310 311 311 312 311 311 312 315 313 313 318 319 318 316 315 313 315 318 319 316 317 318 317 318 321 331 332
307 310 312 315 315 308 305 305 305 304 306 305 306 306 306 308 309 310 311 310 310 310 311 309 315 316 314 312 313 316 317 316 315 313 316 316 317 317 316 317 318 318 318 320 330
302 307 310 312 313 310 305 304 306 306 306 306 305 306 307 308 308 309 310 310 309 309 307 309 314 313 313 312 313 316 318 318 317 316 316 316 316 316 317 316 317 318 319 319 321
300 309 311 313 313 309 306 305 306 307 307 307 307 306 307 307 308 308 310 309 309 309 309 309 311 311 313 313 313 313 316 316 318 318 318 317 318 318 317 316 317 319 321 320 319
296 308 311 311 309 308 305 306 306 308 301 305 308 307 307 308 306 308 309 310 308 310 309 309 310 312 313 314 312 315 312 314 320 320 320 317 319 317 316 317 316 318 321 321 321
296 300 307 309 307 308 306 306 307 306 304 305 308 307 308 308 307 309 309 310 309 310 307 308 311 312 313 313 312 314 314 316 318 316 318 319 319 317 314 317 316 316 319 322 322
295 299 307 308 307 307 307 306 306 305 306 307 309 309 309 308 307 309 309 309 310 308 306 308 308 310 311 311 312 312 313 314 314 316 319 316 317 316 317 317 316 315 317 319 322
295 302 308 308 307 306 307 304 306 308 304 307 309 309 308 308 307 308 308 307 306 302 300 303 306 307 311 313 311 313 313 316 320 320 317 310 317 316 313 312 312 313 314 316 317
302 305 308 307 305 308 304 306 308 308 304 304 308 308 308 307 307 308 307 306 306 305 302 305 302 307 310 311 313 313 312 312 315 316 314 312 318 317 312 312 312 313 312 311 313
307 308 307 306 307 308 305 308 309 307 304 308 308 309 309 309 307 308 307 305 305 305 306 307 306 306 308 311 312 312 315 311 309 306 310 312 311 308 308 308 308 308 309 311 311
305 306 305 306 308 307 307 308 308 304 307 308 307 306 307 308 308 308 307 306 307 305 305 306 306 307 310 311 311 313 311 317 316 315 315 310 309 312 309 308 307 309 309 310 311
304 304 305 307 306 305 308 307 307 306 308 308 305 308 305 308 306 306 306 306 305 307 305 307 309 306 307 310 310 314 315 313 313 314 314 311 310 304 307 306 306 305 309 310 311
304 305 305 306 306 306 307 307 307 308 308 308 306 306 305 305 306 306 307 305 302 307 307 307 308 307 306 309 310 311 312 312 315 314 306 307 310 305 304 306 306 306 309 310 310
303 305 305 305 307 307 307 308 308 308 308 308 307 307 305 305 306 305 304 302 302 305 306 307 303 298 300 304 307 309 308 307 309 309 305 312 311 304 306 307 307 308 309 310 310
304 305 305 305 307 306 308 308 308 307 307 306 306 306 306 306 303 303 303 301 302 305 305 304 300 299 300 298 306 306 307 309 307 314 310 308 309 308 306 308 308 309 310 310 310
301 304 305 306 307 307 306 306 306 308 307 307 306 306 305 305 303 304 299 299 300 300 300 299 296 300 302 302 303 304 305 307 305 308 313 309 308 308 307 306 308 309 309 310 311
302 305 306 306 306 307 306 307 306 306 306 307 306 304 303 302 300 301 299 298 298 297 298 296 294 293 293 300 301 303 303 304 307 307 307 309 310 308 309 309 307 308 310 311 311
300 305 306 305 305 306 306 306 305 304 300 300 302 299 300 298 298 297 297 297 295 294 297 296 296 293 297 299 302 301 306 306 307 308 309 309 311 311 310 309 310 310 309 309 311

GFSSW_850_thetae_108.txt.gz
Theta_e
323 322 322 320 306 305 303 305 310 306 304 307 307 299 303 304 305 306 306 307 311 313 311 310 311 311 311 312 312 315 316 318 319 319 321 320 322 322 322 329 332 332 332 334 333
322 321 322 322 311 304 303 303 308 305 303 307 304 302 303 307 306 305 307 308 313 311 311 312 313 312 312 311 312 315 316 317 317 318 319 320 321 322 322 327 332 332 333 334 331
320 321 321 321 318 304 304 303 305 304 302 304 301 303 304 305 306 307 309 312 312 310 311 311 311 312 313 314 314 314 316 317 316 316 318 319 319 322 323 326 330 332 333 333 334
319 319 320 320 320 309 306 303 305 303 301 301 302 304 304 305 310 309 310 312 310 310 311 311 313 313 314 314 315 315 316 316 315 317 315 319 318 322 323 326 329 330 332 333 332
315 318 320 320 320 317 308 303 304 304 302 302 304 305 305 306 307 310 311 312 313 312 312 313 314 314 315 316 316 317 316 315 315 316 315 317 322 322 324 328 328 331 333 333 330
311 316 319 319 320 318 307 303 304 304 302 302 304 305 305 308 309 310 311 313 314 312 312 313 314 315 315 315 317 315 315 315 314 313 315 317 321 322 323 324 325 333 333 332 331
305 314 316 318 318 318 313 304 305 304 303 303 305 305 305 307 309 311 311 312 312 312 313 313 313 315 314 313 313 315 317 316 315 314 314 313 322 324 322 322 325 332 333 334 329
297 310 314 316 317 317 314 306 305 305 305 304 305 305 306 307 309 310 310 311 313 314 312 312 314 315 315 314 315 316 316 319 316 314 313 314 323 324 321 323 328 330 333 335 333
297 303 310 314 315 315 315 306 306 305 305 305 305 305 306 307 309 310 310 310 311 312 313 312 313 315 314 317 317 316 318 318 315 315 315 315 322 322 320 324 327 330 333 332 332
298 302 307 311 313 315 314 307 305 305 305 305 306 305 305 308 309 309 310 311 311 310 311 313 312 316 315 318 320 318 317 316 317 315 316 316 318 321 320 322 324 326 329 331 332
298 297 304 306 310 314 311 306 305 305 304 307 306 306 306 307 309 310 310 310 310 310 314 311 319 317 315 317 317 318 318 316 317 315 316 316 316 318 319 323 323 323 325 329 331
300 297 308 310 309 313 311 305 306 307 308 306 305 305 306 308 309 310 310 312 311 313 311 314 318 315 314 315 316 319 319 320 318 316 317 317 317 318 318 322 322 321 321 325 329
301 298 308 310 310 311 307 305 305 306 308 307 306 306 306 307 309 309 310 310 312 312 313 315 315 313 315 315 317 319 319 319 319 318 317 319 320 319 319 320 321 320 320 320 325
302 299 305 307 308 307 305 305 306 308 311 309 309 308 307 308 308 308 310 311 312 313 312 313 312 313 315 316 315 317 316 318 319 320 322 318 323 321 318 322 322 323 321 320 320
303 301 296 307 308 307 306 306 307 306 314 308 309 306 308 309 308 310 310 310 311 313 312 313 314 313 314 315 315 316 316 317 319 319 318 319 320 322 319 319 321 324 323 322 321
303 301 298 305 307 308 307 306 306 312 313 309 309 309 310 309 308 309 310 310 310 311 310 311 309 312 313 314 314 315 318 319 319 319 320 317 319 317 321 322 321 321 321 322 322
303 300 301 304 308 307 305 305 313 314 305 310 311 311 310 310 309 309 309 309 309 310 311 309 309 310 312 315 314 316 318 320 319 321 318 314 319 317 316 317 317 317 319 318 320
301 304 303 304 307 307 304 308 314 310 309 307 310 310 310 309 310 310 310 310 309 309 311 311 310 310 311 314 315 315 316 318 316 317 317 315 319 317 316 315 316 314 315 314 314
299 306 306 307 306 306 306 312 312 309 306 310 310 310 311 310 310 310 310 310 309 309 310 310 310 308 309 312 313 316 317 314 316 312 317 317 316 314 312 313 313 313 311 312 312
300 305 306 307 307 305 307 310 310 306 307 309 309 309 310 311 310 310 309 308 309 308 308 310 311 310 311 311 312 313 313 318 319 319 316 314 313 314 313 312 311 313 312 312 312
302 304 304 303 306 305 309 310 308 307 307 310 309 310 308 311 310 310 309 309 307 309 308 310 311 310 309 311 310 312 313 314 314 317 316 314 314 309 311 311 312 311 311 312 313
303 306 305 305 305 306 309 308 307 309 308 309 307 308 309 310 310 310 310 308 304 308 310 310 310 309 308 308 310 310 311 312 316 316 314 313 313 309 311 311 309 310 310 310 311
303 304 305 305 309 308 308 308 308 309 309 309 309 308 307 309 308 308 308 303 305 308 308 308 308 307 305 309 307 308 308 309 309 312 316 316 314 310 312 312 310 311 311 311 310
303 306 304 305 306 307 308 308 309 308 308 307 308 308 308 307 306 307 306 303 303 306 304 305 307 307 306 306 306 307 306 307 309 311 313 314 313 311 311 311 312 311 311 311 311
301 305 305 307 307 308 307 308 308 308 308 307 308 308 307 308 307 306 303 302 301 301 303 304 304 303 303 302 303 304 304 304 307 308 311 313 313 313 312 312 309 310 310 311 311
302 302 305 306 307 307 307 308 307 307 308 309 308 307 306 305 302 304 303 302 301 301 302 301 304 300 301 303 305 303 303 305 306 307 308 308 310 309 310 311 311 309 309 310 311
300 300 300 306 307 307 307 307 306 306 301 300 304 305 305 301 299 298 298 299 300 301 301 301 302 303 306 303 304 307 309 309 309 309 309 310 311 311 311 311 312 311 311 312 311

GFSSW_850_thetae_111.txt.gz
Theta_e
320 321 322 320 321 320 309 305 303 311 306 302 302 307 302 304 306 310 309 307 308 314 312 313 313 313 312 312 312 312 314 315 314 315 317 317 321 321 323 324 324 324 332 334 342
316 319 320 321 321 320 315 305 303 306 304 302 302 302 303 304 307 309 308 309 312 314 312 313 314 313 312 312 312 313 315 314 313 316 319 318 318 319 321 323 324 327 331 336 343
312 316 319 320 320 320 319 314 303 305 303 303 302 302 304 305 308 308 309 310 313 311 310 312 314 313 312 311 311 312 315 314 316 316 317 317 317 317 322 325 324 325 334 338 342
310 312 317 318 320 319 320 314 304 305 304 302 302 304 305 307 313 309 311 312 313 311 313 314 314 313 314 314 313 314 314 315 317 317 317 316 316 319 321 322 323 321 326 338 341
307 306 314 317 319 320 319 314 304 305 304 302 303 304 305 308 309 309 311 311 314 312 314 314 314 314 315 315 315 316 316 316 317 316 316 316 315 315 320 322 322 324 328 336 340
305 303 311 314 318 319 319 317 308 305 304 303 302 305 310 309 309 310 311 311 313 313 314 315 315 315 316 315 316 316 316 317 316 316 316 316 316 317 321 322 324 326 328 335 335
304 303 307 312 316 317 317 315 310 305 305 303 303 306 310 309 308 309 311 312 313 312 313 314 314 315 315 314 314 316 317 318 317 315 316 316 319 321 321 323 324 325 331 334 334
304 303 298 309 314 315 316 315 306 305 305 305 304 309 309 307 308 310 311 312 313 313 313 312 314 315 316 315 315 316 318 321 318 316 316 317 320 320 322 323 324 326 331 333 334
303 302 297 303 309 313 314 314 309 305 305 305 307 308 308 307 308 311 311 311 312 313 314 312 313 316 315 316 317 316 319 320 318 317 317 317 318 319 319 323 324 327 329 331 333
304 302 297 299 305 308 312 312 305 304 305 305 308 307 308 308 309 310 311 310 312 313 312 313 313 317 316 318 323 320 318 317 317 318 316 317 320 318 317 323 325 328 328 332 333
305 304 298 308 310 307 310 305 307 308 306 307 308 308 307 308 309 311 311 312 313 312 315 313 317 320 316 316 318 318 319 318 316 317 317 319 320 319 318 324 326 329 332 332 331
305 304 299 307 309 309 311 306 307 308 308 307 307 307 307 308 310 311 311 313 313 315 315 315 318 317 315 317 318 319 319 319 319 317 317 320 321 321 319 324 326 328 331 332 331
304 304 303 301 307 308 309 308 306 306 309 309 307 307 307 308 310 311 312 312 313 314 315 316 317 315 316 316 317 319 320 319 319 319 318 320 323 323 320 324 324 325 328 331 331
302 304 304 296 305 307 305 305 305 307 313 311 309 309 308 310 310 309 311 313 313 314 314 314 314 314 315 316 316 318 317 318 319 320 321 319 327 325 322 325 325 324 324 326 328
302 304 304 297 303 307 306 305 306 307 319 310 310 307 309 310 310 311 311 312 313 313 313 315 314 315 314 314 315 317 317 318 318 319 319 319 320 325 324 325 326 325 324 323 325
303 304 303 300 300 306 307 306 306 312 317 311 310 309 310 310 309 310 310 311 311 311 311 312 311 312 315 314 315 316 317 317 318 318 321 318 318 323 324 325 325 325 324 323 322
303 303 301 302 304 306 307 306 312 317 307 312 312 310 310 310 310 310 310 311 311 313 313 311 310 310 312 315 314 316 317 320 320 322 319 317 318 318 318 319 323 324 324 324 323
303 301 300 306 304 306 305 309 315 312 311 309 312 311 311 310 311 311 311 311 310 310 312 311 313 310 310 313 315 315 316 319 321 319 317 317 318 319 316 316 317 317 319 319 321
299 301 305 304 302 307 306 314 314 312 307 311 311 311 312 311 312 311 310 310 310 310 311 310 310 309 310 312 313 315 317 315 317 315 315 316 316 314 314 315 316 316 315 315 315
302 302 305 307 306 306 308 312 311 308 309 311 310 311 311 312 311 311 309 310 311 310 310 311 311 310 310 311 312 313 313 317 317 318 315 315 314 314 314 314 314 314 314 314 314
305 303 304 306 306 306 311 311 310 309 309 311 309 310 309 311 311 310 309 310 309 311 310 310 310 311 309 310 310 311 312 313 313 316 320 317 313 312 314 313 313 313 313 314 316
305 306 303 304 305 307 310 309 307 310 309 310 309 309 310 310 310 310 310 309 307 310 310 310 310 310 307 308 310 310 310 311 314 317 316 316 315 313 313 312 312 313 313 313 313
304 303 304 305 310 309 309 309 309 310 310 310 309 309 309 310 309 309 309 305 307 309 309 308 309 309 308 310 309 308 308 309 310 312 317 316 316 313 313 313 312 313 313 312 312
303 306 305 305 305 309 309 309 310 309 310 309 309 308 308 308 308 308 308 305 304 306 304 306 309 308 307 307 306 306 306 306 308 313 311 315 315 314 313 313 312 312 312 312 312
303 305 305 308 308 309 309 309 310 309 309 309 309 308 308 308 307 307 306 305 303 302 304 305 306 304 304 304 304 304 305 305 307 308 310 311 310 313 312 312 312 312 312 312 312
303 302 301 307 307 309 308 309 309 308 308 310 309 309 308 306 304 304 305 304 303 303 304 304 307 303 304 305 305 304 304 304 306 308 308 309 311 311 311 312 313 312 311 312 312
301 300 302 306 307 308 309 308 307 307 304 303 306 308 307 303 302 302 301 302 302 304 304 303 304 306 307 306 307 310 309 309 310 309 310 310 311 310 310 310 311 311 312 312 312

GFSSW_850_thetae_114.txt.gz
Theta_e
309 315 317 319 320 320 320 320 311 304 306 305 302 303 302 303 305 310 311 310 309 308 314 313 314 314 313 313 312 313 314 314 313 313 313 311 317 316 316 318 320 323 325 327 334
309 310 314 317 319 320 319 320 317 307 305 304 302 302 303 304 305 311 310 308 309 315 313 313 313 314 314 313 313 313 313 313 312 312 313 315 317 317 317 317 317 321 323 325 328
308 309 308 314 317 318 320 320 319 310 305 304 302 302 304 305 311 310 309 310 312 313 313 313 314 314 313 312 312 312 313 313 313 313 314 317 316 316 318 318 317 320 323 326 331
309 308 306 310 313 317 320 320 318 308 305 304 302 303 304 306 312 310 310 312 313 312 313 313 315 313 313 314 313 313 313 313 314 315 316 316 316 314 315 316 317 318 321 324 329
305 308 305 308 312 317 318 319 316 313 305 304 303 303 305 310 309 310 311 311 313 312 314 315 315 315 315 315 315 315 314 314 315 315 317 316 315 315 314 315 317 319 321 323 323
306 305 305 300 310 314 316 317 316 314 305 305 303 303 310 311 310 310 311 312 314 314 314 314 315 315 315 315 316 315 316 315 316 316 316 316 315 316 315 316 319 320 322 323 324
306 305 303 298 299 312 315 315 315 312 304 305 304 304 310 309 309 309 310 312 313 312 313 315 314 315 315 315 315 315 317 317 317 317 317 316 317 315 315 319 322 322 325 325 324
305 306 303 300 297 307 312 313 314 311 305 305 304 307 310 308 307 309 311 312 313 314 314 313 314 314 315 316 315 315 315 318 317 318 317 316 317 316 320 320 322 323 324 325 324
307 305 304 300 302 302 308 312 313 312 305 305 306 309 308 308 307 310 311 312 312 313 314 314 311 315 316 316 318 316 318 318 318 318 318 317 318 318 320 322 323 324 325 326 327
305 305 305 302 305 309 306 309 311 306 305 306 308 307 309 308 310 310 311 311 313 314 314 313 314 317 316 316 322 321 321 318 319 319 318 318 318 316 319 322 323 323 325 329 331
304 304 305 304 301 308 309 307 306 309 308 308 309 308 308 309 309 311 311 312 313 314 314 315 317 318 317 316 316 317 317 318 316 317 318 318 317 318 320 319 321 322 325 330 329
303 303 305 304 299 306 308 309 307 308 308 308 306 308 307 307 310 311 311 313 314 315 315 316 316 316 317 316 316 317 318 319 319 317 316 317 318 319 320 319 323 325 327 330 330
303 303 303 304 300 303 308 309 306 306 309 309 308 308 308 307 311 312 312 313 313 313 314 314 315 315 315 315 316 317 319 319 319 319 317 318 320 319 320 320 322 326 328 329 329
302 303 303 304 298 306 306 306 306 307 312 311 309 309 308 310 310 310 312 313 313 314 314 314 313 313 314 315 315 317 317 317 317 318 322 319 318 323 322 320 323 324 329 331 330
302 303 303 303 298 304 307 306 306 307 316 311 310 309 310 311 310 311 311 313 312 313 313 314 314 313 314 315 314 316 315 316 317 317 317 318 317 324 322 323 323 322 326 329 330
302 303 303 303 304 302 306 306 306 311 315 311 309 310 310 310 309 310 311 311 311 310 310 311 310 311 313 312 313 313 315 316 316 318 316 317 317 321 322 324 324 323 324 325 328
303 303 303 302 305 303 307 307 311 315 307 312 311 310 311 310 310 310 311 311 310 309 312 311 310 310 312 313 313 314 314 314 314 313 315 316 316 317 316 318 322 321 323 323 324
301 302 305 304 303 303 306 308 314 312 310 311 311 310 311 310 311 311 311 311 310 310 310 310 308 309 309 311 312 313 315 318 322 322 321 316 320 313 313 315 319 318 317 323 323
303 304 305 302 303 305 306 311 313 311 308 312 311 312 312 310 311 311 309 310 310 309 309 311 309 309 310 309 311 312 313 313 318 315 314 314 312 311 312 312 313 315 317 316 315
303 304 305 305 305 306 309 312 311 309 310 311 311 310 312 312 312 310 309 310 311 310 309 310 309 310 309 310 311 312 312 314 315 312 315 312 311 314 312 311 312 312 313 315 316
305 305 304 305 306 307 310 310 310 310 309 311 310 309 310 311 310 309 309 308 309 311 309 309 310 309 309 309 309 311 310 311 311 313 319 319 317 312 310 310 311 311 313 314 315
304 305 305 306 306 308 311 309 309 310 310 310 309 310 309 310 310 310 310 308 308 309 310 308 308 306 308 309 308 308 309 309 310 310 313 317 316 311 310 310 312 312 312 312 313
304 304 305 306 309 310 309 308 309 309 310 310 309 309 309 309 309 308 308 305 306 308 306 306 306 302 307 309 307 307 307 307 307 309 308 315 316 312 309 309 312 312 312 312 311
305 306 305 306 306 309 310 310 310 309 310 309 309 308 308 308 307 308 307 305 304 305 304 306 305 304 303 302 304 304 305 305 306 307 303 312 313 311 310 311 310 312 312 312 312
304 304 304 307 309 310 309 310 310 310 309 309 309 308 308 307 307 306 306 305 303 302 304 304 300 303 304 304 304 304 304 305 300 305 303 307 307 310 310 310 311 311 312 313 312
303 303 303 306 307 309 309 309 309 308 306 308 309 308 305 304 304 304 304 304 302 303 304 302 302 298 298 305 305 304 304 304 305 307 308 308 310 309 310 310 310 310 311 312 311
300 302 304 306 307 308 309 308 307 306 304 303 305 307 304 302 302 302 302 302 302 303 302 302 300 300 304 306 304 302 309 309 310 309 309 309 309 308 309 309 309 309 309 309 309

GFSSW_850_thetae_117.txt.gz
Theta_e
310 310 310 310 316 317 318 320 318 319 312 305 305 303 303 304 304 305 308 309 310 311 309 309 313 313 313 312 312 312 314 312 312 312 312 311 311 311 312 316 315 316 317 320 321
308 308 309 307 311 315 317 319 318 319 315 305 305 303 302 304 305 308 309 311 308 308 310 312 313 314 313 313 312 312 314 312 311 310 311 310 312 314 316 315 316 317 316 316 317
307 306 307 307 307 311 313 318 318 318 315 305 305 303 302 304 309 310 309 310 310 312 312 312 312 314 314 312 313 312 311 311 311 311 311 314 314 315 316 317 316 316 316 316 318
309 307 306 305 300 310 313 317 317 317 313 307 305 303 303 305 309 310 310 311 312 313 313 313 313 315 313 313 312 312 312 311 311 311 311 313 315 315 315 315 315 315 316 315 317
307 307 306 303 299 308 313 316 316 316 313 306 305 303 303 311 309 309 310 312 312 312 314 315 315 315 314 313 314 314 314 313 312 314 313 314 315 315 314 313 313 315 315 317 315
307 307 307 305 301 298 310 312 315 314 313 306 306 303 305 310 310 310 310 311 313 313 314 314 315 314 315 314 315 315 315 315 313 314 315 316 316 315 315 314 314 314 315 319 317
306 307 307 306 303 298 304 312 314 313 312 306 305 306 307 307 309 310 310 312 312 312 313 314 314 312 314 313 314 315 315 315 316 315 316 316 317 317 315 314 315 314 318 320 321
306 305 307 306 305 300 302 309 312 313 312 305 305 307 308 308 308 308 309 311 312 313 313 313 313 314 314 314 315 315 314 316 316 317 317 315 317 315 317 320 319 320 322 322 323
305 305 304 306 305 302 307 302 309 311 310 305 306 307 309 307 308 307 310 312 313 313 312 314 313 313 316 317 316 316 314 316 316 315 317 316 316 315 316 318 320 321 322 323 325
304 304 304 304 305 300 308 306 307 309 305 305 308 308 308 308 309 310 311 311 311 314 313 314 313 313 316 314 316 319 318 318 319 318 318 317 317 316 316 318 321 323 322 323 325
303 303 304 304 305 301 305 307 308 307 309 308 308 307 308 308 308 309 311 311 312 313 312 313 315 315 315 315 315 316 316 318 318 317 319 318 317 316 314 318 318 321 322 323 328
301 302 304 303 304 302 303 307 306 307 306 308 307 308 307 307 308 311 311 312 312 313 312 315 314 313 315 316 316 315 316 319 320 317 317 316 317 315 316 318 319 319 321 326 329
304 301 303 304 304 299 307 306 306 306 308 309 309 307 307 307 310 311 311 313 311 311 312 313 312 313 314 313 314 314 317 317 318 316 316 317 316 317 317 319 320 320 324 327 327
301 302 303 303 302 305 307 306 306 308 310 310 308 308 308 308 310 310 311 312 312 312 312 311 312 313 312 313 314 315 315 314 315 315 317 318 319 319 319 321 320 321 328 328 326
303 303 303 303 301 302 306 306 306 307 312 310 309 309 309 310 309 310 310 312 311 311 309 308 311 311 311 313 311 313 313 313 314 314 314 315 319 319 322 323 322 322 326 328 328
302 303 303 303 303 302 306 306 306 308 311 310 308 309 309 309 309 310 310 310 309 310 309 309 309 309 311 310 311 312 312 312 313 315 311 316 319 318 315 321 322 319 321 327 328
302 304 302 301 304 303 306 307 310 307 305 310 310 310 310 309 309 309 310 309 307 303 303 307 309 308 309 309 310 311 311 306 311 307 312 313 315 313 312 319 318 318 317 324 327
304 304 305 303 304 305 306 308 310 309 308 310 310 309 310 309 310 310 309 308 308 307 302 303 304 308 308 309 311 310 313 316 319 319 316 314 312 313 310 312 318 318 316 317 322
304 306 304 302 304 306 307 310 310 308 308 311 310 310 310 309 310 310 307 307 308 307 308 305 306 308 308 309 310 310 310 312 316 316 316 312 311 309 310 309 312 315 314 316 316
304 304 305 305 306 307 309 310 309 309 309 310 309 307 310 310 310 308 308 307 308 308 307 308 305 308 308 307 307 311 310 309 308 312 318 315 313 314 311 310 310 311 312 314 317
305 305 306 306 307 308 310 309 310 309 309 309 308 307 307 309 307 306 306 306 307 309 307 305 306 305 306 307 308 308 307 308 304 311 318 316 317 311 309 308 309 308 311 314 315
304 305 306 306 305 306 304 309 309 309 309 309 307 307 307 306 306 307 306 305 305 307 306 305 305 300 308 306 306 306 306 305 303 307 313 310 316 311 309 307 308 309 310 311 313
304 305 306 307 308 303 307 309 309 309 308 308 307 307 306 306 306 307 306 304 304 304 303 304 301 293 300 299 301 304 304 306 304 305 303 314 316 311 307 309 309 309 311 311 310
304 303 305 306 307 308 307 308 309 309 308 308 307 307 306 306 304 305 305 303 303 303 305 305 299 297 297 299 301 302 303 304 301 296 306 306 307 309 307 308 309 310 311 311 309
303 303 304 300 305 307 307 308 307 306 305 306 307 305 304 303 303 304 304 303 302 302 303 300 295 300 302 303 303 303 303 303 296 302 300 306 310 309 308 307 308 309 309 309 309
301 301 304 306 306 306 306 307 307 306 303 304 306 303 301 302 302 303 302 301 300 301 302 299 297 293 295 304 304 303 303 303 304 305 307 307 311 307 309 308 307 307 308 308 308
303 303 304 305 303 305 306 307 305 304 303 302 301 303 301 301 300 301 301 301 301 302 300 298 294 295 300 304 299 298 306 307 309 308 307 305 307 306 308 308 306 307 307 307 307